<?xml version='1.0' encoding='UTF-8'?>
<gpx version="1.1" creator="https://www.komoot.de" xmlns="http://www.topografix.com/GPX/1/1" xmlns:xsi="http://www.w3.org/2001/XMLSchema-instance" xsi:schemaLocation="http://www.topografix.com/GPX/1/1 http://www.topografix.com/GPX/1/1/gpx.xsd">
  <metadata>
    <name>70_830HogschuerWehr</name>
    <author>
      <link href="https://www.komoot.de">
        <text>komoot</text>
        <type>text/html</type>
      </link>
    </author>
  </metadata>
  <trk>
    <name>70_830HogschuerWehr</name>
    <trkseg>
      <trkpt lat="47.541273" lon="7.870905">
        <ele>340.792860</ele>
        <time>2021-11-20T08:22:25.674Z</time>
      </trkpt>
      <trkpt lat="47.541410" lon="7.870791">
        <ele>340.792860</ele>
        <time>2021-11-20T08:22:28.022Z</time>
      </trkpt>
      <trkpt lat="47.541576" lon="7.870664">
        <ele>340.792860</ele>
        <time>2021-11-20T08:22:32.166Z</time>
      </trkpt>
      <trkpt lat="47.541796" lon="7.871042">
        <ele>340.792860</ele>
        <time>2021-11-20T08:22:39.268Z</time>
      </trkpt>
      <trkpt lat="47.541953" lon="7.871286">
        <ele>340.825710</ele>
        <time>2021-11-20T08:22:44.090Z</time>
      </trkpt>
      <trkpt lat="47.542039" lon="7.871556">
        <ele>341.552393</ele>
        <time>2021-11-20T08:22:48.464Z</time>
      </trkpt>
      <trkpt lat="47.542067" lon="7.871664">
        <ele>341.833993</ele>
        <time>2021-11-20T08:22:50.128Z</time>
      </trkpt>
      <trkpt lat="47.542091" lon="7.871721">
        <ele>341.997511</ele>
        <time>2021-11-20T08:22:50.736Z</time>
      </trkpt>
      <trkpt lat="47.542218" lon="7.871866">
        <ele>342.575669</ele>
        <time>2021-11-20T08:22:55.845Z</time>
      </trkpt>
      <trkpt lat="47.542394" lon="7.872341">
        <ele>343.894560</ele>
        <time>2021-11-20T08:23:05.897Z</time>
      </trkpt>
      <trkpt lat="47.542436" lon="7.872494">
        <ele>344.296584</ele>
        <time>2021-11-20T08:23:09.288Z</time>
      </trkpt>
      <trkpt lat="47.542537" lon="7.872430">
        <ele>344.692684</ele>
        <time>2021-11-20T08:23:11.400Z</time>
      </trkpt>
      <trkpt lat="47.542714" lon="7.872334">
        <ele>345.372335</ele>
        <time>2021-11-20T08:23:18.357Z</time>
      </trkpt>
      <trkpt lat="47.542814" lon="7.872280">
        <ele>345.756120</ele>
        <time>2021-11-20T08:23:21.371Z</time>
      </trkpt>
      <trkpt lat="47.542919" lon="7.872226">
        <ele>346.156891</ele>
        <time>2021-11-20T08:23:25.209Z</time>
      </trkpt>
      <trkpt lat="47.543013" lon="7.872182">
        <ele>346.512349</ele>
        <time>2021-11-20T08:23:28.716Z</time>
      </trkpt>
      <trkpt lat="47.543233" lon="7.872082">
        <ele>347.389698</ele>
        <time>2021-11-20T08:23:35.955Z</time>
      </trkpt>
      <trkpt lat="47.543251" lon="7.872152">
        <ele>347.708025</ele>
        <time>2021-11-20T08:23:39.328Z</time>
      </trkpt>
      <trkpt lat="47.543332" lon="7.872237">
        <ele>348.332933</ele>
        <time>2021-11-20T08:23:42.633Z</time>
      </trkpt>
      <trkpt lat="47.544390" lon="7.872423">
        <ele>355.040264</ele>
        <time>2021-11-20T08:24:24.353Z</time>
      </trkpt>
      <trkpt lat="47.544883" lon="7.872555">
        <ele>358.194208</ele>
        <time>2021-11-20T08:24:46.761Z</time>
      </trkpt>
      <trkpt lat="47.545131" lon="7.872664">
        <ele>359.892632</ele>
        <time>2021-11-20T08:24:57.765Z</time>
      </trkpt>
      <trkpt lat="47.545375" lon="7.872836">
        <ele>361.691113</ele>
        <time>2021-11-20T08:25:08.706Z</time>
      </trkpt>
      <trkpt lat="47.545478" lon="7.872968">
        <ele>362.597568</ele>
        <time>2021-11-20T08:25:15.514Z</time>
      </trkpt>
      <trkpt lat="47.545515" lon="7.873015">
        <ele>362.921963</ele>
        <time>2021-11-20T08:25:17.470Z</time>
      </trkpt>
      <trkpt lat="47.545746" lon="7.873302">
        <ele>364.928550</ele>
        <time>2021-11-20T08:25:30.670Z</time>
      </trkpt>
      <trkpt lat="47.545934" lon="7.873549">
        <ele>366.601007</ele>
        <time>2021-11-20T08:25:40.770Z</time>
      </trkpt>
      <trkpt lat="47.546077" lon="7.873763">
        <ele>367.953860</ele>
        <time>2021-11-20T08:25:49.967Z</time>
      </trkpt>
      <trkpt lat="47.546135" lon="7.873859">
        <ele>368.532682</ele>
        <time>2021-11-20T08:25:53.206Z</time>
      </trkpt>
      <trkpt lat="47.546309" lon="7.874154">
        <ele>370.292705</ele>
        <time>2021-11-20T08:26:04.320Z</time>
      </trkpt>
      <trkpt lat="47.547126" lon="7.875801">
        <ele>375.981366</ele>
        <time>2021-11-20T08:26:50.081Z</time>
      </trkpt>
      <trkpt lat="47.547574" lon="7.876801">
        <ele>377.671922</ele>
        <time>2021-11-20T08:27:09.077Z</time>
      </trkpt>
      <trkpt lat="47.547992" lon="7.877974">
        <ele>377.225471</ele>
        <time>2021-11-20T08:27:21.878Z</time>
      </trkpt>
      <trkpt lat="47.548234" lon="7.878638">
        <ele>376.971485</ele>
        <time>2021-11-20T08:27:27.190Z</time>
      </trkpt>
      <trkpt lat="47.548422" lon="7.878959">
        <ele>375.966235</ele>
        <time>2021-11-20T08:27:30.033Z</time>
      </trkpt>
      <trkpt lat="47.548718" lon="7.879258">
        <ele>374.510531</ele>
        <time>2021-11-20T08:27:33.571Z</time>
      </trkpt>
      <trkpt lat="47.549140" lon="7.879391">
        <ele>372.757433</ele>
        <time>2021-11-20T08:27:37.758Z</time>
      </trkpt>
      <trkpt lat="47.549318" lon="7.879398">
        <ele>372.033903</ele>
        <time>2021-11-20T08:27:39.385Z</time>
      </trkpt>
      <trkpt lat="47.549327" lon="7.879547">
        <ele>371.623627</ele>
        <time>2021-11-20T08:27:40.371Z</time>
      </trkpt>
      <trkpt lat="47.549726" lon="7.880786">
        <ele>368.029965</ele>
        <time>2021-11-20T08:27:49.306Z</time>
      </trkpt>
      <trkpt lat="47.549927" lon="7.881490">
        <ele>366.135142</ele>
        <time>2021-11-20T08:27:54.338Z</time>
      </trkpt>
      <trkpt lat="47.550234" lon="7.883221">
        <ele>361.513189</ele>
        <time>2021-11-20T08:28:06.738Z</time>
      </trkpt>
      <trkpt lat="47.550332" lon="7.884727">
        <ele>357.242312</ele>
        <time>2021-11-20T08:28:16.583Z</time>
      </trkpt>
      <trkpt lat="47.550391" lon="7.885109">
        <ele>356.136124</ele>
        <time>2021-11-20T08:28:19.115Z</time>
      </trkpt>
      <trkpt lat="47.550548" lon="7.885799">
        <ele>353.598311</ele>
        <time>2021-11-20T08:28:23.720Z</time>
      </trkpt>
      <trkpt lat="47.550677" lon="7.886476">
        <ele>350.943490</ele>
        <time>2021-11-20T08:28:28.150Z</time>
      </trkpt>
      <trkpt lat="47.550758" lon="7.887295">
        <ele>347.819637</ele>
        <time>2021-11-20T08:28:33.292Z</time>
      </trkpt>
      <trkpt lat="47.550789" lon="7.887816">
        <ele>345.845798</ele>
        <time>2021-11-20T08:28:36.524Z</time>
      </trkpt>
      <trkpt lat="47.550831" lon="7.888611">
        <ele>342.518074</ele>
        <time>2021-11-20T08:28:41.480Z</time>
      </trkpt>
      <trkpt lat="47.550833" lon="7.889069">
        <ele>340.579506</ele>
        <time>2021-11-20T08:28:44.290Z</time>
      </trkpt>
      <trkpt lat="47.550915" lon="7.890600">
        <ele>334.107603</ele>
        <time>2021-11-20T08:28:53.683Z</time>
      </trkpt>
      <trkpt lat="47.550904" lon="7.891725">
        <ele>330.753221</ele>
        <time>2021-11-20T08:29:00.687Z</time>
      </trkpt>
      <trkpt lat="47.550892" lon="7.893176">
        <ele>326.426942</ele>
        <time>2021-11-20T08:29:10.299Z</time>
      </trkpt>
      <trkpt lat="47.550908" lon="7.894308">
        <ele>325.270575</ele>
        <time>2021-11-20T08:29:19.504Z</time>
      </trkpt>
      <trkpt lat="47.550878" lon="7.895158">
        <ele>324.504319</ele>
        <time>2021-11-20T08:29:26.689Z</time>
      </trkpt>
      <trkpt lat="47.550838" lon="7.895509">
        <ele>324.183860</ele>
        <time>2021-11-20T08:29:29.853Z</time>
      </trkpt>
      <trkpt lat="47.550660" lon="7.896255">
        <ele>323.155472</ele>
        <time>2021-11-20T08:29:36.341Z</time>
      </trkpt>
      <trkpt lat="47.550639" lon="7.896345">
        <ele>322.994471</ele>
        <time>2021-11-20T08:29:37.528Z</time>
      </trkpt>
      <trkpt lat="47.550648" lon="7.896481">
        <ele>322.763430</ele>
        <time>2021-11-20T08:29:38.484Z</time>
      </trkpt>
      <trkpt lat="47.550819" lon="7.898109">
        <ele>319.977810</ele>
        <time>2021-11-20T08:29:50.232Z</time>
      </trkpt>
      <trkpt lat="47.550801" lon="7.900244">
        <ele>314.313189</ele>
        <time>2021-11-20T08:30:04.069Z</time>
      </trkpt>
      <trkpt lat="47.550769" lon="7.901362">
        <ele>311.185101</ele>
        <time>2021-11-20T08:30:11.341Z</time>
      </trkpt>
      <trkpt lat="47.550757" lon="7.901591">
        <ele>310.614932</ele>
        <time>2021-11-20T08:30:13.477Z</time>
      </trkpt>
      <trkpt lat="47.550688" lon="7.902451">
        <ele>308.465076</ele>
        <time>2021-11-20T08:30:21.911Z</time>
      </trkpt>
      <trkpt lat="47.550498" lon="7.903445">
        <ele>305.900566</ele>
        <time>2021-11-20T08:30:32.161Z</time>
      </trkpt>
      <trkpt lat="47.550302" lon="7.904164">
        <ele>303.955205</ele>
        <time>2021-11-20T08:30:39.421Z</time>
      </trkpt>
      <trkpt lat="47.550025" lon="7.904774">
        <ele>302.096187</ele>
        <time>2021-11-20T08:30:46.346Z</time>
      </trkpt>
      <trkpt lat="47.549868" lon="7.905010">
        <ele>301.258304</ele>
        <time>2021-11-20T08:30:49.477Z</time>
      </trkpt>
      <trkpt lat="47.549867" lon="7.905155">
        <ele>300.891641</ele>
        <time>2021-11-20T08:30:50.874Z</time>
      </trkpt>
      <trkpt lat="47.550067" lon="7.905245">
        <ele>300.108580</ele>
        <time>2021-11-20T08:30:53.799Z</time>
      </trkpt>
      <trkpt lat="47.550283" lon="7.905413">
        <ele>299.194650</ele>
        <time>2021-11-20T08:30:57.249Z</time>
      </trkpt>
      <trkpt lat="47.550497" lon="7.905558">
        <ele>298.321296</ele>
        <time>2021-11-20T08:31:00.607Z</time>
      </trkpt>
      <trkpt lat="47.549539" lon="7.908625">
        <ele>293.178466</ele>
        <time>2021-11-20T08:31:25.059Z</time>
      </trkpt>
      <trkpt lat="47.549520" lon="7.908678">
        <ele>293.118998</ele>
        <time>2021-11-20T08:31:25.554Z</time>
      </trkpt>
      <trkpt lat="47.549328" lon="7.909315">
        <ele>292.427696</ele>
        <time>2021-11-20T08:31:31.193Z</time>
      </trkpt>
      <trkpt lat="47.549257" lon="7.909550">
        <ele>292.172562</ele>
        <time>2021-11-20T08:31:33.363Z</time>
      </trkpt>
      <trkpt lat="47.549195" lon="7.909756">
        <ele>291.949056</ele>
        <time>2021-11-20T08:31:35.190Z</time>
      </trkpt>
      <trkpt lat="47.549187" lon="7.909782">
        <ele>291.920740</ele>
        <time>2021-11-20T08:31:35.388Z</time>
      </trkpt>
      <trkpt lat="47.549102" lon="7.910058">
        <ele>291.620118</ele>
        <time>2021-11-20T08:31:37.929Z</time>
      </trkpt>
      <trkpt lat="47.549012" lon="7.910340">
        <ele>291.311010</ele>
        <time>2021-11-20T08:31:40.403Z</time>
      </trkpt>
      <trkpt lat="47.548412" lon="7.912168">
        <ele>289.776537</ele>
        <time>2021-11-20T08:31:56.759Z</time>
      </trkpt>
      <trkpt lat="47.548027" lon="7.913334">
        <ele>289.093379</ele>
        <time>2021-11-20T08:32:07.520Z</time>
      </trkpt>
      <trkpt lat="47.547994" lon="7.913433">
        <ele>289.062921</ele>
        <time>2021-11-20T08:32:08.441Z</time>
      </trkpt>
      <trkpt lat="47.547423" lon="7.915080">
        <ele>288.552155</ele>
        <time>2021-11-20T08:32:25.917Z</time>
      </trkpt>
      <trkpt lat="47.547113" lon="7.915971">
        <ele>288.766790</ele>
        <time>2021-11-20T08:32:36.364Z</time>
      </trkpt>
      <trkpt lat="47.547091" lon="7.916039">
        <ele>288.786714</ele>
        <time>2021-11-20T08:32:37.389Z</time>
      </trkpt>
      <trkpt lat="47.547032" lon="7.916218">
        <ele>288.839346</ele>
        <time>2021-11-20T08:32:39.592Z</time>
      </trkpt>
      <trkpt lat="47.546821" lon="7.916867">
        <ele>289.029679</ele>
        <time>2021-11-20T08:32:47.701Z</time>
      </trkpt>
      <trkpt lat="47.546262" lon="7.919081">
        <ele>289.671718</ele>
        <time>2021-11-20T08:33:15.212Z</time>
      </trkpt>
      <trkpt lat="47.546128" lon="7.919617">
        <ele>289.828971</ele>
        <time>2021-11-20T08:33:20.680Z</time>
      </trkpt>
      <trkpt lat="47.545973" lon="7.920313">
        <ele>290.144764</ele>
        <time>2021-11-20T08:33:29.144Z</time>
      </trkpt>
      <trkpt lat="47.545913" lon="7.920765">
        <ele>290.487643</ele>
        <time>2021-11-20T08:33:33.317Z</time>
      </trkpt>
      <trkpt lat="47.545881" lon="7.921096">
        <ele>290.736530</ele>
        <time>2021-11-20T08:33:37.334Z</time>
      </trkpt>
      <trkpt lat="47.545810" lon="7.921755">
        <ele>291.233250</ele>
        <time>2021-11-20T08:33:46.242Z</time>
      </trkpt>
      <trkpt lat="47.545778" lon="7.921947">
        <ele>291.380453</ele>
        <time>2021-11-20T08:33:49.851Z</time>
      </trkpt>
      <trkpt lat="47.545714" lon="7.922249">
        <ele>291.616059</ele>
        <time>2021-11-20T08:33:53.050Z</time>
      </trkpt>
      <trkpt lat="47.545699" lon="7.922325">
        <ele>291.674996</ele>
        <time>2021-11-20T08:33:54.247Z</time>
      </trkpt>
      <trkpt lat="47.545690" lon="7.922369">
        <ele>291.709217</ele>
        <time>2021-11-20T08:33:56.345Z</time>
      </trkpt>
      <trkpt lat="47.545641" lon="7.922610">
        <ele>291.896562</ele>
        <time>2021-11-20T08:33:58.699Z</time>
      </trkpt>
      <trkpt lat="47.545587" lon="7.922895">
        <ele>292.469487</ele>
        <time>2021-11-20T08:34:04.495Z</time>
      </trkpt>
      <trkpt lat="47.545553" lon="7.923142">
        <ele>293.046631</ele>
        <time>2021-11-20T08:34:07.142Z</time>
      </trkpt>
      <trkpt lat="47.545536" lon="7.923407">
        <ele>293.656081</ele>
        <time>2021-11-20T08:34:13.032Z</time>
      </trkpt>
      <trkpt lat="47.545521" lon="7.923709">
        <ele>294.349377</ele>
        <time>2021-11-20T08:34:17.186Z</time>
      </trkpt>
      <trkpt lat="47.545481" lon="7.924396">
        <ele>295.928102</ele>
        <time>2021-11-20T08:34:31.789Z</time>
      </trkpt>
      <trkpt lat="47.545466" lon="7.924880">
        <ele>297.037386</ele>
        <time>2021-11-20T08:34:43.095Z</time>
      </trkpt>
      <trkpt lat="47.545446" lon="7.925350">
        <ele>298.100123</ele>
        <time>2021-11-20T08:34:53.470Z</time>
      </trkpt>
      <trkpt lat="47.545417" lon="7.925848">
        <ele>298.983766</ele>
        <time>2021-11-20T08:35:03.949Z</time>
      </trkpt>
      <trkpt lat="47.545409" lon="7.926773">
        <ele>300.619132</ele>
        <time>2021-11-20T08:35:21.150Z</time>
      </trkpt>
      <trkpt lat="47.545407" lon="7.927001">
        <ele>301.022229</ele>
        <time>2021-11-20T08:35:24.959Z</time>
      </trkpt>
      <trkpt lat="47.545406" lon="7.927306">
        <ele>301.561419</ele>
        <time>2021-11-20T08:35:29.564Z</time>
      </trkpt>
      <trkpt lat="47.545421" lon="7.927686">
        <ele>302.234338</ele>
        <time>2021-11-20T08:35:35.099Z</time>
      </trkpt>
      <trkpt lat="47.545475" lon="7.928419">
        <ele>302.419544</ele>
        <time>2021-11-20T08:35:44.417Z</time>
      </trkpt>
      <trkpt lat="47.545563" lon="7.929641">
        <ele>301.475402</ele>
        <time>2021-11-20T08:35:54.296Z</time>
      </trkpt>
      <trkpt lat="47.545661" lon="7.930955">
        <ele>300.393993</ele>
        <time>2021-11-20T08:36:03.692Z</time>
      </trkpt>
      <trkpt lat="47.545696" lon="7.931497">
        <ele>299.866263</ele>
        <time>2021-11-20T08:36:07.661Z</time>
      </trkpt>
      <trkpt lat="47.545721" lon="7.931992">
        <ele>299.385145</ele>
        <time>2021-11-20T08:36:11.453Z</time>
      </trkpt>
      <trkpt lat="47.545724" lon="7.932758">
        <ele>298.642690</ele>
        <time>2021-11-20T08:36:17.663Z</time>
      </trkpt>
      <trkpt lat="47.545702" lon="7.933290">
        <ele>298.129748</ele>
        <time>2021-11-20T08:36:22.306Z</time>
      </trkpt>
      <trkpt lat="47.545674" lon="7.933625">
        <ele>298.304134</ele>
        <time>2021-11-20T08:36:25.506Z</time>
      </trkpt>
      <trkpt lat="47.545457" lon="7.935110">
        <ele>299.089075</ele>
        <time>2021-11-20T08:36:43.641Z</time>
      </trkpt>
      <trkpt lat="47.545074" lon="7.936484">
        <ele>300.296550</ele>
        <time>2021-11-20T08:37:05.168Z</time>
      </trkpt>
      <trkpt lat="47.544903" lon="7.936917">
        <ele>300.879323</ele>
        <time>2021-11-20T08:37:12.485Z</time>
      </trkpt>
      <trkpt lat="47.544705" lon="7.937395">
        <ele>301.530828</ele>
        <time>2021-11-20T08:37:20.669Z</time>
      </trkpt>
      <trkpt lat="47.544472" lon="7.937932">
        <ele>302.272418</ele>
        <time>2021-11-20T08:37:30.076Z</time>
      </trkpt>
      <trkpt lat="47.543826" lon="7.939433">
        <ele>304.349489</ele>
        <time>2021-11-20T08:37:56.958Z</time>
      </trkpt>
      <trkpt lat="47.543435" lon="7.940670">
        <ele>305.808719</ele>
        <time>2021-11-20T08:38:16.918Z</time>
      </trkpt>
      <trkpt lat="47.543161" lon="7.942213">
        <ele>306.583067</ele>
        <time>2021-11-20T08:38:37.767Z</time>
      </trkpt>
      <trkpt lat="47.543007" lon="7.943867">
        <ele>306.184390</ele>
        <time>2021-11-20T08:38:53.312Z</time>
      </trkpt>
      <trkpt lat="47.542913" lon="7.945267">
        <ele>304.740143</ele>
        <time>2021-11-20T08:39:04.077Z</time>
      </trkpt>
      <trkpt lat="47.542872" lon="7.945781">
        <ele>304.169672</ele>
        <time>2021-11-20T08:39:07.671Z</time>
      </trkpt>
      <trkpt lat="47.542875" lon="7.946089">
        <ele>303.651281</ele>
        <time>2021-11-20T08:39:09.799Z</time>
      </trkpt>
      <trkpt lat="47.542902" lon="7.946514">
        <ele>302.932883</ele>
        <time>2021-11-20T08:39:12.667Z</time>
      </trkpt>
      <trkpt lat="47.542943" lon="7.946806">
        <ele>302.430954</ele>
        <time>2021-11-20T08:39:14.688Z</time>
      </trkpt>
      <trkpt lat="47.542974" lon="7.946965">
        <ele>302.152434</ele>
        <time>2021-11-20T08:39:15.927Z</time>
      </trkpt>
      <trkpt lat="47.542979" lon="7.946989">
        <ele>302.110165</ele>
        <time>2021-11-20T08:39:16.084Z</time>
      </trkpt>
      <trkpt lat="47.543007" lon="7.947104">
        <ele>301.904426</ele>
        <time>2021-11-20T08:39:16.951Z</time>
      </trkpt>
      <trkpt lat="47.543087" lon="7.947317">
        <ele>301.494217</ele>
        <time>2021-11-20T08:39:18.650Z</time>
      </trkpt>
      <trkpt lat="47.543191" lon="7.947615">
        <ele>300.929652</ele>
        <time>2021-11-20T08:39:21.157Z</time>
      </trkpt>
      <trkpt lat="47.543191" lon="7.947615">
        <ele>300.929652</ele>
        <time>2021-11-20T08:39:21.163Z</time>
      </trkpt>
      <trkpt lat="47.543242" lon="7.947745">
        <ele>300.676612</ele>
        <time>2021-11-20T08:39:22.292Z</time>
      </trkpt>
      <trkpt lat="47.543273" lon="7.947816">
        <ele>300.534310</ele>
        <time>2021-11-20T08:39:22.928Z</time>
      </trkpt>
      <trkpt lat="47.543358" lon="7.947967">
        <ele>300.203429</ele>
        <time>2021-11-20T08:39:24.412Z</time>
      </trkpt>
      <trkpt lat="47.543455" lon="7.948127">
        <ele>299.841514</ele>
        <time>2021-11-20T08:39:26.023Z</time>
      </trkpt>
      <trkpt lat="47.543532" lon="7.948214">
        <ele>299.766436</ele>
        <time>2021-11-20T08:39:27.117Z</time>
      </trkpt>
      <trkpt lat="47.543579" lon="7.948287">
        <ele>299.748618</ele>
        <time>2021-11-20T08:39:27.907Z</time>
      </trkpt>
      <trkpt lat="47.543760" lon="7.948548">
        <ele>299.682526</ele>
        <time>2021-11-20T08:39:30.756Z</time>
      </trkpt>
      <trkpt lat="47.543864" lon="7.948694">
        <ele>299.645037</ele>
        <time>2021-11-20T08:39:32.499Z</time>
      </trkpt>
      <trkpt lat="47.544239" lon="7.949202">
        <ele>299.512077</ele>
        <time>2021-11-20T08:39:39.695Z</time>
      </trkpt>
      <trkpt lat="47.544521" lon="7.949558">
        <ele>299.415134</ele>
        <time>2021-11-20T08:39:45.868Z</time>
      </trkpt>
      <trkpt lat="47.544901" lon="7.950044">
        <ele>299.350603</ele>
        <time>2021-11-20T08:39:55.266Z</time>
      </trkpt>
      <trkpt lat="47.545166" lon="7.950366">
        <ele>299.450932</ele>
        <time>2021-11-20T08:40:01.815Z</time>
      </trkpt>
      <trkpt lat="47.545434" lon="7.950668">
        <ele>299.549500</ele>
        <time>2021-11-20T08:40:07.605Z</time>
      </trkpt>
      <trkpt lat="47.545542" lon="7.950842">
        <ele>299.596207</ele>
        <time>2021-11-20T08:40:10.031Z</time>
      </trkpt>
      <trkpt lat="47.545667" lon="7.950979">
        <ele>299.641723</ele>
        <time>2021-11-20T08:40:12.636Z</time>
      </trkpt>
      <trkpt lat="47.545737" lon="7.951055">
        <ele>299.667128</ele>
        <time>2021-11-20T08:40:13.890Z</time>
      </trkpt>
      <trkpt lat="47.545876" lon="7.951233">
        <ele>299.720912</ele>
        <time>2021-11-20T08:40:16.283Z</time>
      </trkpt>
      <trkpt lat="47.546112" lon="7.951485">
        <ele>299.806071</ele>
        <time>2021-11-20T08:40:20.825Z</time>
      </trkpt>
      <trkpt lat="47.546164" lon="7.951520">
        <ele>299.822790</ele>
        <time>2021-11-20T08:40:21.460Z</time>
      </trkpt>
      <trkpt lat="47.546212" lon="7.951535">
        <ele>299.837150</ele>
        <time>2021-11-20T08:40:22.225Z</time>
      </trkpt>
      <trkpt lat="47.546231" lon="7.951558">
        <ele>299.838310</ele>
        <time>2021-11-20T08:40:22.954Z</time>
      </trkpt>
      <trkpt lat="47.546421" lon="7.951793">
        <ele>299.736025</ele>
        <time>2021-11-20T08:40:26.135Z</time>
      </trkpt>
      <trkpt lat="47.546634" lon="7.952024">
        <ele>299.626937</ele>
        <time>2021-11-20T08:40:29.670Z</time>
      </trkpt>
      <trkpt lat="47.546695" lon="7.952091">
        <ele>299.595556</ele>
        <time>2021-11-20T08:40:30.625Z</time>
      </trkpt>
      <trkpt lat="47.546776" lon="7.952185">
        <ele>299.553035</ele>
        <time>2021-11-20T08:40:31.811Z</time>
      </trkpt>
      <trkpt lat="47.546935" lon="7.952372">
        <ele>299.469140</ele>
        <time>2021-11-20T08:40:34.747Z</time>
      </trkpt>
      <trkpt lat="47.547090" lon="7.952543">
        <ele>299.389276</ele>
        <time>2021-11-20T08:40:37.384Z</time>
      </trkpt>
      <trkpt lat="47.547400" lon="7.952910">
        <ele>299.225289</ele>
        <time>2021-11-20T08:40:42.689Z</time>
      </trkpt>
      <trkpt lat="47.547458" lon="7.952975">
        <ele>299.195235</ele>
        <time>2021-11-20T08:40:43.608Z</time>
      </trkpt>
      <trkpt lat="47.547550" lon="7.953078">
        <ele>299.147580</ele>
        <time>2021-11-20T08:40:45.101Z</time>
      </trkpt>
      <trkpt lat="47.547624" lon="7.953160">
        <ele>299.109392</ele>
        <time>2021-11-20T08:40:46.344Z</time>
      </trkpt>
      <trkpt lat="47.547797" lon="7.953355">
        <ele>298.967416</ele>
        <time>2021-11-20T08:40:49.359Z</time>
      </trkpt>
      <trkpt lat="47.547871" lon="7.953437">
        <ele>298.904013</ele>
        <time>2021-11-20T08:40:50.659Z</time>
      </trkpt>
      <trkpt lat="47.547994" lon="7.953584">
        <ele>298.795587</ele>
        <time>2021-11-20T08:40:52.841Z</time>
      </trkpt>
      <trkpt lat="47.548115" lon="7.953729">
        <ele>298.688810</ele>
        <time>2021-11-20T08:40:54.987Z</time>
      </trkpt>
      <trkpt lat="47.548251" lon="7.953895">
        <ele>298.567911</ele>
        <time>2021-11-20T08:40:57.398Z</time>
      </trkpt>
      <trkpt lat="47.548335" lon="7.953779">
        <ele>298.489124</ele>
        <time>2021-11-20T08:40:59.296Z</time>
      </trkpt>
      <trkpt lat="47.549252" lon="7.953292">
        <ele>297.753571</ele>
        <time>2021-11-20T08:41:16.763Z</time>
      </trkpt>
      <trkpt lat="47.549296" lon="7.953268">
        <ele>297.671948</ele>
        <time>2021-11-20T08:41:17.609Z</time>
      </trkpt>
      <trkpt lat="47.549442" lon="7.953195">
        <ele>297.403700</ele>
        <time>2021-11-20T08:41:20.165Z</time>
      </trkpt>
      <trkpt lat="47.549640" lon="7.953086">
        <ele>297.035986</ele>
        <time>2021-11-20T08:41:23.873Z</time>
      </trkpt>
      <trkpt lat="47.549673" lon="7.953076">
        <ele>296.977349</ele>
        <time>2021-11-20T08:41:24.432Z</time>
      </trkpt>
      <trkpt lat="47.549687" lon="7.953071">
        <ele>296.952279</ele>
        <time>2021-11-20T08:41:24.624Z</time>
      </trkpt>
      <trkpt lat="47.550567" lon="7.953069">
        <ele>295.420327</ele>
        <time>2021-11-20T08:41:38.798Z</time>
      </trkpt>
      <trkpt lat="47.550656" lon="7.953072">
        <ele>295.265351</ele>
        <time>2021-11-20T08:41:40.115Z</time>
      </trkpt>
      <trkpt lat="47.550967" lon="7.953063">
        <ele>294.722651</ele>
        <time>2021-11-20T08:41:44.872Z</time>
      </trkpt>
      <trkpt lat="47.551254" lon="7.952986">
        <ele>294.150906</ele>
        <time>2021-11-20T08:41:49.261Z</time>
      </trkpt>
      <trkpt lat="47.551295" lon="7.952900">
        <ele>294.011601</ele>
        <time>2021-11-20T08:41:50.324Z</time>
      </trkpt>
      <trkpt lat="47.551334" lon="7.952777">
        <ele>293.831804</ele>
        <time>2021-11-20T08:41:52.999Z</time>
      </trkpt>
      <trkpt lat="47.551339" lon="7.952761">
        <ele>293.808477</ele>
        <time>2021-11-20T08:41:53.370Z</time>
      </trkpt>
      <trkpt lat="47.551381" lon="7.952341">
        <ele>293.246734</ele>
        <time>2021-11-20T08:42:02.151Z</time>
      </trkpt>
      <trkpt lat="47.551506" lon="7.950255">
        <ele>291.118464</ele>
        <time>2021-11-20T08:42:47.688Z</time>
      </trkpt>
      <trkpt lat="47.551525" lon="7.950027">
        <ele>291.081474</ele>
        <time>2021-11-20T08:42:53.149Z</time>
      </trkpt>
      <trkpt lat="47.551581" lon="7.949830">
        <ele>291.047055</ele>
        <time>2021-11-20T08:42:58.301Z</time>
      </trkpt>
      <trkpt lat="47.551673" lon="7.949634">
        <ele>291.008615</ele>
        <time>2021-11-20T08:43:04.387Z</time>
      </trkpt>
      <trkpt lat="47.551794" lon="7.949387">
        <ele>290.959472</ele>
        <time>2021-11-20T08:43:11.948Z</time>
      </trkpt>
      <trkpt lat="47.552010" lon="7.949039">
        <ele>290.883347</ele>
        <time>2021-11-20T08:43:24.136Z</time>
      </trkpt>
      <trkpt lat="47.552049" lon="7.948982">
        <ele>290.870278</ele>
        <time>2021-11-20T08:43:26.305Z</time>
      </trkpt>
      <trkpt lat="47.552094" lon="7.948926">
        <ele>290.856258</ele>
        <time>2021-11-20T08:43:28.677Z</time>
      </trkpt>
      <trkpt lat="47.552202" lon="7.949003">
        <ele>290.827665</ele>
        <time>2021-11-20T08:43:33.368Z</time>
      </trkpt>
      <trkpt lat="47.552351" lon="7.949099">
        <ele>290.788903</ele>
        <time>2021-11-20T08:43:39.771Z</time>
      </trkpt>
      <trkpt lat="47.552382" lon="7.949119">
        <ele>290.780837</ele>
        <time>2021-11-20T08:43:41.221Z</time>
      </trkpt>
      <trkpt lat="47.552518" lon="7.949236">
        <ele>290.753202</ele>
        <time>2021-11-20T08:43:47.557Z</time>
      </trkpt>
      <trkpt lat="47.552953" lon="7.948775">
        <ele>290.661569</ele>
        <time>2021-11-20T08:44:08.562Z</time>
      </trkpt>
      <trkpt lat="47.553197" lon="7.948543">
        <ele>290.611896</ele>
        <time>2021-11-20T08:44:19.295Z</time>
      </trkpt>
      <trkpt lat="47.553243" lon="7.948595">
        <ele>290.601983</ele>
        <time>2021-11-20T08:44:21.352Z</time>
      </trkpt>
      <trkpt lat="47.553488" lon="7.949175">
        <ele>290.522862</ele>
        <time>2021-11-20T08:44:37.570Z</time>
      </trkpt>
      <trkpt lat="47.553669" lon="7.949729">
        <ele>290.349188</ele>
        <time>2021-11-20T08:44:51.597Z</time>
      </trkpt>
      <trkpt lat="47.553699" lon="7.949840">
        <ele>290.258872</ele>
        <time>2021-11-20T08:44:54.179Z</time>
      </trkpt>
      <trkpt lat="47.553747" lon="7.950009">
        <ele>290.120376</ele>
        <time>2021-11-20T08:44:58.249Z</time>
      </trkpt>
      <trkpt lat="47.553836" lon="7.950173">
        <ele>289.961421</ele>
        <time>2021-11-20T08:45:03.097Z</time>
      </trkpt>
      <trkpt lat="47.553918" lon="7.950361">
        <ele>289.792343</ele>
        <time>2021-11-20T08:45:07.930Z</time>
      </trkpt>
      <trkpt lat="47.554036" lon="7.950322">
        <ele>289.657033</ele>
        <time>2021-11-20T08:45:11.912Z</time>
      </trkpt>
      <trkpt lat="47.554130" lon="7.950301">
        <ele>289.550640</ele>
        <time>2021-11-20T08:45:15.214Z</time>
      </trkpt>
      <trkpt lat="47.554192" lon="7.950296">
        <ele>289.481148</ele>
        <time>2021-11-20T08:45:17.172Z</time>
      </trkpt>
      <trkpt lat="47.554240" lon="7.950300">
        <ele>289.427342</ele>
        <time>2021-11-20T08:45:18.730Z</time>
      </trkpt>
      <trkpt lat="47.554303" lon="7.950312">
        <ele>289.356253</ele>
        <time>2021-11-20T08:45:19.468Z</time>
      </trkpt>
      <trkpt lat="47.554392" lon="7.950331">
        <ele>289.255616</ele>
        <time>2021-11-20T08:45:20.542Z</time>
      </trkpt>
      <trkpt lat="47.554652" lon="7.950448">
        <ele>288.951503</ele>
        <time>2021-11-20T08:45:23.755Z</time>
      </trkpt>
      <trkpt lat="47.554759" lon="7.950515">
        <ele>288.821496</ele>
        <time>2021-11-20T08:45:25.161Z</time>
      </trkpt>
      <trkpt lat="47.554954" lon="7.950665">
        <ele>288.575598</ele>
        <time>2021-11-20T08:45:27.794Z</time>
      </trkpt>
      <trkpt lat="47.555474" lon="7.951144">
        <ele>288.404271</ele>
        <time>2021-11-20T08:45:35.679Z</time>
      </trkpt>
      <trkpt lat="47.555687" lon="7.951449">
        <ele>288.373321</ele>
        <time>2021-11-20T08:45:39.763Z</time>
      </trkpt>
      <trkpt lat="47.556339" lon="7.952382">
        <ele>288.278611</ele>
        <time>2021-11-20T08:45:53.825Z</time>
      </trkpt>
      <trkpt lat="47.556386" lon="7.952449">
        <ele>288.271796</ele>
        <time>2021-11-20T08:45:54.994Z</time>
      </trkpt>
      <trkpt lat="47.556400" lon="7.952468">
        <ele>288.269813</ele>
        <time>2021-11-20T08:45:55.306Z</time>
      </trkpt>
      <trkpt lat="47.557120" lon="7.953536">
        <ele>288.873600</ele>
        <time>2021-11-20T08:46:13.334Z</time>
      </trkpt>
      <trkpt lat="47.557517" lon="7.954117">
        <ele>289.206343</ele>
        <time>2021-11-20T08:46:23.180Z</time>
      </trkpt>
      <trkpt lat="47.557687" lon="7.954371">
        <ele>289.342795</ele>
        <time>2021-11-20T08:46:27.294Z</time>
      </trkpt>
      <trkpt lat="47.557874" lon="7.954579">
        <ele>289.358411</ele>
        <time>2021-11-20T08:46:31.021Z</time>
      </trkpt>
      <trkpt lat="47.557899" lon="7.954581">
        <ele>289.360083</ele>
        <time>2021-11-20T08:46:31.518Z</time>
      </trkpt>
      <trkpt lat="47.557935" lon="7.954571">
        <ele>289.362529</ele>
        <time>2021-11-20T08:46:32.168Z</time>
      </trkpt>
      <trkpt lat="47.558070" lon="7.954468">
        <ele>289.372670</ele>
        <time>2021-11-20T08:46:34.537Z</time>
      </trkpt>
      <trkpt lat="47.558107" lon="7.954410">
        <ele>289.376267</ele>
        <time>2021-11-20T08:46:35.467Z</time>
      </trkpt>
      <trkpt lat="47.558161" lon="7.954466">
        <ele>289.380668</ele>
        <time>2021-11-20T08:46:36.459Z</time>
      </trkpt>
      <trkpt lat="47.558201" lon="7.954539">
        <ele>289.384906</ele>
        <time>2021-11-20T08:46:37.541Z</time>
      </trkpt>
      <trkpt lat="47.558360" lon="7.955074">
        <ele>289.411253</ele>
        <time>2021-11-20T08:46:43.745Z</time>
      </trkpt>
      <trkpt lat="47.558659" lon="7.956055">
        <ele>289.459766</ele>
        <time>2021-11-20T08:46:54.046Z</time>
      </trkpt>
      <trkpt lat="47.558756" lon="7.956469">
        <ele>289.315098</ele>
        <time>2021-11-20T08:46:57.939Z</time>
      </trkpt>
      <trkpt lat="47.559224" lon="7.958738">
        <ele>288.472717</ele>
        <time>2021-11-20T08:47:18.383Z</time>
      </trkpt>
      <trkpt lat="47.559324" lon="7.959601">
        <ele>288.619080</ele>
        <time>2021-11-20T08:47:26.741Z</time>
      </trkpt>
      <trkpt lat="47.559346" lon="7.959868">
        <ele>288.664041</ele>
        <time>2021-11-20T08:47:29.835Z</time>
      </trkpt>
      <trkpt lat="47.559406" lon="7.960730">
        <ele>288.808890</ele>
        <time>2021-11-20T08:47:39.318Z</time>
      </trkpt>
      <trkpt lat="47.559408" lon="7.961845">
        <ele>289.159155</ele>
        <time>2021-11-20T08:47:53.083Z</time>
      </trkpt>
      <trkpt lat="47.559368" lon="7.962709">
        <ele>289.558506</ele>
        <time>2021-11-20T08:48:04.325Z</time>
      </trkpt>
      <trkpt lat="47.559232" lon="7.963800">
        <ele>290.070110</ele>
        <time>2021-11-20T08:48:16.917Z</time>
      </trkpt>
      <trkpt lat="47.559029" lon="7.964894">
        <ele>290.055888</ele>
        <time>2021-11-20T08:48:28.620Z</time>
      </trkpt>
      <trkpt lat="47.558949" lon="7.965326">
        <ele>290.022250</ele>
        <time>2021-11-20T08:48:32.856Z</time>
      </trkpt>
      <trkpt lat="47.558732" lon="7.966356">
        <ele>289.941226</ele>
        <time>2021-11-20T08:48:42.739Z</time>
      </trkpt>
      <trkpt lat="47.558606" lon="7.966985">
        <ele>289.931959</ele>
        <time>2021-11-20T08:48:48.995Z</time>
      </trkpt>
      <trkpt lat="47.558448" lon="7.967701">
        <ele>289.933336</ele>
        <time>2021-11-20T08:48:56.250Z</time>
      </trkpt>
      <trkpt lat="47.558430" lon="7.967788">
        <ele>289.933503</ele>
        <time>2021-11-20T08:48:57.133Z</time>
      </trkpt>
      <trkpt lat="47.558327" lon="7.968108">
        <ele>289.934151</ele>
        <time>2021-11-20T08:49:01.086Z</time>
      </trkpt>
      <trkpt lat="47.558313" lon="7.968259">
        <ele>289.934430</ele>
        <time>2021-11-20T08:49:02.545Z</time>
      </trkpt>
      <trkpt lat="47.558296" lon="7.968403">
        <ele>289.934697</ele>
        <time>2021-11-20T08:49:04.348Z</time>
      </trkpt>
      <trkpt lat="47.558225" lon="7.968807">
        <ele>289.935461</ele>
        <time>2021-11-20T08:49:08.802Z</time>
      </trkpt>
      <trkpt lat="47.558045" lon="7.969704">
        <ele>289.882200</ele>
        <time>2021-11-20T08:49:18.372Z</time>
      </trkpt>
      <trkpt lat="47.557756" lon="7.971140">
        <ele>289.768178</ele>
        <time>2021-11-20T08:49:33.063Z</time>
      </trkpt>
      <trkpt lat="47.557538" lon="7.972196">
        <ele>289.651188</ele>
        <time>2021-11-20T08:49:42.747Z</time>
      </trkpt>
      <trkpt lat="47.557419" lon="7.972636">
        <ele>289.590821</ele>
        <time>2021-11-20T08:49:47.002Z</time>
      </trkpt>
      <trkpt lat="47.557323" lon="7.972992">
        <ele>289.541998</ele>
        <time>2021-11-20T08:49:50.619Z</time>
      </trkpt>
      <trkpt lat="47.557235" lon="7.973507">
        <ele>289.474341</ele>
        <time>2021-11-20T08:49:55.697Z</time>
      </trkpt>
      <trkpt lat="47.557108" lon="7.974186">
        <ele>289.430946</ele>
        <time>2021-11-20T08:50:02.849Z</time>
      </trkpt>
      <trkpt lat="47.557045" lon="7.974526">
        <ele>289.616113</ele>
        <time>2021-11-20T08:50:06.884Z</time>
      </trkpt>
      <trkpt lat="47.556769" lon="7.976421">
        <ele>290.634233</ele>
        <time>2021-11-20T08:50:31.044Z</time>
      </trkpt>
      <trkpt lat="47.556668" lon="7.978159">
        <ele>291.401172</ele>
        <time>2021-11-20T08:50:52.958Z</time>
      </trkpt>
      <trkpt lat="47.557185" lon="7.988787">
        <ele>293.689185</ele>
        <time>2021-11-20T08:52:47.293Z</time>
      </trkpt>
      <trkpt lat="47.557298" lon="7.990679">
        <ele>294.134567</ele>
        <time>2021-11-20T08:53:08.517Z</time>
      </trkpt>
      <trkpt lat="47.557377" lon="7.991413">
        <ele>294.300775</ele>
        <time>2021-11-20T08:53:16.804Z</time>
      </trkpt>
      <trkpt lat="47.557666" lon="7.996934">
        <ele>295.443115</ele>
        <time>2021-11-20T08:54:15.661Z</time>
      </trkpt>
      <trkpt lat="47.557611" lon="7.998828">
        <ele>296.109233</ele>
        <time>2021-11-20T08:54:38.290Z</time>
      </trkpt>
      <trkpt lat="47.557595" lon="7.999065">
        <ele>296.209556</ele>
        <time>2021-11-20T08:54:41.316Z</time>
      </trkpt>
      <trkpt lat="47.557590" lon="7.999121">
        <ele>296.233348</ele>
        <time>2021-11-20T08:54:41.975Z</time>
      </trkpt>
      <trkpt lat="47.557569" lon="7.999330">
        <ele>296.322349</ele>
        <time>2021-11-20T08:54:47.564Z</time>
      </trkpt>
      <trkpt lat="47.557552" lon="7.999488">
        <ele>296.389739</ele>
        <time>2021-11-20T08:54:49.583Z</time>
      </trkpt>
      <trkpt lat="47.557421" lon="8.000151">
        <ele>296.680717</ele>
        <time>2021-11-20T08:54:57.784Z</time>
      </trkpt>
      <trkpt lat="47.557093" lon="8.001836">
        <ele>296.789999</ele>
        <time>2021-11-20T08:55:16.733Z</time>
      </trkpt>
      <trkpt lat="47.556859" lon="8.003033">
        <ele>296.709903</ele>
        <time>2021-11-20T08:55:27.859Z</time>
      </trkpt>
      <trkpt lat="47.556414" lon="8.004608">
        <ele>296.001570</ele>
        <time>2021-11-20T08:55:42.624Z</time>
      </trkpt>
      <trkpt lat="47.555689" lon="8.008075">
        <ele>294.342742</ele>
        <time>2021-11-20T08:56:14.291Z</time>
      </trkpt>
      <trkpt lat="47.555492" lon="8.008854">
        <ele>293.856970</ele>
        <time>2021-11-20T08:56:21.311Z</time>
      </trkpt>
      <trkpt lat="47.555373" lon="8.009365">
        <ele>293.530770</ele>
        <time>2021-11-20T08:56:25.795Z</time>
      </trkpt>
      <trkpt lat="47.555124" lon="8.010557">
        <ele>292.777798</ele>
        <time>2021-11-20T08:56:36.123Z</time>
      </trkpt>
      <trkpt lat="47.555069" lon="8.010772">
        <ele>292.657586</ele>
        <time>2021-11-20T08:56:37.956Z</time>
      </trkpt>
      <trkpt lat="47.554818" lon="8.011865">
        <ele>292.270297</ele>
        <time>2021-11-20T08:56:47.659Z</time>
      </trkpt>
      <trkpt lat="47.554682" lon="8.012449">
        <ele>292.063059</ele>
        <time>2021-11-20T08:56:53.364Z</time>
      </trkpt>
      <trkpt lat="47.554665" lon="8.012540">
        <ele>292.031385</ele>
        <time>2021-11-20T08:56:54.203Z</time>
      </trkpt>
      <trkpt lat="47.554546" lon="8.013079">
        <ele>291.841149</ele>
        <time>2021-11-20T08:56:59.705Z</time>
      </trkpt>
      <trkpt lat="47.554393" lon="8.013577">
        <ele>291.914483</ele>
        <time>2021-11-20T08:57:05.487Z</time>
      </trkpt>
      <trkpt lat="47.554329" lon="8.013807">
        <ele>291.996984</ele>
        <time>2021-11-20T08:57:08.362Z</time>
      </trkpt>
      <trkpt lat="47.553882" lon="8.015749">
        <ele>292.678466</ele>
        <time>2021-11-20T08:57:32.164Z</time>
      </trkpt>
      <trkpt lat="47.553715" lon="8.016236">
        <ele>292.887323</ele>
        <time>2021-11-20T08:57:38.626Z</time>
      </trkpt>
      <trkpt lat="47.553318" lon="8.017064">
        <ele>293.275659</ele>
        <time>2021-11-20T08:57:50.509Z</time>
      </trkpt>
      <trkpt lat="47.553229" lon="8.017328">
        <ele>293.388490</ele>
        <time>2021-11-20T08:57:54.119Z</time>
      </trkpt>
      <trkpt lat="47.553159" lon="8.017677">
        <ele>293.527696</ele>
        <time>2021-11-20T08:57:58.719Z</time>
      </trkpt>
      <trkpt lat="47.553012" lon="8.018748">
        <ele>293.789720</ele>
        <time>2021-11-20T08:58:10.347Z</time>
      </trkpt>
      <trkpt lat="47.553028" lon="8.018988">
        <ele>293.825801</ele>
        <time>2021-11-20T08:58:12.671Z</time>
      </trkpt>
      <trkpt lat="47.553030" lon="8.019182">
        <ele>293.854829</ele>
        <time>2021-11-20T08:58:14.365Z</time>
      </trkpt>
      <trkpt lat="47.553055" lon="8.019647">
        <ele>293.924617</ele>
        <time>2021-11-20T08:58:19.049Z</time>
      </trkpt>
      <trkpt lat="47.553064" lon="8.019820">
        <ele>293.950576</ele>
        <time>2021-11-20T08:58:20.574Z</time>
      </trkpt>
      <trkpt lat="47.553056" lon="8.019871">
        <ele>293.958410</ele>
        <time>2021-11-20T08:58:21.064Z</time>
      </trkpt>
      <trkpt lat="47.553031" lon="8.019915">
        <ele>293.967015</ele>
        <time>2021-11-20T08:58:21.708Z</time>
      </trkpt>
      <trkpt lat="47.552961" lon="8.019989">
        <ele>293.986076</ele>
        <time>2021-11-20T08:58:23.151Z</time>
      </trkpt>
      <trkpt lat="47.552879" lon="8.020034">
        <ele>294.005460</ele>
        <time>2021-11-20T08:58:24.746Z</time>
      </trkpt>
      <trkpt lat="47.552872" lon="8.020109">
        <ele>294.016788</ele>
        <time>2021-11-20T08:58:25.359Z</time>
      </trkpt>
      <trkpt lat="47.552813" lon="8.020595">
        <ele>294.104942</ele>
        <time>2021-11-20T08:58:31.182Z</time>
      </trkpt>
      <trkpt lat="47.552776" lon="8.021316">
        <ele>294.852016</ele>
        <time>2021-11-20T08:58:39.741Z</time>
      </trkpt>
      <trkpt lat="47.552879" lon="8.021327">
        <ele>295.010101</ele>
        <time>2021-11-20T08:58:41.854Z</time>
      </trkpt>
      <trkpt lat="47.552959" lon="8.021335">
        <ele>295.132847</ele>
        <time>2021-11-20T08:58:43.503Z</time>
      </trkpt>
      <trkpt lat="47.553183" lon="8.021466">
        <ele>295.501500</ele>
        <time>2021-11-20T08:58:48.277Z</time>
      </trkpt>
      <trkpt lat="47.553232" lon="8.021484">
        <ele>295.578782</ele>
        <time>2021-11-20T08:58:49.476Z</time>
      </trkpt>
      <trkpt lat="47.553266" lon="8.021493">
        <ele>295.631654</ele>
        <time>2021-11-20T08:58:50.230Z</time>
      </trkpt>
      <trkpt lat="47.553291" lon="8.021502">
        <ele>295.671039</ele>
        <time>2021-11-20T08:58:50.799Z</time>
      </trkpt>
      <trkpt lat="47.553305" lon="8.021505">
        <ele>295.692694</ele>
        <time>2021-11-20T08:58:51.097Z</time>
      </trkpt>
      <trkpt lat="47.553565" lon="8.021501">
        <ele>296.090734</ele>
        <time>2021-11-20T08:58:56.317Z</time>
      </trkpt>
      <trkpt lat="47.553607" lon="8.021497">
        <ele>296.155162</ele>
        <time>2021-11-20T08:58:57.408Z</time>
      </trkpt>
      <trkpt lat="47.553614" lon="8.021587">
        <ele>296.248762</ele>
        <time>2021-11-20T08:58:58.811Z</time>
      </trkpt>
      <trkpt lat="47.553615" lon="8.021606">
        <ele>296.268452</ele>
        <time>2021-11-20T08:58:59.106Z</time>
      </trkpt>
      <trkpt lat="47.553619" lon="8.021667">
        <ele>296.331771</ele>
        <time>2021-11-20T08:58:59.936Z</time>
      </trkpt>
      <trkpt lat="47.553685" lon="8.022501">
        <ele>297.602140</ele>
        <time>2021-11-20T08:59:13.844Z</time>
      </trkpt>
      <trkpt lat="47.553695" lon="8.022619">
        <ele>297.863395</ele>
        <time>2021-11-20T08:59:16.231Z</time>
      </trkpt>
      <trkpt lat="47.553699" lon="8.022667">
        <ele>297.969641</ele>
        <time>2021-11-20T08:59:17.174Z</time>
      </trkpt>
      <trkpt lat="47.553719" lon="8.022919">
        <ele>298.527043</ele>
        <time>2021-11-20T08:59:22.213Z</time>
      </trkpt>
      <trkpt lat="47.553732" lon="8.023128">
        <ele>298.988114</ele>
        <time>2021-11-20T08:59:26.450Z</time>
      </trkpt>
      <trkpt lat="47.553811" lon="8.023113">
        <ele>299.247359</ele>
        <time>2021-11-20T08:59:28.591Z</time>
      </trkpt>
      <trkpt lat="47.554021" lon="8.023095">
        <ele>299.932045</ele>
        <time>2021-11-20T08:59:34.835Z</time>
      </trkpt>
      <trkpt lat="47.554080" lon="8.023092">
        <ele>300.124201</ele>
        <time>2021-11-20T08:59:36.569Z</time>
      </trkpt>
      <trkpt lat="47.554091" lon="8.023091">
        <ele>300.160073</ele>
        <time>2021-11-20T08:59:36.860Z</time>
      </trkpt>
      <trkpt lat="47.554299" lon="8.023080">
        <ele>300.837537</ele>
        <time>2021-11-20T08:59:42.555Z</time>
      </trkpt>
      <trkpt lat="47.554701" lon="8.023055">
        <ele>302.147185</ele>
        <time>2021-11-20T08:59:54.257Z</time>
      </trkpt>
      <trkpt lat="47.554871" lon="8.023042">
        <ele>302.702134</ele>
        <time>2021-11-20T08:59:59.201Z</time>
      </trkpt>
      <trkpt lat="47.555073" lon="8.023022">
        <ele>303.474176</ele>
        <time>2021-11-20T09:00:05.214Z</time>
      </trkpt>
      <trkpt lat="47.555384" lon="8.022959">
        <ele>304.671202</ele>
        <time>2021-11-20T09:00:13.816Z</time>
      </trkpt>
      <trkpt lat="47.555814" lon="8.022759">
        <ele>306.389889</ele>
        <time>2021-11-20T09:00:26.308Z</time>
      </trkpt>
      <trkpt lat="47.556133" lon="8.022482">
        <ele>307.799884</ele>
        <time>2021-11-20T09:00:37.803Z</time>
      </trkpt>
      <trkpt lat="47.556863" lon="8.021668">
        <ele>311.969253</ele>
        <time>2021-11-20T09:01:08.105Z</time>
      </trkpt>
      <trkpt lat="47.557042" lon="8.021611">
        <ele>312.944272</ele>
        <time>2021-11-20T09:01:14.601Z</time>
      </trkpt>
      <trkpt lat="47.557190" lon="8.021670">
        <ele>313.760463</ele>
        <time>2021-11-20T09:01:19.195Z</time>
      </trkpt>
      <trkpt lat="47.557232" lon="8.021693">
        <ele>313.998918</ele>
        <time>2021-11-20T09:01:21.374Z</time>
      </trkpt>
      <trkpt lat="47.557354" lon="8.021790">
        <ele>314.736240</ele>
        <time>2021-11-20T09:01:25.485Z</time>
      </trkpt>
      <trkpt lat="47.557374" lon="8.021813">
        <ele>314.871061</ele>
        <time>2021-11-20T09:01:27.187Z</time>
      </trkpt>
      <trkpt lat="47.557721" lon="8.022248">
        <ele>317.291573</ele>
        <time>2021-11-20T09:01:42.930Z</time>
      </trkpt>
      <trkpt lat="47.558325" lon="8.023268">
        <ele>322.995226</ele>
        <time>2021-11-20T09:02:21.649Z</time>
      </trkpt>
      <trkpt lat="47.558843" lon="8.023745">
        <ele>327.127955</ele>
        <time>2021-11-20T09:02:48.181Z</time>
      </trkpt>
      <trkpt lat="47.559393" lon="8.024159">
        <ele>331.308250</ele>
        <time>2021-11-20T09:03:13.471Z</time>
      </trkpt>
      <trkpt lat="47.559502" lon="8.024274">
        <ele>332.028033</ele>
        <time>2021-11-20T09:03:19.620Z</time>
      </trkpt>
      <trkpt lat="47.559958" lon="8.024826">
        <ele>335.182563</ele>
        <time>2021-11-20T09:03:43.495Z</time>
      </trkpt>
      <trkpt lat="47.560078" lon="8.025111">
        <ele>336.397051</ele>
        <time>2021-11-20T09:03:52.279Z</time>
      </trkpt>
      <trkpt lat="47.560303" lon="8.026133">
        <ele>340.283572</ele>
        <time>2021-11-20T09:04:16.846Z</time>
      </trkpt>
      <trkpt lat="47.560381" lon="8.026393">
        <ele>341.134341</ele>
        <time>2021-11-20T09:04:22.415Z</time>
      </trkpt>
      <trkpt lat="47.560481" lon="8.026632">
        <ele>341.639752</ele>
        <time>2021-11-20T09:04:26.731Z</time>
      </trkpt>
      <trkpt lat="47.560798" lon="8.027161">
        <ele>342.911250</ele>
        <time>2021-11-20T09:04:39.187Z</time>
      </trkpt>
      <trkpt lat="47.561018" lon="8.027383">
        <ele>343.620127</ele>
        <time>2021-11-20T09:04:45.903Z</time>
      </trkpt>
      <trkpt lat="47.561969" lon="8.028038">
        <ele>346.156298</ele>
        <time>2021-11-20T09:05:11.176Z</time>
      </trkpt>
      <trkpt lat="47.562307" lon="8.028432">
        <ele>346.858793</ele>
        <time>2021-11-20T09:05:20.313Z</time>
      </trkpt>
      <trkpt lat="47.562445" lon="8.028648">
        <ele>347.186684</ele>
        <time>2021-11-20T09:05:24.390Z</time>
      </trkpt>
      <trkpt lat="47.562490" lon="8.028724">
        <ele>347.298139</ele>
        <time>2021-11-20T09:05:25.797Z</time>
      </trkpt>
      <trkpt lat="47.562597" lon="8.028906">
        <ele>347.564225</ele>
        <time>2021-11-20T09:05:29.221Z</time>
      </trkpt>
      <trkpt lat="47.562762" lon="8.029240">
        <ele>348.020517</ele>
        <time>2021-11-20T09:05:34.947Z</time>
      </trkpt>
      <trkpt lat="47.562862" lon="8.029514">
        <ele>348.363897</ele>
        <time>2021-11-20T09:05:39.293Z</time>
      </trkpt>
      <trkpt lat="47.562908" lon="8.029661">
        <ele>348.542512</ele>
        <time>2021-11-20T09:05:41.670Z</time>
      </trkpt>
      <trkpt lat="47.562995" lon="8.029987">
        <ele>348.922343</ele>
        <time>2021-11-20T09:05:46.630Z</time>
      </trkpt>
      <trkpt lat="47.563183" lon="8.030459">
        <ele>349.510015</ele>
        <time>2021-11-20T09:05:53.847Z</time>
      </trkpt>
      <trkpt lat="47.563345" lon="8.030793">
        <ele>349.951048</ele>
        <time>2021-11-20T09:05:59.146Z</time>
      </trkpt>
      <trkpt lat="47.563394" lon="8.030849">
        <ele>350.049371</ele>
        <time>2021-11-20T09:06:00.303Z</time>
      </trkpt>
      <trkpt lat="47.563725" lon="8.031208">
        <ele>350.701129</ele>
        <time>2021-11-20T09:06:08.217Z</time>
      </trkpt>
      <trkpt lat="47.564393" lon="8.032053">
        <ele>352.804336</ele>
        <time>2021-11-20T09:06:29.401Z</time>
      </trkpt>
      <trkpt lat="47.564511" lon="8.032311">
        <ele>353.567274</ele>
        <time>2021-11-20T09:06:34.727Z</time>
      </trkpt>
      <trkpt lat="47.564569" lon="8.032525">
        <ele>354.131780</ele>
        <time>2021-11-20T09:06:39.064Z</time>
      </trkpt>
      <trkpt lat="47.564678" lon="8.032921">
        <ele>355.178656</ele>
        <time>2021-11-20T09:06:46.411Z</time>
      </trkpt>
      <trkpt lat="47.564702" lon="8.033000">
        <ele>355.390728</ele>
        <time>2021-11-20T09:06:49.213Z</time>
      </trkpt>
      <trkpt lat="47.564933" lon="8.033469">
        <ele>356.812052</ele>
        <time>2021-11-20T09:07:02.165Z</time>
      </trkpt>
      <trkpt lat="47.565189" lon="8.033686">
        <ele>357.881907</ele>
        <time>2021-11-20T09:07:11.581Z</time>
      </trkpt>
      <trkpt lat="47.565871" lon="8.033704">
        <ele>361.392683</ele>
        <time>2021-11-20T09:07:35.696Z</time>
      </trkpt>
      <trkpt lat="47.566001" lon="8.033711">
        <ele>362.078482</ele>
        <time>2021-11-20T09:07:41.925Z</time>
      </trkpt>
      <trkpt lat="47.566321" lon="8.033776">
        <ele>363.781262</ele>
        <time>2021-11-20T09:07:53.208Z</time>
      </trkpt>
      <trkpt lat="47.566670" lon="8.033967">
        <ele>365.742590</ele>
        <time>2021-11-20T09:08:06.591Z</time>
      </trkpt>
      <trkpt lat="47.566763" lon="8.034017">
        <ele>366.264140</ele>
        <time>2021-11-20T09:08:10.325Z</time>
      </trkpt>
      <trkpt lat="47.567079" lon="8.034308">
        <ele>368.098787</ele>
        <time>2021-11-20T09:08:23.369Z</time>
      </trkpt>
      <trkpt lat="47.567313" lon="8.034591">
        <ele>369.391435</ele>
        <time>2021-11-20T09:08:34.441Z</time>
      </trkpt>
      <trkpt lat="47.567673" lon="8.035162">
        <ele>371.648211</ele>
        <time>2021-11-20T09:08:51.523Z</time>
      </trkpt>
      <trkpt lat="47.568018" lon="8.035824">
        <ele>374.063781</ele>
        <time>2021-11-20T09:09:08.182Z</time>
      </trkpt>
      <trkpt lat="47.568240" lon="8.036333">
        <ele>375.722985</ele>
        <time>2021-11-20T09:09:20.431Z</time>
      </trkpt>
      <trkpt lat="47.568395" lon="8.036764">
        <ele>376.905572</ele>
        <time>2021-11-20T09:09:29.746Z</time>
      </trkpt>
      <trkpt lat="47.568512" lon="8.037290">
        <ele>378.246621</ele>
        <time>2021-11-20T09:09:39.913Z</time>
      </trkpt>
      <trkpt lat="47.568537" lon="8.037570">
        <ele>378.930505</ele>
        <time>2021-11-20T09:09:45.730Z</time>
      </trkpt>
      <trkpt lat="47.568540" lon="8.037665">
        <ele>379.160783</ele>
        <time>2021-11-20T09:09:47.591Z</time>
      </trkpt>
      <trkpt lat="47.568562" lon="8.038275">
        <ele>380.639904</ele>
        <time>2021-11-20T09:09:59.817Z</time>
      </trkpt>
      <trkpt lat="47.568633" lon="8.038920">
        <ele>382.268821</ele>
        <time>2021-11-20T09:10:12.865Z</time>
      </trkpt>
      <trkpt lat="47.568715" lon="8.039132">
        <ele>382.913730</ele>
        <time>2021-11-20T09:10:18.191Z</time>
      </trkpt>
      <trkpt lat="47.568916" lon="8.039421">
        <ele>384.009105</ele>
        <time>2021-11-20T09:10:26.144Z</time>
      </trkpt>
      <trkpt lat="47.568992" lon="8.039490">
        <ele>384.357719</ele>
        <time>2021-11-20T09:10:29.166Z</time>
      </trkpt>
      <trkpt lat="47.569043" lon="8.039527">
        <ele>384.579823</ele>
        <time>2021-11-20T09:10:30.715Z</time>
      </trkpt>
      <trkpt lat="47.569103" lon="8.039554">
        <ele>384.825092</ele>
        <time>2021-11-20T09:10:32.242Z</time>
      </trkpt>
      <trkpt lat="47.569159" lon="8.039571">
        <ele>385.048683</ele>
        <time>2021-11-20T09:10:33.935Z</time>
      </trkpt>
      <trkpt lat="47.569259" lon="8.039574">
        <ele>385.439914</ele>
        <time>2021-11-20T09:10:36.986Z</time>
      </trkpt>
      <trkpt lat="47.569469" lon="8.039531">
        <ele>386.269132</ele>
        <time>2021-11-20T09:10:42.844Z</time>
      </trkpt>
      <trkpt lat="47.569586" lon="8.039479">
        <ele>386.746911</ele>
        <time>2021-11-20T09:10:46.370Z</time>
      </trkpt>
      <trkpt lat="47.569647" lon="8.039770">
        <ele>387.551092</ele>
        <time>2021-11-20T09:10:53.005Z</time>
      </trkpt>
      <trkpt lat="47.569695" lon="8.040052">
        <ele>388.318627</ele>
        <time>2021-11-20T09:10:59.354Z</time>
      </trkpt>
      <trkpt lat="47.569707" lon="8.040137">
        <ele>388.547806</ele>
        <time>2021-11-20T09:11:01.582Z</time>
      </trkpt>
      <trkpt lat="47.569814" lon="8.040942">
        <ele>391.311909</ele>
        <time>2021-11-20T09:11:20.514Z</time>
      </trkpt>
      <trkpt lat="47.569913" lon="8.041464">
        <ele>393.177322</ele>
        <time>2021-11-20T09:11:32.779Z</time>
      </trkpt>
      <trkpt lat="47.569947" lon="8.041607">
        <ele>393.698931</ele>
        <time>2021-11-20T09:11:36.169Z</time>
      </trkpt>
      <trkpt lat="47.570037" lon="8.042001">
        <ele>395.129965</ele>
        <time>2021-11-20T09:11:47.674Z</time>
      </trkpt>
      <trkpt lat="47.570472" lon="8.043006">
        <ele>398.789680</ele>
        <time>2021-11-20T09:12:16.591Z</time>
      </trkpt>
      <trkpt lat="47.570550" lon="8.043505">
        <ele>399.956329</ele>
        <time>2021-11-20T09:12:27.842Z</time>
      </trkpt>
      <trkpt lat="47.570553" lon="8.043603">
        <ele>400.179767</ele>
        <time>2021-11-20T09:12:31.695Z</time>
      </trkpt>
      <trkpt lat="47.570556" lon="8.043717">
        <ele>400.439616</ele>
        <time>2021-11-20T09:12:33.960Z</time>
      </trkpt>
      <trkpt lat="47.570458" lon="8.044327">
        <ele>401.867825</ele>
        <time>2021-11-20T09:12:45.501Z</time>
      </trkpt>
      <trkpt lat="47.570449" lon="8.044391">
        <ele>402.016727</ele>
        <time>2021-11-20T09:12:46.557Z</time>
      </trkpt>
      <trkpt lat="47.570407" lon="8.044709">
        <ele>402.754766</ele>
        <time>2021-11-20T09:12:52.497Z</time>
      </trkpt>
      <trkpt lat="47.570401" lon="8.044853">
        <ele>403.083373</ele>
        <time>2021-11-20T09:12:54.112Z</time>
      </trkpt>
      <trkpt lat="47.570393" lon="8.045065">
        <ele>403.566989</ele>
        <time>2021-11-20T09:12:56.375Z</time>
      </trkpt>
      <trkpt lat="47.570405" lon="8.045482">
        <ele>403.799982</ele>
        <time>2021-11-20T09:13:02.607Z</time>
      </trkpt>
      <trkpt lat="47.570410" lon="8.045595">
        <ele>403.711102</ele>
        <time>2021-11-20T09:13:03.494Z</time>
      </trkpt>
      <trkpt lat="47.570454" lon="8.045878">
        <ele>403.483162</ele>
        <time>2021-11-20T09:13:07.784Z</time>
      </trkpt>
      <trkpt lat="47.570703" lon="8.046690">
        <ele>402.783111</ele>
        <time>2021-11-20T09:13:14.303Z</time>
      </trkpt>
      <trkpt lat="47.570990" lon="8.047289">
        <ele>402.206487</ele>
        <time>2021-11-20T09:13:19.684Z</time>
      </trkpt>
      <trkpt lat="47.571053" lon="8.047570">
        <ele>401.974083</ele>
        <time>2021-11-20T09:13:21.776Z</time>
      </trkpt>
      <trkpt lat="47.571035" lon="8.047613">
        <ele>401.934366</ele>
        <time>2021-11-20T09:13:22.128Z</time>
      </trkpt>
      <trkpt lat="47.571041" lon="8.047802">
        <ele>401.774379</ele>
        <time>2021-11-20T09:13:23.615Z</time>
      </trkpt>
      <trkpt lat="47.571051" lon="8.047825">
        <ele>401.750570</ele>
        <time>2021-11-20T09:13:23.799Z</time>
      </trkpt>
      <trkpt lat="47.571060" lon="8.047840">
        <ele>401.733102</ele>
        <time>2021-11-20T09:13:23.931Z</time>
      </trkpt>
      <trkpt lat="47.571146" lon="8.047904">
        <ele>401.608987</ele>
        <time>2021-11-20T09:13:24.988Z</time>
      </trkpt>
      <trkpt lat="47.571173" lon="8.047904">
        <ele>401.574164</ele>
        <time>2021-11-20T09:13:25.261Z</time>
      </trkpt>
      <trkpt lat="47.571192" lon="8.047900">
        <ele>401.549413</ele>
        <time>2021-11-20T09:13:25.475Z</time>
      </trkpt>
      <trkpt lat="47.571216" lon="8.047888">
        <ele>401.516745</ele>
        <time>2021-11-20T09:13:25.775Z</time>
      </trkpt>
      <trkpt lat="47.571230" lon="8.047878">
        <ele>401.496701</ele>
        <time>2021-11-20T09:13:25.938Z</time>
      </trkpt>
      <trkpt lat="47.571328" lon="8.047952">
        <ele>401.354848</ele>
        <time>2021-11-20T09:13:27.256Z</time>
      </trkpt>
      <trkpt lat="47.571393" lon="8.048046">
        <ele>401.237721</ele>
        <time>2021-11-20T09:13:28.231Z</time>
      </trkpt>
      <trkpt lat="47.571420" lon="8.048138">
        <ele>401.150420</ele>
        <time>2021-11-20T09:13:28.961Z</time>
      </trkpt>
      <trkpt lat="47.571850" lon="8.050064">
        <ele>399.671051</ele>
        <time>2021-11-20T09:13:45.470Z</time>
      </trkpt>
      <trkpt lat="47.572078" lon="8.050690">
        <ele>400.000649</ele>
        <time>2021-11-20T09:13:53.583Z</time>
      </trkpt>
      <trkpt lat="47.572428" lon="8.051523">
        <ele>400.455311</ele>
        <time>2021-11-20T09:14:07.386Z</time>
      </trkpt>
      <trkpt lat="47.572498" lon="8.051744">
        <ele>400.568425</ele>
        <time>2021-11-20T09:14:11.100Z</time>
      </trkpt>
      <trkpt lat="47.572645" lon="8.052612">
        <ele>400.522724</ele>
        <time>2021-11-20T09:14:21.762Z</time>
      </trkpt>
      <trkpt lat="47.572728" lon="8.053331">
        <ele>399.977587</ele>
        <time>2021-11-20T09:14:29.645Z</time>
      </trkpt>
      <trkpt lat="47.572769" lon="8.053639">
        <ele>399.742973</ele>
        <time>2021-11-20T09:14:32.219Z</time>
      </trkpt>
      <trkpt lat="47.572855" lon="8.053943">
        <ele>399.496622</ele>
        <time>2021-11-20T09:14:34.953Z</time>
      </trkpt>
      <trkpt lat="47.573098" lon="8.054422">
        <ele>399.048742</ele>
        <time>2021-11-20T09:14:39.267Z</time>
      </trkpt>
      <trkpt lat="47.573806" lon="8.055119">
        <ele>396.539899</ele>
        <time>2021-11-20T09:14:47.606Z</time>
      </trkpt>
      <trkpt lat="47.573993" lon="8.055472">
        <ele>395.461163</ele>
        <time>2021-11-20T09:14:50.425Z</time>
      </trkpt>
      <trkpt lat="47.574121" lon="8.056069">
        <ele>393.955567</ele>
        <time>2021-11-20T09:14:54.538Z</time>
      </trkpt>
      <trkpt lat="47.574181" lon="8.057386">
        <ele>392.367989</ele>
        <time>2021-11-20T09:15:04.104Z</time>
      </trkpt>
      <trkpt lat="47.574225" lon="8.057606">
        <ele>392.354871</ele>
        <time>2021-11-20T09:15:05.808Z</time>
      </trkpt>
      <trkpt lat="47.574360" lon="8.057968">
        <ele>392.331226</ele>
        <time>2021-11-20T09:15:10.028Z</time>
      </trkpt>
      <trkpt lat="47.574691" lon="8.058686">
        <ele>392.281513</ele>
        <time>2021-11-20T09:15:21.250Z</time>
      </trkpt>
      <trkpt lat="47.575062" lon="8.059032">
        <ele>392.374345</ele>
        <time>2021-11-20T09:15:31.716Z</time>
      </trkpt>
      <trkpt lat="47.575229" lon="8.059329">
        <ele>392.644638</ele>
        <time>2021-11-20T09:15:37.626Z</time>
      </trkpt>
      <trkpt lat="47.575626" lon="8.060407">
        <ele>393.503232</ele>
        <time>2021-11-20T09:15:54.588Z</time>
      </trkpt>
      <trkpt lat="47.575642" lon="8.060451">
        <ele>393.538176</ele>
        <time>2021-11-20T09:15:55.936Z</time>
      </trkpt>
      <trkpt lat="47.575791" lon="8.060748">
        <ele>393.796922</ele>
        <time>2021-11-20T09:15:59.430Z</time>
      </trkpt>
      <trkpt lat="47.576045" lon="8.061150">
        <ele>394.076405</ele>
        <time>2021-11-20T09:16:04.725Z</time>
      </trkpt>
      <trkpt lat="47.576551" lon="8.062025">
        <ele>393.551032</ele>
        <time>2021-11-20T09:16:14.476Z</time>
      </trkpt>
      <trkpt lat="47.576712" lon="8.062700">
        <ele>393.224661</ele>
        <time>2021-11-20T09:16:20.008Z</time>
      </trkpt>
      <trkpt lat="47.576741" lon="8.063055">
        <ele>393.061650</ele>
        <time>2021-11-20T09:16:23.083Z</time>
      </trkpt>
      <trkpt lat="47.576746" lon="8.063355">
        <ele>392.924851</ele>
        <time>2021-11-20T09:16:25.676Z</time>
      </trkpt>
      <trkpt lat="47.576746" lon="8.063401">
        <ele>392.903882</ele>
        <time>2021-11-20T09:16:26.340Z</time>
      </trkpt>
      <trkpt lat="47.576737" lon="8.063729">
        <ele>393.036232</ele>
        <time>2021-11-20T09:16:29.628Z</time>
      </trkpt>
      <trkpt lat="47.576750" lon="8.064033">
        <ele>393.161211</ele>
        <time>2021-11-20T09:16:33.152Z</time>
      </trkpt>
      <trkpt lat="47.576848" lon="8.064544">
        <ele>393.379177</ele>
        <time>2021-11-20T09:16:39.289Z</time>
      </trkpt>
      <trkpt lat="47.576978" lon="8.064848">
        <ele>393.526854</ele>
        <time>2021-11-20T09:16:43.545Z</time>
      </trkpt>
      <trkpt lat="47.577043" lon="8.064953">
        <ele>393.585324</ele>
        <time>2021-11-20T09:16:46.157Z</time>
      </trkpt>
      <trkpt lat="47.577380" lon="8.065302">
        <ele>393.835350</ele>
        <time>2021-11-20T09:16:54.118Z</time>
      </trkpt>
      <trkpt lat="47.577609" lon="8.065406">
        <ele>393.981017</ele>
        <time>2021-11-20T09:16:58.505Z</time>
      </trkpt>
      <trkpt lat="47.577839" lon="8.065448">
        <ele>394.179388</ele>
        <time>2021-11-20T09:17:02.108Z</time>
      </trkpt>
      <trkpt lat="47.578177" lon="8.065370">
        <ele>394.482727</ele>
        <time>2021-11-20T09:17:07.730Z</time>
      </trkpt>
      <trkpt lat="47.578363" lon="8.065294">
        <ele>394.653818</ele>
        <time>2021-11-20T09:17:12.137Z</time>
      </trkpt>
      <trkpt lat="47.578623" lon="8.065188">
        <ele>394.892940</ele>
        <time>2021-11-20T09:17:16.230Z</time>
      </trkpt>
      <trkpt lat="47.579003" lon="8.065169">
        <ele>395.230105</ele>
        <time>2021-11-20T09:17:22.964Z</time>
      </trkpt>
      <trkpt lat="47.579104" lon="8.065203">
        <ele>395.321950</ele>
        <time>2021-11-20T09:17:25.121Z</time>
      </trkpt>
      <trkpt lat="47.579181" lon="8.065229">
        <ele>395.391980</ele>
        <time>2021-11-20T09:17:26.171Z</time>
      </trkpt>
      <trkpt lat="47.579504" lon="8.065414">
        <ele>395.996941</ele>
        <time>2021-11-20T09:17:33.197Z</time>
      </trkpt>
      <trkpt lat="47.579627" lon="8.065529">
        <ele>396.483339</ele>
        <time>2021-11-20T09:17:36.025Z</time>
      </trkpt>
      <trkpt lat="47.579737" lon="8.065632">
        <ele>396.918515</ele>
        <time>2021-11-20T09:17:39.618Z</time>
      </trkpt>
      <trkpt lat="47.579947" lon="8.065949">
        <ele>397.920980</ele>
        <time>2021-11-20T09:17:45.945Z</time>
      </trkpt>
      <trkpt lat="47.580169" lon="8.066489">
        <ele>399.347801</ele>
        <time>2021-11-20T09:17:57.155Z</time>
      </trkpt>
      <trkpt lat="47.580436" lon="8.068266">
        <ele>405.022255</ele>
        <time>2021-11-20T09:18:42.041Z</time>
      </trkpt>
      <trkpt lat="47.580540" lon="8.068640">
        <ele>406.708936</ele>
        <time>2021-11-20T09:18:54.655Z</time>
      </trkpt>
      <trkpt lat="47.581072" lon="8.070001">
        <ele>413.024764</ele>
        <time>2021-11-20T09:19:38.372Z</time>
      </trkpt>
      <trkpt lat="47.581200" lon="8.070445">
        <ele>414.136951</ele>
        <time>2021-11-20T09:19:50.057Z</time>
      </trkpt>
      <trkpt lat="47.581302" lon="8.070775">
        <ele>414.973066</ele>
        <time>2021-11-20T09:19:57.594Z</time>
      </trkpt>
      <trkpt lat="47.581397" lon="8.071044">
        <ele>415.672457</ele>
        <time>2021-11-20T09:20:03.489Z</time>
      </trkpt>
      <trkpt lat="47.581509" lon="8.071314">
        <ele>416.402552</ele>
        <time>2021-11-20T09:20:09.487Z</time>
      </trkpt>
      <trkpt lat="47.581639" lon="8.071564">
        <ele>417.129636</ele>
        <time>2021-11-20T09:20:14.673Z</time>
      </trkpt>
      <trkpt lat="47.582001" lon="8.072163">
        <ele>418.903297</ele>
        <time>2021-11-20T09:20:27.230Z</time>
      </trkpt>
      <trkpt lat="47.582255" lon="8.072455">
        <ele>419.249129</ele>
        <time>2021-11-20T09:20:31.817Z</time>
      </trkpt>
      <trkpt lat="47.582481" lon="8.072674">
        <ele>419.539631</ele>
        <time>2021-11-20T09:20:35.608Z</time>
      </trkpt>
      <trkpt lat="47.583806" lon="8.073622">
        <ele>421.672680</ele>
        <time>2021-11-20T09:21:03.969Z</time>
      </trkpt>
      <trkpt lat="47.584025" lon="8.073868">
        <ele>422.476013</ele>
        <time>2021-11-20T09:21:11.592Z</time>
      </trkpt>
      <trkpt lat="47.584571" lon="8.074688">
        <ele>424.748330</ele>
        <time>2021-11-20T09:21:33.802Z</time>
      </trkpt>
      <trkpt lat="47.584889" lon="8.075206">
        <ele>426.123624</ele>
        <time>2021-11-20T09:21:47.677Z</time>
      </trkpt>
      <trkpt lat="47.585216" lon="8.075691">
        <ele>427.357657</ele>
        <time>2021-11-20T09:22:00.875Z</time>
      </trkpt>
      <trkpt lat="47.586044" lon="8.076710">
        <ele>430.228611</ele>
        <time>2021-11-20T09:22:29.100Z</time>
      </trkpt>
      <trkpt lat="47.586782" lon="8.077419">
        <ele>431.553492</ele>
        <time>2021-11-20T09:22:45.827Z</time>
      </trkpt>
      <trkpt lat="47.587261" lon="8.077843">
        <ele>432.155544</ele>
        <time>2021-11-20T09:22:55.797Z</time>
      </trkpt>
      <trkpt lat="47.588175" lon="8.078681">
        <ele>433.885224</ele>
        <time>2021-11-20T09:23:15.763Z</time>
      </trkpt>
      <trkpt lat="47.588322" lon="8.078847">
        <ele>434.305569</ele>
        <time>2021-11-20T09:23:19.539Z</time>
      </trkpt>
      <trkpt lat="47.588405" lon="8.078961">
        <ele>434.562944</ele>
        <time>2021-11-20T09:23:22.235Z</time>
      </trkpt>
      <trkpt lat="47.588607" lon="8.079377">
        <ele>435.349405</ele>
        <time>2021-11-20T09:23:30.336Z</time>
      </trkpt>
      <trkpt lat="47.588698" lon="8.079659">
        <ele>435.829038</ele>
        <time>2021-11-20T09:23:35.645Z</time>
      </trkpt>
      <trkpt lat="47.588723" lon="8.079889">
        <ele>436.186470</ele>
        <time>2021-11-20T09:23:39.944Z</time>
      </trkpt>
      <trkpt lat="47.588725" lon="8.080182">
        <ele>436.636029</ele>
        <time>2021-11-20T09:23:45.371Z</time>
      </trkpt>
      <trkpt lat="47.588682" lon="8.080451">
        <ele>437.250252</ele>
        <time>2021-11-20T09:23:51.075Z</time>
      </trkpt>
      <trkpt lat="47.588590" lon="8.080813">
        <ele>438.516404</ele>
        <time>2021-11-20T09:23:59.235Z</time>
      </trkpt>
      <trkpt lat="47.588550" lon="8.080930">
        <ele>438.945735</ele>
        <time>2021-11-20T09:24:02.757Z</time>
      </trkpt>
      <trkpt lat="47.588407" lon="8.081450">
        <ele>440.783740</ele>
        <time>2021-11-20T09:24:16.210Z</time>
      </trkpt>
      <trkpt lat="47.588361" lon="8.081689">
        <ele>441.597219</ele>
        <time>2021-11-20T09:24:22.241Z</time>
      </trkpt>
      <trkpt lat="47.588313" lon="8.082124">
        <ele>443.039912</ele>
        <time>2021-11-20T09:24:33.446Z</time>
      </trkpt>
      <trkpt lat="47.588296" lon="8.082646">
        <ele>444.750420</ele>
        <time>2021-11-20T09:24:46.478Z</time>
      </trkpt>
      <trkpt lat="47.588280" lon="8.082843">
        <ele>445.399863</ele>
        <time>2021-11-20T09:24:51.254Z</time>
      </trkpt>
      <trkpt lat="47.588252" lon="8.083013">
        <ele>445.797900</ele>
        <time>2021-11-20T09:24:55.587Z</time>
      </trkpt>
      <trkpt lat="47.588165" lon="8.083275">
        <ele>446.278758</ele>
        <time>2021-11-20T09:25:01.835Z</time>
      </trkpt>
      <trkpt lat="47.588010" lon="8.083700">
        <ele>447.074320</ele>
        <time>2021-11-20T09:25:11.582Z</time>
      </trkpt>
      <trkpt lat="47.587959" lon="8.083838">
        <ele>447.333426</ele>
        <time>2021-11-20T09:25:14.943Z</time>
      </trkpt>
      <trkpt lat="47.587882" lon="8.084051">
        <ele>447.731354</ele>
        <time>2021-11-20T09:25:19.156Z</time>
      </trkpt>
      <trkpt lat="47.588020" lon="8.084597">
        <ele>448.691450</ele>
        <time>2021-11-20T09:25:30.897Z</time>
      </trkpt>
      <trkpt lat="47.588158" lon="8.084984">
        <ele>449.412263</ele>
        <time>2021-11-20T09:25:38.700Z</time>
      </trkpt>
      <trkpt lat="47.589034" lon="8.086621">
        <ele>448.708956</ele>
        <time>2021-11-20T09:26:02.523Z</time>
      </trkpt>
      <trkpt lat="47.589219" lon="8.087142">
        <ele>448.264230</ele>
        <time>2021-11-20T09:26:08.954Z</time>
      </trkpt>
      <trkpt lat="47.589430" lon="8.087648">
        <ele>447.917098</ele>
        <time>2021-11-20T09:26:15.579Z</time>
      </trkpt>
      <trkpt lat="47.589617" lon="8.088001">
        <ele>447.767472</ele>
        <time>2021-11-20T09:26:20.771Z</time>
      </trkpt>
      <trkpt lat="47.589783" lon="8.088286">
        <ele>447.641947</ele>
        <time>2021-11-20T09:26:25.160Z</time>
      </trkpt>
      <trkpt lat="47.589945" lon="8.088411">
        <ele>447.551686</ele>
        <time>2021-11-20T09:26:28.575Z</time>
      </trkpt>
      <trkpt lat="47.590377" lon="8.088555">
        <ele>447.332843</ele>
        <time>2021-11-20T09:26:36.885Z</time>
      </trkpt>
      <trkpt lat="47.590905" lon="8.088833">
        <ele>447.102034</ele>
        <time>2021-11-20T09:26:49.077Z</time>
      </trkpt>
      <trkpt lat="47.591177" lon="8.088996">
        <ele>447.083327</ele>
        <time>2021-11-20T09:26:56.099Z</time>
      </trkpt>
      <trkpt lat="47.591424" lon="8.089141">
        <ele>447.066388</ele>
        <time>2021-11-20T09:27:02.515Z</time>
      </trkpt>
      <trkpt lat="47.592461" lon="8.089742">
        <ele>446.995394</ele>
        <time>2021-11-20T09:27:24.105Z</time>
      </trkpt>
      <trkpt lat="47.592605" lon="8.089818">
        <ele>446.715424</ele>
        <time>2021-11-20T09:27:26.816Z</time>
      </trkpt>
      <trkpt lat="47.592791" lon="8.089929">
        <ele>446.297588</ele>
        <time>2021-11-20T09:27:30.059Z</time>
      </trkpt>
      <trkpt lat="47.593024" lon="8.090029">
        <ele>445.792090</ele>
        <time>2021-11-20T09:27:33.977Z</time>
      </trkpt>
      <trkpt lat="47.593640" lon="8.090048">
        <ele>444.508080</ele>
        <time>2021-11-20T09:27:43.325Z</time>
      </trkpt>
      <trkpt lat="47.593855" lon="8.090121">
        <ele>444.048428</ele>
        <time>2021-11-20T09:27:46.500Z</time>
      </trkpt>
      <trkpt lat="47.594384" lon="8.090672">
        <ele>443.064550</ele>
        <time>2021-11-20T09:27:56.162Z</time>
      </trkpt>
      <trkpt lat="47.594891" lon="8.090865">
        <ele>442.701449</ele>
        <time>2021-11-20T09:28:04.999Z</time>
      </trkpt>
      <trkpt lat="47.595114" lon="8.090962">
        <ele>442.540240</ele>
        <time>2021-11-20T09:28:08.857Z</time>
      </trkpt>
      <trkpt lat="47.595175" lon="8.090989">
        <ele>442.496081</ele>
        <time>2021-11-20T09:28:11.018Z</time>
      </trkpt>
      <trkpt lat="47.595423" lon="8.091040">
        <ele>442.322401</ele>
        <time>2021-11-20T09:28:16.236Z</time>
      </trkpt>
      <trkpt lat="47.595794" lon="8.090946">
        <ele>442.061316</ele>
        <time>2021-11-20T09:28:24.496Z</time>
      </trkpt>
      <trkpt lat="47.596308" lon="8.090667">
        <ele>441.613351</ele>
        <time>2021-11-20T09:28:37.714Z</time>
      </trkpt>
      <trkpt lat="47.596452" lon="8.090663">
        <ele>441.491893</ele>
        <time>2021-11-20T09:28:41.274Z</time>
      </trkpt>
      <trkpt lat="47.596598" lon="8.090642">
        <ele>441.368191</ele>
        <time>2021-11-20T09:28:45.034Z</time>
      </trkpt>
      <trkpt lat="47.596791" lon="8.090594">
        <ele>441.203159</ele>
        <time>2021-11-20T09:28:50.645Z</time>
      </trkpt>
      <trkpt lat="47.596934" lon="8.090414">
        <ele>441.044978</ele>
        <time>2021-11-20T09:28:54.448Z</time>
      </trkpt>
      <trkpt lat="47.597023" lon="8.090189">
        <ele>440.896636</ele>
        <time>2021-11-20T09:28:57.348Z</time>
      </trkpt>
      <trkpt lat="47.597227" lon="8.089382">
        <ele>439.859201</ele>
        <time>2021-11-20T09:29:05.605Z</time>
      </trkpt>
      <trkpt lat="47.597355" lon="8.089249">
        <ele>438.763000</ele>
        <time>2021-11-20T09:29:07.730Z</time>
      </trkpt>
      <trkpt lat="47.597461" lon="8.089252">
        <ele>438.019410</ele>
        <time>2021-11-20T09:29:09.083Z</time>
      </trkpt>
      <trkpt lat="47.597850" lon="8.089671">
        <ele>434.647325</ele>
        <time>2021-11-20T09:29:15.397Z</time>
      </trkpt>
      <trkpt lat="47.597971" lon="8.089691">
        <ele>433.793409</ele>
        <time>2021-11-20T09:29:16.892Z</time>
      </trkpt>
      <trkpt lat="47.598033" lon="8.089701">
        <ele>433.355994</ele>
        <time>2021-11-20T09:29:17.634Z</time>
      </trkpt>
      <trkpt lat="47.598442" lon="8.088951">
        <ele>428.794063</ele>
        <time>2021-11-20T09:29:25.735Z</time>
      </trkpt>
      <trkpt lat="47.599017" lon="8.088656">
        <ele>427.058305</ele>
        <time>2021-11-20T09:29:33.422Z</time>
      </trkpt>
      <trkpt lat="47.599041" lon="8.088657">
        <ele>427.017569</ele>
        <time>2021-11-20T09:29:33.707Z</time>
      </trkpt>
      <trkpt lat="47.599234" lon="8.088661">
        <ele>426.690084</ele>
        <time>2021-11-20T09:29:36.127Z</time>
      </trkpt>
      <trkpt lat="47.599376" lon="8.088891">
        <ele>426.333315</ele>
        <time>2021-11-20T09:29:39.535Z</time>
      </trkpt>
      <trkpt lat="47.599539" lon="8.089034">
        <ele>426.011994</ele>
        <time>2021-11-20T09:29:43.799Z</time>
      </trkpt>
      <trkpt lat="47.599680" lon="8.089035">
        <ele>425.772764</ele>
        <time>2021-11-20T09:29:47.163Z</time>
      </trkpt>
      <trkpt lat="47.599745" lon="8.088979">
        <ele>425.645223</ele>
        <time>2021-11-20T09:29:48.164Z</time>
      </trkpt>
      <trkpt lat="47.599922" lon="8.088733">
        <ele>425.233651</ele>
        <time>2021-11-20T09:29:57.697Z</time>
      </trkpt>
      <trkpt lat="47.600067" lon="8.088552">
        <ele>424.912089</ele>
        <time>2021-11-20T09:30:02.430Z</time>
      </trkpt>
      <trkpt lat="47.600299" lon="8.088347">
        <ele>426.968222</ele>
        <time>2021-11-20T09:30:13.189Z</time>
      </trkpt>
      <trkpt lat="47.600519" lon="8.088235">
        <ele>429.325400</ele>
        <time>2021-11-20T09:30:31.014Z</time>
      </trkpt>
      <trkpt lat="47.600735" lon="8.088155">
        <ele>431.581568</ele>
        <time>2021-11-20T09:30:43.504Z</time>
      </trkpt>
      <trkpt lat="47.600936" lon="8.088218">
        <ele>433.663492</ele>
        <time>2021-11-20T09:30:57.019Z</time>
      </trkpt>
      <trkpt lat="47.601095" lon="8.088440">
        <ele>435.876525</ele>
        <time>2021-11-20T09:31:13.062Z</time>
      </trkpt>
      <trkpt lat="47.601306" lon="8.088733">
        <ele>438.805811</ele>
        <time>2021-11-20T09:31:33.703Z</time>
      </trkpt>
      <trkpt lat="47.601379" lon="8.089061">
        <ele>441.166031</ele>
        <time>2021-11-20T09:31:49.299Z</time>
      </trkpt>
      <trkpt lat="47.601417" lon="8.089289">
        <ele>442.770883</ele>
        <time>2021-11-20T09:32:03.133Z</time>
      </trkpt>
      <trkpt lat="47.601426" lon="8.089456">
        <ele>443.680874</ele>
        <time>2021-11-20T09:32:11.725Z</time>
      </trkpt>
      <trkpt lat="47.601467" lon="8.092126">
        <ele>456.565058</ele>
        <time>2021-11-20T09:33:38.664Z</time>
      </trkpt>
      <trkpt lat="47.601529" lon="8.092658">
        <ele>457.362306</ele>
        <time>2021-11-20T09:33:47.498Z</time>
      </trkpt>
      <trkpt lat="47.601536" lon="8.093056">
        <ele>457.950228</ele>
        <time>2021-11-20T09:33:53.748Z</time>
      </trkpt>
      <trkpt lat="47.601498" lon="8.093268">
        <ele>458.274159</ele>
        <time>2021-11-20T09:33:57.565Z</time>
      </trkpt>
      <trkpt lat="47.601242" lon="8.093957">
        <ele>459.435845</ele>
        <time>2021-11-20T09:34:11.096Z</time>
      </trkpt>
      <trkpt lat="47.601275" lon="8.094387">
        <ele>460.074925</ele>
        <time>2021-11-20T09:34:18.675Z</time>
      </trkpt>
      <trkpt lat="47.601436" lon="8.095066">
        <ele>461.520957</ele>
        <time>2021-11-20T09:34:31.838Z</time>
      </trkpt>
      <trkpt lat="47.601619" lon="8.095393">
        <ele>462.439149</ele>
        <time>2021-11-20T09:34:40.544Z</time>
      </trkpt>
      <trkpt lat="47.602257" lon="8.096071">
        <ele>464.954235</ele>
        <time>2021-11-20T09:35:08.098Z</time>
      </trkpt>
      <trkpt lat="47.602668" lon="8.096756">
        <ele>467.245027</ele>
        <time>2021-11-20T09:35:31.224Z</time>
      </trkpt>
      <trkpt lat="47.602761" lon="8.096881">
        <ele>467.791797</ele>
        <time>2021-11-20T09:35:36.679Z</time>
      </trkpt>
      <trkpt lat="47.602863" lon="8.096910">
        <ele>468.244240</ele>
        <time>2021-11-20T09:35:40.342Z</time>
      </trkpt>
      <trkpt lat="47.602939" lon="8.096978">
        <ele>468.630911</ele>
        <time>2021-11-20T09:35:43.709Z</time>
      </trkpt>
      <trkpt lat="47.603033" lon="8.097110">
        <ele>469.194849</ele>
        <time>2021-11-20T09:35:49.119Z</time>
      </trkpt>
      <trkpt lat="47.603142" lon="8.097294">
        <ele>469.914287</ele>
        <time>2021-11-20T09:35:55.320Z</time>
      </trkpt>
      <trkpt lat="47.603261" lon="8.097475">
        <ele>470.656858</ele>
        <time>2021-11-20T09:36:02.282Z</time>
      </trkpt>
      <trkpt lat="47.603416" lon="8.097671">
        <ele>471.544215</ele>
        <time>2021-11-20T09:36:09.931Z</time>
      </trkpt>
      <trkpt lat="47.603501" lon="8.097769">
        <ele>472.013235</ele>
        <time>2021-11-20T09:36:14.154Z</time>
      </trkpt>
      <trkpt lat="47.603517" lon="8.097603">
        <ele>472.505789</ele>
        <time>2021-11-20T09:36:18.402Z</time>
      </trkpt>
      <trkpt lat="47.603539" lon="8.097366">
        <ele>473.208502</ele>
        <time>2021-11-20T09:36:22.897Z</time>
      </trkpt>
      <trkpt lat="47.603546" lon="8.097298">
        <ele>473.410555</ele>
        <time>2021-11-20T09:36:24.443Z</time>
      </trkpt>
      <trkpt lat="47.603567" lon="8.097110">
        <ele>473.962334</ele>
        <time>2021-11-20T09:36:28.824Z</time>
      </trkpt>
      <trkpt lat="47.603599" lon="8.096812">
        <ele>474.732084</ele>
        <time>2021-11-20T09:36:34.363Z</time>
      </trkpt>
      <trkpt lat="47.603623" lon="8.096582">
        <ele>475.325777</ele>
        <time>2021-11-20T09:36:38.394Z</time>
      </trkpt>
      <trkpt lat="47.603656" lon="8.096273">
        <ele>476.123833</ele>
        <time>2021-11-20T09:36:43.744Z</time>
      </trkpt>
      <trkpt lat="47.603675" lon="8.095972">
        <ele>476.895013</ele>
        <time>2021-11-20T09:36:49.443Z</time>
      </trkpt>
      <trkpt lat="47.603693" lon="8.095678">
        <ele>477.648064</ele>
        <time>2021-11-20T09:36:54.679Z</time>
      </trkpt>
      <trkpt lat="47.603700" lon="8.095486">
        <ele>478.138553</ele>
        <time>2021-11-20T09:36:58.249Z</time>
      </trkpt>
      <trkpt lat="47.603709" lon="8.095276">
        <ele>478.675323</ele>
        <time>2021-11-20T09:37:02.452Z</time>
      </trkpt>
      <trkpt lat="47.603698" lon="8.094864">
        <ele>479.727119</ele>
        <time>2021-11-20T09:37:12.261Z</time>
      </trkpt>
      <trkpt lat="47.603697" lon="8.094807">
        <ele>479.872569</ele>
        <time>2021-11-20T09:37:13.446Z</time>
      </trkpt>
      <trkpt lat="47.603689" lon="8.094526">
        <ele>480.590012</ele>
        <time>2021-11-20T09:37:20.025Z</time>
      </trkpt>
      <trkpt lat="47.603682" lon="8.094251">
        <ele>481.433366</ele>
        <time>2021-11-20T09:37:26.032Z</time>
      </trkpt>
      <trkpt lat="47.603673" lon="8.093932">
        <ele>482.447183</ele>
        <time>2021-11-20T09:37:33.307Z</time>
      </trkpt>
      <trkpt lat="47.603680" lon="8.093654">
        <ele>483.330541</ele>
        <time>2021-11-20T09:37:39.244Z</time>
      </trkpt>
      <trkpt lat="47.603811" lon="8.093348">
        <ele>484.481500</ele>
        <time>2021-11-20T09:37:47.258Z</time>
      </trkpt>
      <trkpt lat="47.603918" lon="8.093262">
        <ele>485.054642</ele>
        <time>2021-11-20T09:37:51.369Z</time>
      </trkpt>
      <trkpt lat="47.604164" lon="8.093177">
        <ele>486.244178</ele>
        <time>2021-11-20T09:38:00.014Z</time>
      </trkpt>
      <trkpt lat="47.604445" lon="8.093096">
        <ele>487.592279</ele>
        <time>2021-11-20T09:38:10.225Z</time>
      </trkpt>
      <trkpt lat="47.604920" lon="8.092792">
        <ele>489.652715</ele>
        <time>2021-11-20T09:38:28.646Z</time>
      </trkpt>
      <trkpt lat="47.605021" lon="8.092797">
        <ele>489.916551</ele>
        <time>2021-11-20T09:38:31.936Z</time>
      </trkpt>
      <trkpt lat="47.605134" lon="8.092897">
        <ele>490.260095</ele>
        <time>2021-11-20T09:38:36.018Z</time>
      </trkpt>
      <trkpt lat="47.605136" lon="8.092899">
        <ele>490.266393</ele>
        <time>2021-11-20T09:38:36.216Z</time>
      </trkpt>
      <trkpt lat="47.605336" lon="8.093620">
        <ele>491.638774</ele>
        <time>2021-11-20T09:38:51.211Z</time>
      </trkpt>
      <trkpt lat="47.605490" lon="8.093893">
        <ele>492.265342</ele>
        <time>2021-11-20T09:38:56.197Z</time>
      </trkpt>
      <trkpt lat="47.605804" lon="8.094194">
        <ele>493.241449</ele>
        <time>2021-11-20T09:39:03.133Z</time>
      </trkpt>
      <trkpt lat="47.606060" lon="8.094282">
        <ele>493.893115</ele>
        <time>2021-11-20T09:39:07.630Z</time>
      </trkpt>
      <trkpt lat="47.606168" lon="8.094297">
        <ele>493.967126</ele>
        <time>2021-11-20T09:39:09.630Z</time>
      </trkpt>
      <trkpt lat="47.606249" lon="8.094274">
        <ele>494.023396</ele>
        <time>2021-11-20T09:39:10.830Z</time>
      </trkpt>
      <trkpt lat="47.606421" lon="8.094112">
        <ele>494.162415</ele>
        <time>2021-11-20T09:39:14.263Z</time>
      </trkpt>
      <trkpt lat="47.606466" lon="8.094017">
        <ele>494.215825</ele>
        <time>2021-11-20T09:39:15.559Z</time>
      </trkpt>
      <trkpt lat="47.606562" lon="8.093812">
        <ele>494.330645</ele>
        <time>2021-11-20T09:39:17.964Z</time>
      </trkpt>
      <trkpt lat="47.606889" lon="8.092953">
        <ele>494.784437</ele>
        <time>2021-11-20T09:39:28.506Z</time>
      </trkpt>
      <trkpt lat="47.607198" lon="8.092415">
        <ele>495.113507</ele>
        <time>2021-11-20T09:39:36.480Z</time>
      </trkpt>
      <trkpt lat="47.608481" lon="8.091375">
        <ele>498.938797</ele>
        <time>2021-11-20T09:40:13.965Z</time>
      </trkpt>
      <trkpt lat="47.608575" lon="8.091247">
        <ele>499.272651</ele>
        <time>2021-11-20T09:40:17.248Z</time>
      </trkpt>
      <trkpt lat="47.608649" lon="8.091080">
        <ele>499.625149</ele>
        <time>2021-11-20T09:40:21.809Z</time>
      </trkpt>
      <trkpt lat="47.608681" lon="8.090901">
        <ele>500.078630</ele>
        <time>2021-11-20T09:40:25.098Z</time>
      </trkpt>
      <trkpt lat="47.608680" lon="8.090672">
        <ele>500.854253</ele>
        <time>2021-11-20T09:40:29.703Z</time>
      </trkpt>
      <trkpt lat="47.608634" lon="8.090469">
        <ele>501.579596</ele>
        <time>2021-11-20T09:40:34.164Z</time>
      </trkpt>
      <trkpt lat="47.608560" lon="8.090342">
        <ele>502.148122</ele>
        <time>2021-11-20T09:40:36.897Z</time>
      </trkpt>
      <trkpt lat="47.608478" lon="8.090224">
        <ele>502.722076</ele>
        <time>2021-11-20T09:40:40.749Z</time>
      </trkpt>
      <trkpt lat="47.608147" lon="8.089868">
        <ele>504.776070</ele>
        <time>2021-11-20T09:40:53.675Z</time>
      </trkpt>
      <trkpt lat="47.607558" lon="8.089317">
        <ele>508.274388</ele>
        <time>2021-11-20T09:41:21.707Z</time>
      </trkpt>
      <trkpt lat="47.607358" lon="8.088934">
        <ele>510.437476</ele>
        <time>2021-11-20T09:41:35.836Z</time>
      </trkpt>
      <trkpt lat="47.607272" lon="8.088660">
        <ele>511.962965</ele>
        <time>2021-11-20T09:41:43.754Z</time>
      </trkpt>
      <trkpt lat="47.607067" lon="8.087997">
        <ele>515.644491</ele>
        <time>2021-11-20T09:42:04.566Z</time>
      </trkpt>
      <trkpt lat="47.607036" lon="8.087664">
        <ele>517.341209</ele>
        <time>2021-11-20T09:42:14.391Z</time>
      </trkpt>
      <trkpt lat="47.607049" lon="8.087462">
        <ele>518.365410</ele>
        <time>2021-11-20T09:42:21.023Z</time>
      </trkpt>
      <trkpt lat="47.607145" lon="8.085884">
        <ele>526.791920</ele>
        <time>2021-11-20T09:43:14.107Z</time>
      </trkpt>
      <trkpt lat="47.607202" lon="8.085535">
        <ele>528.796689</ele>
        <time>2021-11-20T09:43:26.345Z</time>
      </trkpt>
      <trkpt lat="47.607331" lon="8.085264">
        <ele>530.648730</ele>
        <time>2021-11-20T09:43:37.154Z</time>
      </trkpt>
      <trkpt lat="47.608141" lon="8.084076">
        <ele>540.175025</ele>
        <time>2021-11-20T09:44:29.384Z</time>
      </trkpt>
      <trkpt lat="47.609238" lon="8.082141">
        <ele>554.869877</ele>
        <time>2021-11-20T09:45:54.566Z</time>
      </trkpt>
      <trkpt lat="47.609640" lon="8.081583">
        <ele>559.840546</ele>
        <time>2021-11-20T09:46:22.318Z</time>
      </trkpt>
      <trkpt lat="47.611085" lon="8.080103">
        <ele>575.820646</ele>
        <time>2021-11-20T09:47:52.756Z</time>
      </trkpt>
      <trkpt lat="47.611512" lon="8.079849">
        <ele>580.050582</ele>
        <time>2021-11-20T09:48:16.986Z</time>
      </trkpt>
      <trkpt lat="47.611669" lon="8.079830">
        <ele>581.498901</ele>
        <time>2021-11-20T09:48:25.562Z</time>
      </trkpt>
      <trkpt lat="47.611897" lon="8.079884">
        <ele>583.621780</ele>
        <time>2021-11-20T09:48:37.496Z</time>
      </trkpt>
      <trkpt lat="47.612325" lon="8.079848">
        <ele>587.038432</ele>
        <time>2021-11-20T09:48:59.447Z</time>
      </trkpt>
      <trkpt lat="47.612429" lon="8.079778">
        <ele>587.837880</ele>
        <time>2021-11-20T09:49:04.725Z</time>
      </trkpt>
      <trkpt lat="47.612611" lon="8.079668">
        <ele>589.213588</ele>
        <time>2021-11-20T09:49:14.657Z</time>
      </trkpt>
      <trkpt lat="47.612741" lon="8.079511">
        <ele>590.387059</ele>
        <time>2021-11-20T09:49:22.198Z</time>
      </trkpt>
      <trkpt lat="47.612813" lon="8.079439">
        <ele>590.994895</ele>
        <time>2021-11-20T09:49:26.350Z</time>
      </trkpt>
      <trkpt lat="47.613592" lon="8.078654">
        <ele>597.587199</ele>
        <time>2021-11-20T09:50:03.757Z</time>
      </trkpt>
      <trkpt lat="47.614143" lon="8.078067">
        <ele>599.703933</ele>
        <time>2021-11-20T09:50:25.053Z</time>
      </trkpt>
      <trkpt lat="47.614340" lon="8.077748">
        <ele>600.519030</ele>
        <time>2021-11-20T09:50:32.488Z</time>
      </trkpt>
      <trkpt lat="47.614412" lon="8.077490">
        <ele>601.045130</ele>
        <time>2021-11-20T09:50:36.902Z</time>
      </trkpt>
      <trkpt lat="47.614400" lon="8.076777">
        <ele>602.388899</ele>
        <time>2021-11-20T09:50:46.492Z</time>
      </trkpt>
      <trkpt lat="47.614434" lon="8.076512">
        <ele>602.897143</ele>
        <time>2021-11-20T09:50:49.652Z</time>
      </trkpt>
      <trkpt lat="47.614606" lon="8.076168">
        <ele>603.679051</ele>
        <time>2021-11-20T09:50:54.403Z</time>
      </trkpt>
      <trkpt lat="47.615026" lon="8.076094">
        <ele>604.820190</ele>
        <time>2021-11-20T09:51:04.765Z</time>
      </trkpt>
      <trkpt lat="47.615753" lon="8.076423">
        <ele>606.870901</ele>
        <time>2021-11-20T09:51:25.511Z</time>
      </trkpt>
      <trkpt lat="47.615893" lon="8.076423">
        <ele>607.248626</ele>
        <time>2021-11-20T09:51:28.875Z</time>
      </trkpt>
      <trkpt lat="47.616037" lon="8.076370">
        <ele>607.648922</ele>
        <time>2021-11-20T09:51:32.361Z</time>
      </trkpt>
      <trkpt lat="47.616109" lon="8.076335">
        <ele>607.866396</ele>
        <time>2021-11-20T09:51:36.332Z</time>
      </trkpt>
      <trkpt lat="47.616374" lon="8.076037">
        <ele>609.384777</ele>
        <time>2021-11-20T09:51:46.353Z</time>
      </trkpt>
      <trkpt lat="47.617114" lon="8.074092">
        <ele>616.220608</ele>
        <time>2021-11-20T09:52:38.720Z</time>
      </trkpt>
      <trkpt lat="47.617348" lon="8.073732">
        <ele>617.479904</ele>
        <time>2021-11-20T09:52:49.096Z</time>
      </trkpt>
      <trkpt lat="47.617603" lon="8.073644">
        <ele>618.457901</ele>
        <time>2021-11-20T09:52:56.803Z</time>
      </trkpt>
      <trkpt lat="47.617828" lon="8.073754">
        <ele>619.342862</ele>
        <time>2021-11-20T09:53:03.629Z</time>
      </trkpt>
      <trkpt lat="47.618011" lon="8.074001">
        <ele>620.267059</ele>
        <time>2021-11-20T09:53:10.645Z</time>
      </trkpt>
      <trkpt lat="47.618172" lon="8.074347">
        <ele>621.325717</ele>
        <time>2021-11-20T09:53:18.122Z</time>
      </trkpt>
      <trkpt lat="47.618271" lon="8.074627">
        <ele>622.121865</ele>
        <time>2021-11-20T09:53:23.952Z</time>
      </trkpt>
      <trkpt lat="47.618361" lon="8.074994">
        <ele>623.123186</ele>
        <time>2021-11-20T09:53:31.826Z</time>
      </trkpt>
      <trkpt lat="47.618539" lon="8.076074">
        <ele>626.071024</ele>
        <time>2021-11-20T09:53:54.725Z</time>
      </trkpt>
      <trkpt lat="47.618566" lon="8.076125">
        <ele>626.242964</ele>
        <time>2021-11-20T09:53:55.950Z</time>
      </trkpt>
      <trkpt lat="47.618650" lon="8.076287">
        <ele>626.784866</ele>
        <time>2021-11-20T09:54:00.833Z</time>
      </trkpt>
      <trkpt lat="47.618861" lon="8.076379">
        <ele>627.649919</ele>
        <time>2021-11-20T09:54:07.309Z</time>
      </trkpt>
      <trkpt lat="47.618921" lon="8.076380">
        <ele>627.885939</ele>
        <time>2021-11-20T09:54:09.897Z</time>
      </trkpt>
      <trkpt lat="47.619020" lon="8.076353">
        <ele>628.281872</ele>
        <time>2021-11-20T09:54:13.054Z</time>
      </trkpt>
      <trkpt lat="47.619067" lon="8.076308">
        <ele>628.501900</ele>
        <time>2021-11-20T09:54:14.969Z</time>
      </trkpt>
      <trkpt lat="47.619067" lon="8.076161">
        <ele>628.891647</ele>
        <time>2021-11-20T09:54:17.759Z</time>
      </trkpt>
      <trkpt lat="47.619092" lon="8.075973">
        <ele>629.399707</ele>
        <time>2021-11-20T09:54:22.027Z</time>
      </trkpt>
      <trkpt lat="47.619141" lon="8.075753">
        <ele>629.965920</ele>
        <time>2021-11-20T09:54:26.512Z</time>
      </trkpt>
      <trkpt lat="47.619187" lon="8.075531">
        <ele>630.410480</ele>
        <time>2021-11-20T09:54:31.011Z</time>
      </trkpt>
      <trkpt lat="47.619231" lon="8.075298">
        <ele>630.873643</ele>
        <time>2021-11-20T09:54:35.770Z</time>
      </trkpt>
      <trkpt lat="47.619279" lon="8.075018">
        <ele>631.426659</ele>
        <time>2021-11-20T09:54:41.155Z</time>
      </trkpt>
      <trkpt lat="47.619299" lon="8.074448">
        <ele>632.519185</ele>
        <time>2021-11-20T09:54:51.962Z</time>
      </trkpt>
      <trkpt lat="47.619310" lon="8.074140">
        <ele>633.109562</ele>
        <time>2021-11-20T09:54:57.826Z</time>
      </trkpt>
      <trkpt lat="47.619212" lon="8.073576">
        <ele>634.224419</ele>
        <time>2021-11-20T09:55:06.937Z</time>
      </trkpt>
      <trkpt lat="47.619203" lon="8.072857">
        <ele>635.192812</ele>
        <time>2021-11-20T09:55:16.968Z</time>
      </trkpt>
      <trkpt lat="47.619210" lon="8.072542">
        <ele>635.418628</ele>
        <time>2021-11-20T09:55:21.369Z</time>
      </trkpt>
      <trkpt lat="47.619154" lon="8.072283">
        <ele>635.613511</ele>
        <time>2021-11-20T09:55:24.447Z</time>
      </trkpt>
      <trkpt lat="47.619109" lon="8.072083">
        <ele>635.764581</ele>
        <time>2021-11-20T09:55:27.573Z</time>
      </trkpt>
      <trkpt lat="47.618909" lon="8.071464">
        <ele>636.256407</ele>
        <time>2021-11-20T09:55:36.048Z</time>
      </trkpt>
      <trkpt lat="47.618628" lon="8.070987">
        <ele>636.710301</ele>
        <time>2021-11-20T09:55:43.853Z</time>
      </trkpt>
      <trkpt lat="47.618447" lon="8.070893">
        <ele>636.869245</ele>
        <time>2021-11-20T09:55:47.382Z</time>
      </trkpt>
      <trkpt lat="47.618063" lon="8.071006">
        <ele>636.936861</ele>
        <time>2021-11-20T09:55:53.857Z</time>
      </trkpt>
      <trkpt lat="47.617806" lon="8.070985">
        <ele>636.981316</ele>
        <time>2021-11-20T09:55:57.936Z</time>
      </trkpt>
      <trkpt lat="47.617681" lon="8.070905">
        <ele>637.004829</ele>
        <time>2021-11-20T09:55:59.874Z</time>
      </trkpt>
      <trkpt lat="47.617487" lon="8.070818">
        <ele>637.039834</ele>
        <time>2021-11-20T09:56:03.020Z</time>
      </trkpt>
      <trkpt lat="47.617356" lon="8.070721">
        <ele>637.065122</ele>
        <time>2021-11-20T09:56:04.997Z</time>
      </trkpt>
      <trkpt lat="47.617222" lon="8.070610">
        <ele>637.091630</ele>
        <time>2021-11-20T09:56:07.376Z</time>
      </trkpt>
      <trkpt lat="47.617122" lon="8.070498">
        <ele>637.113271</ele>
        <time>2021-11-20T09:56:09.064Z</time>
      </trkpt>
      <trkpt lat="47.616982" lon="8.070184">
        <ele>637.157102</ele>
        <time>2021-11-20T09:56:12.927Z</time>
      </trkpt>
      <trkpt lat="47.616924" lon="8.069947">
        <ele>637.247918</ele>
        <time>2021-11-20T09:56:15.250Z</time>
      </trkpt>
      <trkpt lat="47.616682" lon="8.068707">
        <ele>638.003317</ele>
        <time>2021-11-20T09:56:28.648Z</time>
      </trkpt>
      <trkpt lat="47.616393" lon="8.067205">
        <ele>639.356116</ele>
        <time>2021-11-20T09:56:51.026Z</time>
      </trkpt>
      <trkpt lat="47.616340" lon="8.066594">
        <ele>640.572619</ele>
        <time>2021-11-20T09:57:01.729Z</time>
      </trkpt>
      <trkpt lat="47.616546" lon="8.065501">
        <ele>642.813763</ele>
        <time>2021-11-20T09:57:23.139Z</time>
      </trkpt>
      <trkpt lat="47.616911" lon="8.064532">
        <ele>644.973532</ele>
        <time>2021-11-20T09:57:44.846Z</time>
      </trkpt>
      <trkpt lat="47.616952" lon="8.064239">
        <ele>645.545500</ele>
        <time>2021-11-20T09:57:50.379Z</time>
      </trkpt>
      <trkpt lat="47.616970" lon="8.064104">
        <ele>645.808534</ele>
        <time>2021-11-20T09:57:52.982Z</time>
      </trkpt>
      <trkpt lat="47.616877" lon="8.063786">
        <ele>646.471086</ele>
        <time>2021-11-20T09:57:58.983Z</time>
      </trkpt>
      <trkpt lat="47.616475" lon="8.063255">
        <ele>647.997325</ele>
        <time>2021-11-20T09:58:12.632Z</time>
      </trkpt>
      <trkpt lat="47.616304" lon="8.062945">
        <ele>648.762955</ele>
        <time>2021-11-20T09:58:19.323Z</time>
      </trkpt>
      <trkpt lat="47.616151" lon="8.062583">
        <ele>649.371944</ele>
        <time>2021-11-20T09:58:26.225Z</time>
      </trkpt>
      <trkpt lat="47.616006" lon="8.062039">
        <ele>650.004225</ele>
        <time>2021-11-20T09:58:35.436Z</time>
      </trkpt>
      <trkpt lat="47.615893" lon="8.061708">
        <ele>650.405253</ele>
        <time>2021-11-20T09:58:41.022Z</time>
      </trkpt>
      <trkpt lat="47.615649" lon="8.061223">
        <ele>651.059368</ele>
        <time>2021-11-20T09:58:50.292Z</time>
      </trkpt>
      <trkpt lat="47.615560" lon="8.060605">
        <ele>651.742416</ele>
        <time>2021-11-20T09:58:57.777Z</time>
      </trkpt>
      <trkpt lat="47.615672" lon="8.059665">
        <ele>652.096612</ele>
        <time>2021-11-20T09:59:09.105Z</time>
      </trkpt>
      <trkpt lat="47.615627" lon="8.059482">
        <ele>652.126245</ele>
        <time>2021-11-20T09:59:10.575Z</time>
      </trkpt>
      <trkpt lat="47.615486" lon="8.059322">
        <ele>652.166307</ele>
        <time>2021-11-20T09:59:13.237Z</time>
      </trkpt>
      <trkpt lat="47.615451" lon="8.059291">
        <ele>652.175506</ele>
        <time>2021-11-20T09:59:14.557Z</time>
      </trkpt>
      <trkpt lat="47.615348" lon="8.059227">
        <ele>652.200707</ele>
        <time>2021-11-20T09:59:15.795Z</time>
      </trkpt>
      <trkpt lat="47.615048" lon="8.059219">
        <ele>652.268420</ele>
        <time>2021-11-20T09:59:20.518Z</time>
      </trkpt>
      <trkpt lat="47.614565" lon="8.059680">
        <ele>652.469306</ele>
        <time>2021-11-20T09:59:28.442Z</time>
      </trkpt>
      <trkpt lat="47.614399" lon="8.059755">
        <ele>652.937845</ele>
        <time>2021-11-20T09:59:31.987Z</time>
      </trkpt>
      <trkpt lat="47.614248" lon="8.059802">
        <ele>653.354434</ele>
        <time>2021-11-20T09:59:33.882Z</time>
      </trkpt>
      <trkpt lat="47.614233" lon="8.059593">
        <ele>653.736999</ele>
        <time>2021-11-20T09:59:37.594Z</time>
      </trkpt>
      <trkpt lat="47.614097" lon="8.058031">
        <ele>656.603722</ele>
        <time>2021-11-20T10:00:02.799Z</time>
      </trkpt>
      <trkpt lat="47.614385" lon="8.056367">
        <ele>664.429126</ele>
        <time>2021-11-20T10:00:53.645Z</time>
      </trkpt>
      <trkpt lat="47.614484" lon="8.056010">
        <ele>666.461447</ele>
        <time>2021-11-20T10:01:06.126Z</time>
      </trkpt>
      <trkpt lat="47.614675" lon="8.055693">
        <ele>668.699829</ele>
        <time>2021-11-20T10:01:21.935Z</time>
      </trkpt>
      <trkpt lat="47.615195" lon="8.054883">
        <ele>674.433503</ele>
        <time>2021-11-20T10:02:00.445Z</time>
      </trkpt>
      <trkpt lat="47.615542" lon="8.054569">
        <ele>677.458431</ele>
        <time>2021-11-20T10:02:20.276Z</time>
      </trkpt>
      <trkpt lat="47.615675" lon="8.054514">
        <ele>678.485964</ele>
        <time>2021-11-20T10:02:27.430Z</time>
      </trkpt>
      <trkpt lat="47.615875" lon="8.054481">
        <ele>679.983555</ele>
        <time>2021-11-20T10:02:35.491Z</time>
      </trkpt>
      <trkpt lat="47.616679" lon="8.054745">
        <ele>685.483343</ele>
        <time>2021-11-20T10:03:07.007Z</time>
      </trkpt>
      <trkpt lat="47.616819" lon="8.054711">
        <ele>686.075486</ele>
        <time>2021-11-20T10:03:11.885Z</time>
      </trkpt>
      <trkpt lat="47.617199" lon="8.054456">
        <ele>687.816345</ele>
        <time>2021-11-20T10:03:25.415Z</time>
      </trkpt>
      <trkpt lat="47.617379" lon="8.054302">
        <ele>688.683661</ele>
        <time>2021-11-20T10:03:31.440Z</time>
      </trkpt>
      <trkpt lat="47.617769" lon="8.054024">
        <ele>690.489701</ele>
        <time>2021-11-20T10:03:42.643Z</time>
      </trkpt>
      <trkpt lat="47.617955" lon="8.053913">
        <ele>691.326533</ele>
        <time>2021-11-20T10:03:48.410Z</time>
      </trkpt>
      <trkpt lat="47.618091" lon="8.053857">
        <ele>691.915662</ele>
        <time>2021-11-20T10:03:52.524Z</time>
      </trkpt>
      <trkpt lat="47.618184" lon="8.053819">
        <ele>692.336196</ele>
        <time>2021-11-20T10:03:55.184Z</time>
      </trkpt>
      <trkpt lat="47.618447" lon="8.053748">
        <ele>693.605537</ele>
        <time>2021-11-20T10:04:04.063Z</time>
      </trkpt>
      <trkpt lat="47.618483" lon="8.053732">
        <ele>693.783987</ele>
        <time>2021-11-20T10:04:05.136Z</time>
      </trkpt>
      <trkpt lat="47.618654" lon="8.053651">
        <ele>694.636351</ele>
        <time>2021-11-20T10:04:11.491Z</time>
      </trkpt>
      <trkpt lat="47.618862" lon="8.053511">
        <ele>695.720918</ele>
        <time>2021-11-20T10:04:19.001Z</time>
      </trkpt>
      <trkpt lat="47.619043" lon="8.053330">
        <ele>696.757402</ele>
        <time>2021-11-20T10:04:26.256Z</time>
      </trkpt>
      <trkpt lat="47.619217" lon="8.053113">
        <ele>697.836775</ele>
        <time>2021-11-20T10:04:33.947Z</time>
      </trkpt>
      <trkpt lat="47.619380" lon="8.052853">
        <ele>698.973254</ele>
        <time>2021-11-20T10:04:42.093Z</time>
      </trkpt>
      <trkpt lat="47.619512" lon="8.052593">
        <ele>700.015071</ele>
        <time>2021-11-20T10:04:50.139Z</time>
      </trkpt>
      <trkpt lat="47.619670" lon="8.052221">
        <ele>701.611479</ele>
        <time>2021-11-20T10:05:01.130Z</time>
      </trkpt>
      <trkpt lat="47.620319" lon="8.050857">
        <ele>708.412558</ele>
        <time>2021-11-20T10:05:45.564Z</time>
      </trkpt>
      <trkpt lat="47.620475" lon="8.050499">
        <ele>710.149053</ele>
        <time>2021-11-20T10:05:56.617Z</time>
      </trkpt>
      <trkpt lat="47.620557" lon="8.050331">
        <ele>710.993974</ele>
        <time>2021-11-20T10:06:02.018Z</time>
      </trkpt>
      <trkpt lat="47.620660" lon="8.050141">
        <ele>712.059983</ele>
        <time>2021-11-20T10:06:09.110Z</time>
      </trkpt>
      <trkpt lat="47.620802" lon="8.049928">
        <ele>713.509050</ele>
        <time>2021-11-20T10:06:16.815Z</time>
      </trkpt>
      <trkpt lat="47.620995" lon="8.049690">
        <ele>715.309987</ele>
        <time>2021-11-20T10:06:27.122Z</time>
      </trkpt>
      <trkpt lat="47.621147" lon="8.049455">
        <ele>716.885348</ele>
        <time>2021-11-20T10:06:36.881Z</time>
      </trkpt>
      <trkpt lat="47.621283" lon="8.049206">
        <ele>718.435506</ele>
        <time>2021-11-20T10:06:45.848Z</time>
      </trkpt>
      <trkpt lat="47.621348" lon="8.048934">
        <ele>719.831370</ele>
        <time>2021-11-20T10:06:55.385Z</time>
      </trkpt>
      <trkpt lat="47.621395" lon="8.048626">
        <ele>721.358820</ele>
        <time>2021-11-20T10:07:04.611Z</time>
      </trkpt>
      <trkpt lat="47.621488" lon="8.048685">
        <ele>722.084646</ele>
        <time>2021-11-20T10:07:10.031Z</time>
      </trkpt>
      <trkpt lat="47.621828" lon="8.048209">
        <ele>725.461885</ele>
        <time>2021-11-20T10:07:30.784Z</time>
      </trkpt>
      <trkpt lat="47.621912" lon="8.048035">
        <ele>726.522156</ele>
        <time>2021-11-20T10:07:37.562Z</time>
      </trkpt>
      <trkpt lat="47.622052" lon="8.047750">
        <ele>728.269194</ele>
        <time>2021-11-20T10:07:48.311Z</time>
      </trkpt>
      <trkpt lat="47.622188" lon="8.047410">
        <ele>730.227789</ele>
        <time>2021-11-20T10:08:00.746Z</time>
      </trkpt>
      <trkpt lat="47.622727" lon="8.046477">
        <ele>736.315175</ele>
        <time>2021-11-20T10:08:37.727Z</time>
      </trkpt>
      <trkpt lat="47.622871" lon="8.045823">
        <ele>739.142852</ele>
        <time>2021-11-20T10:08:56.991Z</time>
      </trkpt>
      <trkpt lat="47.623132" lon="8.045093">
        <ele>742.046770</ele>
        <time>2021-11-20T10:09:16.927Z</time>
      </trkpt>
      <trkpt lat="47.623412" lon="8.044328">
        <ele>745.105899</ele>
        <time>2021-11-20T10:09:36.073Z</time>
      </trkpt>
      <trkpt lat="47.623807" lon="8.042956">
        <ele>749.969964</ele>
        <time>2021-11-20T10:10:09.096Z</time>
      </trkpt>
      <trkpt lat="47.624184" lon="8.042194">
        <ele>752.904042</ele>
        <time>2021-11-20T10:10:29.885Z</time>
      </trkpt>
      <trkpt lat="47.624372" lon="8.041905">
        <ele>754.150765</ele>
        <time>2021-11-20T10:10:39.384Z</time>
      </trkpt>
      <trkpt lat="47.624516" lon="8.041676">
        <ele>755.122899</ele>
        <time>2021-11-20T10:10:46.657Z</time>
      </trkpt>
      <trkpt lat="47.624925" lon="8.041275">
        <ele>757.339086</ele>
        <time>2021-11-20T10:11:03.510Z</time>
      </trkpt>
      <trkpt lat="47.625386" lon="8.040749">
        <ele>759.961586</ele>
        <time>2021-11-20T10:11:23.307Z</time>
      </trkpt>
      <trkpt lat="47.625401" lon="8.040714">
        <ele>760.087647</ele>
        <time>2021-11-20T10:11:24.719Z</time>
      </trkpt>
      <trkpt lat="47.625626" lon="8.040169">
        <ele>762.030116</ele>
        <time>2021-11-20T10:11:38.711Z</time>
      </trkpt>
      <trkpt lat="47.625709" lon="8.040064">
        <ele>762.521982</ele>
        <time>2021-11-20T10:11:41.675Z</time>
      </trkpt>
      <trkpt lat="47.625852" lon="8.039905">
        <ele>763.327816</ele>
        <time>2021-11-20T10:11:47.513Z</time>
      </trkpt>
      <trkpt lat="47.625910" lon="8.039886">
        <ele>763.561464</ele>
        <time>2021-11-20T10:11:49.253Z</time>
      </trkpt>
      <trkpt lat="47.626138" lon="8.039670">
        <ele>764.355009</ele>
        <time>2021-11-20T10:11:56.817Z</time>
      </trkpt>
      <trkpt lat="47.626918" lon="8.038398">
        <ele>767.754984</ele>
        <time>2021-11-20T10:12:27.291Z</time>
      </trkpt>
      <trkpt lat="47.627033" lon="8.037848">
        <ele>768.869024</ele>
        <time>2021-11-20T10:12:36.575Z</time>
      </trkpt>
      <trkpt lat="47.627002" lon="8.036985">
        <ele>770.227504</ele>
        <time>2021-11-20T10:12:50.968Z</time>
      </trkpt>
      <trkpt lat="47.627316" lon="8.035869">
        <ele>772.128483</ele>
        <time>2021-11-20T10:13:10.272Z</time>
      </trkpt>
      <trkpt lat="47.627384" lon="8.035434">
        <ele>772.830410</ele>
        <time>2021-11-20T10:13:17.393Z</time>
      </trkpt>
      <trkpt lat="47.627414" lon="8.035270">
        <ele>773.137030</ele>
        <time>2021-11-20T10:13:20.258Z</time>
      </trkpt>
      <trkpt lat="47.627588" lon="8.034868">
        <ele>774.119203</ele>
        <time>2021-11-20T10:13:35.144Z</time>
      </trkpt>
      <trkpt lat="47.627625" lon="8.034791">
        <ele>774.313611</ele>
        <time>2021-11-20T10:13:38.163Z</time>
      </trkpt>
      <trkpt lat="47.627835" lon="8.034749">
        <ele>774.959971</ele>
        <time>2021-11-20T10:13:48.000Z</time>
      </trkpt>
      <trkpt lat="47.628005" lon="8.034829">
        <ele>775.503980</ele>
        <time>2021-11-20T10:13:56.462Z</time>
      </trkpt>
      <trkpt lat="47.628236" lon="8.035270">
        <ele>776.652188</ele>
        <time>2021-11-20T10:14:14.389Z</time>
      </trkpt>
      <trkpt lat="47.628372" lon="8.035456">
        <ele>777.216367</ele>
        <time>2021-11-20T10:14:23.891Z</time>
      </trkpt>
      <trkpt lat="47.628561" lon="8.035588">
        <ele>777.853547</ele>
        <time>2021-11-20T10:14:34.816Z</time>
      </trkpt>
      <trkpt lat="47.628759" lon="8.035554">
        <ele>778.468029</ele>
        <time>2021-11-20T10:14:45.063Z</time>
      </trkpt>
      <trkpt lat="47.629002" lon="8.035340">
        <ele>780.277936</ele>
        <time>2021-11-20T10:15:00.501Z</time>
      </trkpt>
      <trkpt lat="47.629443" lon="8.034721">
        <ele>784.166088</ele>
        <time>2021-11-20T10:15:37.414Z</time>
      </trkpt>
      <trkpt lat="47.629726" lon="8.034448">
        <ele>786.328091</ele>
        <time>2021-11-20T10:15:59.389Z</time>
      </trkpt>
      <trkpt lat="47.629875" lon="8.034385">
        <ele>787.320430</ele>
        <time>2021-11-20T10:16:09.252Z</time>
      </trkpt>
      <trkpt lat="47.630629" lon="8.034094">
        <ele>793.425175</ele>
        <time>2021-11-20T10:17:04.260Z</time>
      </trkpt>
      <trkpt lat="47.630896" lon="8.033790">
        <ele>796.609970</ele>
        <time>2021-11-20T10:17:29.637Z</time>
      </trkpt>
      <trkpt lat="47.631278" lon="8.033353">
        <ele>801.174506</ele>
        <time>2021-11-20T10:18:06.055Z</time>
      </trkpt>
      <trkpt lat="47.631554" lon="8.032373">
        <ele>807.892669</ele>
        <time>2021-11-20T10:19:02.305Z</time>
      </trkpt>
      <trkpt lat="47.631737" lon="8.032040">
        <ele>810.473192</ele>
        <time>2021-11-20T10:19:25.070Z</time>
      </trkpt>
      <trkpt lat="47.632327" lon="8.031550">
        <ele>816.498587</ele>
        <time>2021-11-20T10:20:15.251Z</time>
      </trkpt>
      <trkpt lat="47.632521" lon="8.031264">
        <ele>818.935607</ele>
        <time>2021-11-20T10:20:34.912Z</time>
      </trkpt>
      <trkpt lat="47.632881" lon="8.030718">
        <ele>823.343973</ele>
        <time>2021-11-20T10:21:09.880Z</time>
      </trkpt>
      <trkpt lat="47.633162" lon="8.030392">
        <ele>825.376953</ele>
        <time>2021-11-20T10:21:33.189Z</time>
      </trkpt>
      <trkpt lat="47.633742" lon="8.029878">
        <ele>829.227405</ele>
        <time>2021-11-20T10:22:16.032Z</time>
      </trkpt>
      <trkpt lat="47.634013" lon="8.029578">
        <ele>831.154456</ele>
        <time>2021-11-20T10:22:34.540Z</time>
      </trkpt>
      <trkpt lat="47.634560" lon="8.028971">
        <ele>833.910397</ele>
        <time>2021-11-20T10:23:09.439Z</time>
      </trkpt>
      <trkpt lat="47.634647" lon="8.028874">
        <ele>834.132070</ele>
        <time>2021-11-20T10:23:15.276Z</time>
      </trkpt>
      <trkpt lat="47.635088" lon="8.028380">
        <ele>835.257629</ele>
        <time>2021-11-20T10:23:41.201Z</time>
      </trkpt>
      <trkpt lat="47.636007" lon="8.027754">
        <ele>837.040218</ele>
        <time>2021-11-20T10:24:22.672Z</time>
      </trkpt>
      <trkpt lat="47.636200" lon="8.027596">
        <ele>837.157685</ele>
        <time>2021-11-20T10:24:30.404Z</time>
      </trkpt>
      <trkpt lat="47.636290" lon="8.027494">
        <ele>837.218036</ele>
        <time>2021-11-20T10:24:34.898Z</time>
      </trkpt>
      <trkpt lat="47.636449" lon="8.027274">
        <ele>837.333888</ele>
        <time>2021-11-20T10:24:37.747Z</time>
      </trkpt>
      <trkpt lat="47.636607" lon="8.027019">
        <ele>837.458289</ele>
        <time>2021-11-20T10:24:41.610Z</time>
      </trkpt>
      <trkpt lat="47.636646" lon="8.026954">
        <ele>837.489543</ele>
        <time>2021-11-20T10:24:42.254Z</time>
      </trkpt>
      <trkpt lat="47.636774" lon="8.026731">
        <ele>837.594739</ele>
        <time>2021-11-20T10:24:45.495Z</time>
      </trkpt>
      <trkpt lat="47.636777" lon="8.026724">
        <ele>837.597718</ele>
        <time>2021-11-20T10:24:45.805Z</time>
      </trkpt>
      <trkpt lat="47.637118" lon="8.025997">
        <ele>837.963362</ele>
        <time>2021-11-20T10:24:56.122Z</time>
      </trkpt>
      <trkpt lat="47.637777" lon="8.024808">
        <ele>840.236303</ele>
        <time>2021-11-20T10:25:19.845Z</time>
      </trkpt>
      <trkpt lat="47.637841" lon="8.024703">
        <ele>840.445334</ele>
        <time>2021-11-20T10:25:22.825Z</time>
      </trkpt>
      <trkpt lat="47.637948" lon="8.024522">
        <ele>840.800818</ele>
        <time>2021-11-20T10:25:26.532Z</time>
      </trkpt>
      <trkpt lat="47.638293" lon="8.023907">
        <ele>842.032762</ele>
        <time>2021-11-20T10:25:40.686Z</time>
      </trkpt>
      <trkpt lat="47.638868" lon="8.022686">
        <ele>845.020845</ele>
        <time>2021-11-20T10:26:07.606Z</time>
      </trkpt>
      <trkpt lat="47.639124" lon="8.022399">
        <ele>845.975943</ele>
        <time>2021-11-20T10:26:15.917Z</time>
      </trkpt>
      <trkpt lat="47.639551" lon="8.022327">
        <ele>847.277094</ele>
        <time>2021-11-20T10:26:27.220Z</time>
      </trkpt>
      <trkpt lat="47.640406" lon="8.021996">
        <ele>850.873913</ele>
        <time>2021-11-20T10:26:52.733Z</time>
      </trkpt>
      <trkpt lat="47.641437" lon="8.022126">
        <ele>855.068908</ele>
        <time>2021-11-20T10:27:28.332Z</time>
      </trkpt>
      <trkpt lat="47.641689" lon="8.022060">
        <ele>856.079550</ele>
        <time>2021-11-20T10:27:36.646Z</time>
      </trkpt>
      <trkpt lat="47.641950" lon="8.021916">
        <ele>857.179277</ele>
        <time>2021-11-20T10:27:45.456Z</time>
      </trkpt>
      <trkpt lat="47.642128" lon="8.021824">
        <ele>857.923689</ele>
        <time>2021-11-20T10:27:51.883Z</time>
      </trkpt>
      <trkpt lat="47.642659" lon="8.021611">
        <ele>860.096095</ele>
        <time>2021-11-20T10:28:07.478Z</time>
      </trkpt>
      <trkpt lat="47.642759" lon="8.021555">
        <ele>860.518218</ele>
        <time>2021-11-20T10:28:11.159Z</time>
      </trkpt>
      <trkpt lat="47.642877" lon="8.021490">
        <ele>861.015316</ele>
        <time>2021-11-20T10:28:14.904Z</time>
      </trkpt>
      <trkpt lat="47.643027" lon="8.021333">
        <ele>861.668429</ele>
        <time>2021-11-20T10:28:19.625Z</time>
      </trkpt>
      <trkpt lat="47.643038" lon="8.021286">
        <ele>861.720997</ele>
        <time>2021-11-20T10:28:20.889Z</time>
      </trkpt>
      <trkpt lat="47.643353" lon="8.021179">
        <ele>862.227734</ele>
        <time>2021-11-20T10:28:29.495Z</time>
      </trkpt>
      <trkpt lat="47.643502" lon="8.021159">
        <ele>862.462342</ele>
        <time>2021-11-20T10:28:33.479Z</time>
      </trkpt>
      <trkpt lat="47.643877" lon="8.021077">
        <ele>863.056745</ele>
        <time>2021-11-20T10:28:41.894Z</time>
      </trkpt>
      <trkpt lat="47.644076" lon="8.020964">
        <ele>863.390864</ele>
        <time>2021-11-20T10:28:46.157Z</time>
      </trkpt>
      <trkpt lat="47.644214" lon="8.020840">
        <ele>863.643834</ele>
        <time>2021-11-20T10:28:49.482Z</time>
      </trkpt>
      <trkpt lat="47.644608" lon="8.020567">
        <ele>864.325690</ele>
        <time>2021-11-20T10:28:56.684Z</time>
      </trkpt>
      <trkpt lat="47.644824" lon="8.020484">
        <ele>863.970353</ele>
        <time>2021-11-20T10:28:59.964Z</time>
      </trkpt>
      <trkpt lat="47.645147" lon="8.020353">
        <ele>862.912206</ele>
        <time>2021-11-20T10:29:03.936Z</time>
      </trkpt>
      <trkpt lat="47.645267" lon="8.020020">
        <ele>862.108183</ele>
        <time>2021-11-20T10:29:06.796Z</time>
      </trkpt>
      <trkpt lat="47.645411" lon="8.019621">
        <ele>861.144484</ele>
        <time>2021-11-20T10:29:09.815Z</time>
      </trkpt>
      <trkpt lat="47.645623" lon="8.019107">
        <ele>859.861368</ele>
        <time>2021-11-20T10:29:13.691Z</time>
      </trkpt>
      <trkpt lat="47.645749" lon="8.018850">
        <ele>859.184660</ele>
        <time>2021-11-20T10:29:15.715Z</time>
      </trkpt>
      <trkpt lat="47.645855" lon="8.018654">
        <ele>858.499584</ele>
        <time>2021-11-20T10:29:17.287Z</time>
      </trkpt>
      <trkpt lat="47.646127" lon="8.018327">
        <ele>855.859648</ele>
        <time>2021-11-20T10:29:20.484Z</time>
      </trkpt>
      <trkpt lat="47.646226" lon="8.018221">
        <ele>854.938988</ele>
        <time>2021-11-20T10:29:21.570Z</time>
      </trkpt>
      <trkpt lat="47.646408" lon="8.018030">
        <ele>853.257888</ele>
        <time>2021-11-20T10:29:23.560Z</time>
      </trkpt>
      <trkpt lat="47.647186" lon="8.017085">
        <ele>845.675877</ele>
        <time>2021-11-20T10:29:32.376Z</time>
      </trkpt>
      <trkpt lat="47.647422" lon="8.016743">
        <ele>842.965399</ele>
        <time>2021-11-20T10:29:35.260Z</time>
      </trkpt>
      <trkpt lat="47.647491" lon="8.016643">
        <ele>842.157160</ele>
        <time>2021-11-20T10:29:36.121Z</time>
      </trkpt>
      <trkpt lat="47.647585" lon="8.016520">
        <ele>841.106913</ele>
        <time>2021-11-20T10:29:37.235Z</time>
      </trkpt>
      <trkpt lat="47.648185" lon="8.015807">
        <ele>834.665217</ele>
        <time>2021-11-20T10:29:44.039Z</time>
      </trkpt>
      <trkpt lat="47.648216" lon="8.015785">
        <ele>834.377232</ele>
        <time>2021-11-20T10:29:44.327Z</time>
      </trkpt>
      <trkpt lat="47.648579" lon="8.015348">
        <ele>830.460058</ele>
        <time>2021-11-20T10:29:48.428Z</time>
      </trkpt>
      <trkpt lat="47.648589" lon="8.015329">
        <ele>830.323921</ele>
        <time>2021-11-20T10:29:48.572Z</time>
      </trkpt>
      <trkpt lat="47.648715" lon="8.015087">
        <ele>828.420016</ele>
        <time>2021-11-20T10:29:50.430Z</time>
      </trkpt>
      <trkpt lat="47.648720" lon="8.015000">
        <ele>827.869612</ele>
        <time>2021-11-20T10:29:50.917Z</time>
      </trkpt>
      <trkpt lat="47.648655" lon="8.014964">
        <ele>827.220450</ele>
        <time>2021-11-20T10:29:51.525Z</time>
      </trkpt>
      <trkpt lat="47.648217" lon="8.015082">
        <ele>823.055123</ele>
        <time>2021-11-20T10:29:55.364Z</time>
      </trkpt>
      <trkpt lat="47.647867" lon="8.015060">
        <ele>819.777232</ele>
        <time>2021-11-20T10:29:58.383Z</time>
      </trkpt>
      <trkpt lat="47.647702" lon="8.015006">
        <ele>818.196244</ele>
        <time>2021-11-20T10:29:59.893Z</time>
      </trkpt>
      <trkpt lat="47.647576" lon="8.014936">
        <ele>816.937390</ele>
        <time>2021-11-20T10:30:01.051Z</time>
      </trkpt>
      <trkpt lat="47.647547" lon="8.014920">
        <ele>816.647898</ele>
        <time>2021-11-20T10:30:01.310Z</time>
      </trkpt>
      <trkpt lat="47.647420" lon="8.014808">
        <ele>815.265648</ele>
        <time>2021-11-20T10:30:02.628Z</time>
      </trkpt>
      <trkpt lat="47.647310" lon="8.014651">
        <ele>813.837753</ele>
        <time>2021-11-20T10:30:03.923Z</time>
      </trkpt>
      <trkpt lat="47.647255" lon="8.014451">
        <ele>812.622802</ele>
        <time>2021-11-20T10:30:05.171Z</time>
      </trkpt>
      <trkpt lat="47.647223" lon="8.014207">
        <ele>811.339334</ele>
        <time>2021-11-20T10:30:06.633Z</time>
      </trkpt>
      <trkpt lat="47.647151" lon="8.013658">
        <ele>808.451529</ele>
        <time>2021-11-20T10:30:09.936Z</time>
      </trkpt>
      <trkpt lat="47.647267" lon="8.012798">
        <ele>803.923058</ele>
        <time>2021-11-20T10:30:15.129Z</time>
      </trkpt>
      <trkpt lat="47.647267" lon="8.012758">
        <ele>803.716531</ele>
        <time>2021-11-20T10:30:15.350Z</time>
      </trkpt>
      <trkpt lat="47.647270" lon="8.012447">
        <ele>802.110615</ele>
        <time>2021-11-20T10:30:17.279Z</time>
      </trkpt>
      <trkpt lat="47.647269" lon="8.012183">
        <ele>800.747511</ele>
        <time>2021-11-20T10:30:18.858Z</time>
      </trkpt>
      <trkpt lat="47.647253" lon="8.011894">
        <ele>799.433709</ele>
        <time>2021-11-20T10:30:20.897Z</time>
      </trkpt>
      <trkpt lat="47.647254" lon="8.011528">
        <ele>798.918262</ele>
        <time>2021-11-20T10:30:23.292Z</time>
      </trkpt>
      <trkpt lat="47.647129" lon="8.011490">
        <ele>798.651533</ele>
        <time>2021-11-20T10:30:24.657Z</time>
      </trkpt>
      <trkpt lat="47.646783" lon="8.011351">
        <ele>797.902218</ele>
        <time>2021-11-20T10:30:28.330Z</time>
      </trkpt>
      <trkpt lat="47.646418" lon="8.011132">
        <ele>797.079230</ele>
        <time>2021-11-20T10:30:32.591Z</time>
      </trkpt>
      <trkpt lat="47.646246" lon="8.010992">
        <ele>796.669162</ele>
        <time>2021-11-20T10:30:35.402Z</time>
      </trkpt>
      <trkpt lat="47.646056" lon="8.010808">
        <ele>796.194920</ele>
        <time>2021-11-20T10:30:38.875Z</time>
      </trkpt>
      <trkpt lat="47.645893" lon="8.010578">
        <ele>795.746787</ele>
        <time>2021-11-20T10:30:42.340Z</time>
      </trkpt>
      <trkpt lat="47.645752" lon="8.010251">
        <ele>795.877651</ele>
        <time>2021-11-20T10:30:46.540Z</time>
      </trkpt>
      <trkpt lat="47.645630" lon="8.009847">
        <ele>796.026883</ele>
        <time>2021-11-20T10:30:51.741Z</time>
      </trkpt>
      <trkpt lat="47.645380" lon="8.008349">
        <ele>796.547081</ele>
        <time>2021-11-20T10:31:10.106Z</time>
      </trkpt>
      <trkpt lat="47.645208" lon="8.007812">
        <ele>796.757906</ele>
        <time>2021-11-20T10:31:16.572Z</time>
      </trkpt>
      <trkpt lat="47.645005" lon="8.007361">
        <ele>796.958831</ele>
        <time>2021-11-20T10:31:22.397Z</time>
      </trkpt>
      <trkpt lat="47.644813" lon="8.006998">
        <ele>797.129792</ele>
        <time>2021-11-20T10:31:27.463Z</time>
      </trkpt>
      <trkpt lat="47.644652" lon="8.006827">
        <ele>797.238647</ele>
        <time>2021-11-20T10:31:30.623Z</time>
      </trkpt>
      <trkpt lat="47.644119" lon="8.006394">
        <ele>797.572740</ele>
        <time>2021-11-20T10:31:41.188Z</time>
      </trkpt>
      <trkpt lat="47.643978" lon="8.006145">
        <ele>797.833774</ele>
        <time>2021-11-20T10:31:45.101Z</time>
      </trkpt>
      <trkpt lat="47.643811" lon="8.005674">
        <ele>798.479150</ele>
        <time>2021-11-20T10:31:51.771Z</time>
      </trkpt>
      <trkpt lat="47.643684" lon="8.005510">
        <ele>798.782118</ele>
        <time>2021-11-20T10:31:56.103Z</time>
      </trkpt>
      <trkpt lat="47.642796" lon="8.004845">
        <ele>800.572208</ele>
        <time>2021-11-20T10:32:20.253Z</time>
      </trkpt>
      <trkpt lat="47.642427" lon="8.004770">
        <ele>800.919864</ele>
        <time>2021-11-20T10:32:28.294Z</time>
      </trkpt>
      <trkpt lat="47.642337" lon="8.004796">
        <ele>800.942513</ele>
        <time>2021-11-20T10:32:31.264Z</time>
      </trkpt>
      <trkpt lat="47.642209" lon="8.004861">
        <ele>800.975931</ele>
        <time>2021-11-20T10:32:33.130Z</time>
      </trkpt>
      <trkpt lat="47.641961" lon="8.005163">
        <ele>801.055172</ele>
        <time>2021-11-20T10:32:39.014Z</time>
      </trkpt>
      <trkpt lat="47.641834" lon="8.005484">
        <ele>801.117127</ele>
        <time>2021-11-20T10:32:44.293Z</time>
      </trkpt>
      <trkpt lat="47.641804" lon="8.005576">
        <ele>801.134138</ele>
        <time>2021-11-20T10:32:44.987Z</time>
      </trkpt>
      <trkpt lat="47.641616" lon="8.005980">
        <ele>801.215855</ele>
        <time>2021-11-20T10:32:50.428Z</time>
      </trkpt>
      <trkpt lat="47.641404" lon="8.006152">
        <ele>801.275536</ele>
        <time>2021-11-20T10:32:53.421Z</time>
      </trkpt>
      <trkpt lat="47.640890" lon="8.006404">
        <ele>799.799583</ele>
        <time>2021-11-20T10:32:59.301Z</time>
      </trkpt>
      <trkpt lat="47.640257" lon="8.007048">
        <ele>796.824298</ele>
        <time>2021-11-20T10:33:06.634Z</time>
      </trkpt>
      <trkpt lat="47.640044" lon="8.007144">
        <ele>795.961287</ele>
        <time>2021-11-20T10:33:08.748Z</time>
      </trkpt>
      <trkpt lat="47.639834" lon="8.007071">
        <ele>795.125109</ele>
        <time>2021-11-20T10:33:10.861Z</time>
      </trkpt>
      <trkpt lat="47.639742" lon="8.006994">
        <ele>794.715631</ele>
        <time>2021-11-20T10:33:11.819Z</time>
      </trkpt>
      <trkpt lat="47.639631" lon="8.006838">
        <ele>794.077466</ele>
        <time>2021-11-20T10:33:13.249Z</time>
      </trkpt>
      <trkpt lat="47.639599" lon="8.006784">
        <ele>793.850175</ele>
        <time>2021-11-20T10:33:13.732Z</time>
      </trkpt>
      <trkpt lat="47.639324" lon="8.006323">
        <ele>791.904144</ele>
        <time>2021-11-20T10:33:17.716Z</time>
      </trkpt>
      <trkpt lat="47.639248" lon="8.006245">
        <ele>791.470703</ele>
        <time>2021-11-20T10:33:18.544Z</time>
      </trkpt>
      <trkpt lat="47.639158" lon="8.006154">
        <ele>790.959866</ele>
        <time>2021-11-20T10:33:19.575Z</time>
      </trkpt>
      <trkpt lat="47.638830" lon="8.006018">
        <ele>789.362362</ele>
        <time>2021-11-20T10:33:22.827Z</time>
      </trkpt>
      <trkpt lat="47.638494" lon="8.006004">
        <ele>787.785629</ele>
        <time>2021-11-20T10:33:26.004Z</time>
      </trkpt>
      <trkpt lat="47.638358" lon="8.005969">
        <ele>787.138158</ele>
        <time>2021-11-20T10:33:27.312Z</time>
      </trkpt>
      <trkpt lat="47.638215" lon="8.005891">
        <ele>786.423502</ele>
        <time>2021-11-20T10:33:28.711Z</time>
      </trkpt>
      <trkpt lat="47.638107" lon="8.005814">
        <ele>785.870499</ele>
        <time>2021-11-20T10:33:29.949Z</time>
      </trkpt>
      <trkpt lat="47.637957" lon="8.005580">
        <ele>785.073664</ele>
        <time>2021-11-20T10:33:32.042Z</time>
      </trkpt>
      <trkpt lat="47.637787" lon="8.004794">
        <ele>783.037010</ele>
        <time>2021-11-20T10:33:37.665Z</time>
      </trkpt>
      <trkpt lat="47.637523" lon="8.004214">
        <ele>781.310145</ele>
        <time>2021-11-20T10:33:42.368Z</time>
      </trkpt>
      <trkpt lat="47.637184" lon="8.003698">
        <ele>779.532104</ele>
        <time>2021-11-20T10:33:47.175Z</time>
      </trkpt>
      <trkpt lat="47.636315" lon="8.003463">
        <ele>777.583043</ele>
        <time>2021-11-20T10:33:56.089Z</time>
      </trkpt>
      <trkpt lat="47.636070" lon="8.003329">
        <ele>777.033979</ele>
        <time>2021-11-20T10:33:58.942Z</time>
      </trkpt>
      <trkpt lat="47.635796" lon="8.002999">
        <ele>776.291942</ele>
        <time>2021-11-20T10:34:03.195Z</time>
      </trkpt>
      <trkpt lat="47.635608" lon="8.002439">
        <ele>775.467010</ele>
        <time>2021-11-20T10:34:09.542Z</time>
      </trkpt>
      <trkpt lat="47.635108" lon="8.000327">
        <ele>773.806734</ele>
        <time>2021-11-20T10:34:28.192Z</time>
      </trkpt>
      <trkpt lat="47.634953" lon="7.999648">
        <ele>772.965736</ele>
        <time>2021-11-20T10:34:33.444Z</time>
      </trkpt>
      <trkpt lat="47.634762" lon="7.999174">
        <ele>772.103572</ele>
        <time>2021-11-20T10:34:37.337Z</time>
      </trkpt>
      <trkpt lat="47.634587" lon="7.998962">
        <ele>771.580225</ele>
        <time>2021-11-20T10:34:39.703Z</time>
      </trkpt>
      <trkpt lat="47.634410" lon="7.998818">
        <ele>771.112598</ele>
        <time>2021-11-20T10:34:41.702Z</time>
      </trkpt>
      <trkpt lat="47.633905" lon="7.998683">
        <ele>769.923852</ele>
        <time>2021-11-20T10:34:46.883Z</time>
      </trkpt>
      <trkpt lat="47.633717" lon="7.998578">
        <ele>769.458494</ele>
        <time>2021-11-20T10:34:49.090Z</time>
      </trkpt>
      <trkpt lat="47.633574" lon="7.998408">
        <ele>769.416865</ele>
        <time>2021-11-20T10:34:51.322Z</time>
      </trkpt>
      <trkpt lat="47.633477" lon="7.998164">
        <ele>769.452769</ele>
        <time>2021-11-20T10:34:53.898Z</time>
      </trkpt>
      <trkpt lat="47.633385" lon="7.997544">
        <ele>769.533228</ele>
        <time>2021-11-20T10:35:02.384Z</time>
      </trkpt>
      <trkpt lat="47.633251" lon="7.995948">
        <ele>769.713707</ele>
        <time>2021-11-20T10:35:21.608Z</time>
      </trkpt>
      <trkpt lat="47.633236" lon="7.995517">
        <ele>769.648671</ele>
        <time>2021-11-20T10:35:26.594Z</time>
      </trkpt>
      <trkpt lat="47.633225" lon="7.995204">
        <ele>769.601439</ele>
        <time>2021-11-20T10:35:29.245Z</time>
      </trkpt>
      <trkpt lat="47.633165" lon="7.994756">
        <ele>769.532607</ele>
        <time>2021-11-20T10:35:34.061Z</time>
      </trkpt>
      <trkpt lat="47.633096" lon="7.994417">
        <ele>769.479241</ele>
        <time>2021-11-20T10:35:37.629Z</time>
      </trkpt>
      <trkpt lat="47.633034" lon="7.994185">
        <ele>769.441631</ele>
        <time>2021-11-20T10:35:39.575Z</time>
      </trkpt>
      <trkpt lat="47.632976" lon="7.993592">
        <ele>769.351331</ele>
        <time>2021-11-20T10:35:44.692Z</time>
      </trkpt>
      <trkpt lat="47.633263" lon="7.990675">
        <ele>768.330900</ele>
        <time>2021-11-20T10:36:10.126Z</time>
      </trkpt>
      <trkpt lat="47.633206" lon="7.989849">
        <ele>768.443393</ele>
        <time>2021-11-20T10:36:19.862Z</time>
      </trkpt>
      <trkpt lat="47.633172" lon="7.989666">
        <ele>768.469111</ele>
        <time>2021-11-20T10:36:22.260Z</time>
      </trkpt>
      <trkpt lat="47.633147" lon="7.989515">
        <ele>768.490177</ele>
        <time>2021-11-20T10:36:23.962Z</time>
      </trkpt>
      <trkpt lat="47.632909" lon="7.988820">
        <ele>768.595798</ele>
        <time>2021-11-20T10:36:32.546Z</time>
      </trkpt>
      <trkpt lat="47.632690" lon="7.988422">
        <ele>768.665413</ele>
        <time>2021-11-20T10:36:37.972Z</time>
      </trkpt>
      <trkpt lat="47.632504" lon="7.988217">
        <ele>768.504235</ele>
        <time>2021-11-20T10:36:41.324Z</time>
      </trkpt>
      <trkpt lat="47.632324" lon="7.988059">
        <ele>768.280250</ele>
        <time>2021-11-20T10:36:44.330Z</time>
      </trkpt>
      <trkpt lat="47.632243" lon="7.988006">
        <ele>768.185439</ele>
        <time>2021-11-20T10:36:45.509Z</time>
      </trkpt>
      <trkpt lat="47.632056" lon="7.987880">
        <ele>767.965479</ele>
        <time>2021-11-20T10:36:48.147Z</time>
      </trkpt>
      <trkpt lat="47.631642" lon="7.987687">
        <ele>767.500713</ele>
        <time>2021-11-20T10:36:53.477Z</time>
      </trkpt>
      <trkpt lat="47.631355" lon="7.987648">
        <ele>767.192045</ele>
        <time>2021-11-20T10:36:56.814Z</time>
      </trkpt>
      <trkpt lat="47.631277" lon="7.987638">
        <ele>767.108195</ele>
        <time>2021-11-20T10:36:57.715Z</time>
      </trkpt>
      <trkpt lat="47.630656" lon="7.987791">
        <ele>765.886589</ele>
        <time>2021-11-20T10:37:04.531Z</time>
      </trkpt>
      <trkpt lat="47.628500" lon="7.989076">
        <ele>758.725065</ele>
        <time>2021-11-20T10:37:28.133Z</time>
      </trkpt>
      <trkpt lat="47.627783" lon="7.989478">
        <ele>756.121550</ele>
        <time>2021-11-20T10:37:35.730Z</time>
      </trkpt>
      <trkpt lat="47.627745" lon="7.989499">
        <ele>755.983812</ele>
        <time>2021-11-20T10:37:36.133Z</time>
      </trkpt>
      <trkpt lat="47.627368" lon="7.989707">
        <ele>754.782658</ele>
        <time>2021-11-20T10:37:40.138Z</time>
      </trkpt>
      <trkpt lat="47.627037" lon="7.989869">
        <ele>753.845651</ele>
        <time>2021-11-20T10:37:43.651Z</time>
      </trkpt>
      <trkpt lat="47.626890" lon="7.989948">
        <ele>753.425338</ele>
        <time>2021-11-20T10:37:45.247Z</time>
      </trkpt>
      <trkpt lat="47.626641" lon="7.990055">
        <ele>752.728427</ele>
        <time>2021-11-20T10:37:47.876Z</time>
      </trkpt>
      <trkpt lat="47.626285" lon="7.990191">
        <ele>751.740156</ele>
        <time>2021-11-20T10:37:51.751Z</time>
      </trkpt>
      <trkpt lat="47.626059" lon="7.990262">
        <ele>751.119116</ele>
        <time>2021-11-20T10:37:54.326Z</time>
      </trkpt>
      <trkpt lat="47.626001" lon="7.990279">
        <ele>750.960177</ele>
        <time>2021-11-20T10:37:54.944Z</time>
      </trkpt>
      <trkpt lat="47.625865" lon="7.990306">
        <ele>750.591301</ele>
        <time>2021-11-20T10:37:56.500Z</time>
      </trkpt>
      <trkpt lat="47.625484" lon="7.990308">
        <ele>750.643963</ele>
        <time>2021-11-20T10:38:01.011Z</time>
      </trkpt>
      <trkpt lat="47.625165" lon="7.990242">
        <ele>750.704374</ele>
        <time>2021-11-20T10:38:05.280Z</time>
      </trkpt>
      <trkpt lat="47.625082" lon="7.990226">
        <ele>750.720073</ele>
        <time>2021-11-20T10:38:06.732Z</time>
      </trkpt>
      <trkpt lat="47.624824" lon="7.990103">
        <ele>750.770901</ele>
        <time>2021-11-20T10:38:11.044Z</time>
      </trkpt>
      <trkpt lat="47.624491" lon="7.989945">
        <ele>750.836475</ele>
        <time>2021-11-20T10:38:17.691Z</time>
      </trkpt>
      <trkpt lat="47.624001" lon="7.989485">
        <ele>751.214574</ele>
        <time>2021-11-20T10:38:29.908Z</time>
      </trkpt>
      <trkpt lat="47.623838" lon="7.989292">
        <ele>751.562215</ele>
        <time>2021-11-20T10:38:34.688Z</time>
      </trkpt>
      <trkpt lat="47.623561" lon="7.988865">
        <ele>752.228089</ele>
        <time>2021-11-20T10:38:43.850Z</time>
      </trkpt>
      <trkpt lat="47.623508" lon="7.988782">
        <ele>752.356551</ele>
        <time>2021-11-20T10:38:45.528Z</time>
      </trkpt>
      <trkpt lat="47.623303" lon="7.988291">
        <ele>753.005488</ele>
        <time>2021-11-20T10:38:54.329Z</time>
      </trkpt>
      <trkpt lat="47.623087" lon="7.987725">
        <ele>753.736288</ele>
        <time>2021-11-20T10:39:04.284Z</time>
      </trkpt>
      <trkpt lat="47.622073" lon="7.985033">
        <ele>754.578315</ele>
        <time>2021-11-20T10:39:39.821Z</time>
      </trkpt>
      <trkpt lat="47.622067" lon="7.985017">
        <ele>754.553977</ele>
        <time>2021-11-20T10:39:39.974Z</time>
      </trkpt>
      <trkpt lat="47.621842" lon="7.984392">
        <ele>753.612143</ele>
        <time>2021-11-20T10:39:45.733Z</time>
      </trkpt>
      <trkpt lat="47.621773" lon="7.984199">
        <ele>753.321748</ele>
        <time>2021-11-20T10:39:47.371Z</time>
      </trkpt>
      <trkpt lat="47.621453" lon="7.983289">
        <ele>751.957427</ele>
        <time>2021-11-20T10:39:54.735Z</time>
      </trkpt>
      <trkpt lat="47.621414" lon="7.983181">
        <ele>751.794565</ele>
        <time>2021-11-20T10:39:55.544Z</time>
      </trkpt>
      <trkpt lat="47.621287" lon="7.982952">
        <ele>751.400378</ele>
        <time>2021-11-20T10:39:57.566Z</time>
      </trkpt>
      <trkpt lat="47.621148" lon="7.982684">
        <ele>750.327089</ele>
        <time>2021-11-20T10:39:59.768Z</time>
      </trkpt>
      <trkpt lat="47.620712" lon="7.982017">
        <ele>747.290057</ele>
        <time>2021-11-20T10:40:05.706Z</time>
      </trkpt>
      <trkpt lat="47.620533" lon="7.981699">
        <ele>745.935838</ele>
        <time>2021-11-20T10:40:08.259Z</time>
      </trkpt>
      <trkpt lat="47.620263" lon="7.981105">
        <ele>743.594019</ele>
        <time>2021-11-20T10:40:12.761Z</time>
      </trkpt>
      <trkpt lat="47.619965" lon="7.980295">
        <ele>740.922575</ele>
        <time>2021-11-20T10:40:18.642Z</time>
      </trkpt>
      <trkpt lat="47.619797" lon="7.980012">
        <ele>739.894469</ele>
        <time>2021-11-20T10:40:21.174Z</time>
      </trkpt>
      <trkpt lat="47.619731" lon="7.979949">
        <ele>739.577039</ele>
        <time>2021-11-20T10:40:21.871Z</time>
      </trkpt>
      <trkpt lat="47.619309" lon="7.979839">
        <ele>737.844044</ele>
        <time>2021-11-20T10:40:26.065Z</time>
      </trkpt>
      <trkpt lat="47.619073" lon="7.979702">
        <ele>736.819028</ele>
        <time>2021-11-20T10:40:28.633Z</time>
      </trkpt>
      <trkpt lat="47.618976" lon="7.979589">
        <ele>736.320194</ele>
        <time>2021-11-20T10:40:29.913Z</time>
      </trkpt>
      <trkpt lat="47.618419" lon="7.978768">
        <ele>733.428436</ele>
        <time>2021-11-20T10:40:37.923Z</time>
      </trkpt>
      <trkpt lat="47.617897" lon="7.977926">
        <ele>730.705577</ele>
        <time>2021-11-20T10:40:45.674Z</time>
      </trkpt>
      <trkpt lat="47.617863" lon="7.977860">
        <ele>730.507860</ele>
        <time>2021-11-20T10:40:46.137Z</time>
      </trkpt>
      <trkpt lat="47.617183" lon="7.976739">
        <ele>728.116549</ele>
        <time>2021-11-20T10:40:56.402Z</time>
      </trkpt>
      <trkpt lat="47.617143" lon="7.976643">
        <ele>728.000342</ele>
        <time>2021-11-20T10:40:57.057Z</time>
      </trkpt>
      <trkpt lat="47.617122" lon="7.976576">
        <ele>727.924262</ele>
        <time>2021-11-20T10:40:57.744Z</time>
      </trkpt>
      <trkpt lat="47.617087" lon="7.976456">
        <ele>727.789632</ele>
        <time>2021-11-20T10:40:58.824Z</time>
      </trkpt>
      <trkpt lat="47.617050" lon="7.976280">
        <ele>727.599803</ele>
        <time>2021-11-20T10:41:01.536Z</time>
      </trkpt>
      <trkpt lat="47.617035" lon="7.976194">
        <ele>727.508336</ele>
        <time>2021-11-20T10:41:02.069Z</time>
      </trkpt>
      <trkpt lat="47.616932" lon="7.975644">
        <ele>726.920572</ele>
        <time>2021-11-20T10:41:07.066Z</time>
      </trkpt>
      <trkpt lat="47.616823" lon="7.975315">
        <ele>726.543107</ele>
        <time>2021-11-20T10:41:12.181Z</time>
      </trkpt>
      <trkpt lat="47.616605" lon="7.975163">
        <ele>726.497131</ele>
        <time>2021-11-20T10:41:15.615Z</time>
      </trkpt>
      <trkpt lat="47.616374" lon="7.975153">
        <ele>727.201639</ele>
        <time>2021-11-20T10:41:20.136Z</time>
      </trkpt>
      <trkpt lat="47.615835" lon="7.975151">
        <ele>728.844798</ele>
        <time>2021-11-20T10:41:35.124Z</time>
      </trkpt>
      <trkpt lat="47.615388" lon="7.975207">
        <ele>730.212338</ele>
        <time>2021-11-20T10:41:49.413Z</time>
      </trkpt>
      <trkpt lat="47.615223" lon="7.975285">
        <ele>730.740266</ele>
        <time>2021-11-20T10:41:54.794Z</time>
      </trkpt>
      <trkpt lat="47.614735" lon="7.975625">
        <ele>732.588628</ele>
        <time>2021-11-20T10:42:11.401Z</time>
      </trkpt>
      <trkpt lat="47.614050" lon="7.976273">
        <ele>735.885971</ele>
        <time>2021-11-20T10:42:34.120Z</time>
      </trkpt>
      <trkpt lat="47.613802" lon="7.976286">
        <ele>736.893136</ele>
        <time>2021-11-20T10:42:42.252Z</time>
      </trkpt>
      <trkpt lat="47.613439" lon="7.976020">
        <ele>738.536369</ele>
        <time>2021-11-20T10:42:55.631Z</time>
      </trkpt>
      <trkpt lat="47.613266" lon="7.975808">
        <ele>739.556715</ele>
        <time>2021-11-20T10:43:03.387Z</time>
      </trkpt>
      <trkpt lat="47.613184" lon="7.975689">
        <ele>740.156146</ele>
        <time>2021-11-20T10:43:07.347Z</time>
      </trkpt>
      <trkpt lat="47.612962" lon="7.975399">
        <ele>741.701873</ele>
        <time>2021-11-20T10:43:17.783Z</time>
      </trkpt>
      <trkpt lat="47.612866" lon="7.975328">
        <ele>742.262403</ele>
        <time>2021-11-20T10:43:21.511Z</time>
      </trkpt>
      <trkpt lat="47.612922" lon="7.974981">
        <ele>743.519292</ele>
        <time>2021-11-20T10:43:30.380Z</time>
      </trkpt>
      <trkpt lat="47.613340" lon="7.973232">
        <ele>749.745415</ele>
        <time>2021-11-20T10:44:16.823Z</time>
      </trkpt>
      <trkpt lat="47.613371" lon="7.971800">
        <ele>753.807321</ele>
        <time>2021-11-20T10:44:46.306Z</time>
      </trkpt>
      <trkpt lat="47.613448" lon="7.971306">
        <ele>755.244791</ele>
        <time>2021-11-20T10:44:56.432Z</time>
      </trkpt>
      <trkpt lat="47.613544" lon="7.970739">
        <ele>756.823683</ele>
        <time>2021-11-20T10:45:07.946Z</time>
      </trkpt>
      <trkpt lat="47.613603" lon="7.970296">
        <ele>757.988824</ele>
        <time>2021-11-20T10:45:16.805Z</time>
      </trkpt>
      <trkpt lat="47.613651" lon="7.969763">
        <ele>759.376309</ele>
        <time>2021-11-20T10:45:27.414Z</time>
      </trkpt>
      <trkpt lat="47.613713" lon="7.969291">
        <ele>760.617086</ele>
        <time>2021-11-20T10:45:36.941Z</time>
      </trkpt>
      <trkpt lat="47.613876" lon="7.968615">
        <ele>762.469543</ele>
        <time>2021-11-20T10:45:51.779Z</time>
      </trkpt>
      <trkpt lat="47.614229" lon="7.967867">
        <ele>765.013989</ele>
        <time>2021-11-20T10:46:12.243Z</time>
      </trkpt>
      <trkpt lat="47.614987" lon="7.966716">
        <ele>769.574986</ele>
        <time>2021-11-20T10:46:45.643Z</time>
      </trkpt>
      <trkpt lat="47.615704" lon="7.965149">
        <ele>774.815820</ele>
        <time>2021-11-20T10:47:27.993Z</time>
      </trkpt>
      <trkpt lat="47.615837" lon="7.964647">
        <ele>776.301087</ele>
        <time>2021-11-20T10:47:39.348Z</time>
      </trkpt>
      <trkpt lat="47.615832" lon="7.964368">
        <ele>777.069627</ele>
        <time>2021-11-20T10:47:45.236Z</time>
      </trkpt>
      <trkpt lat="47.615816" lon="7.964301">
        <ele>777.265356</ele>
        <time>2021-11-20T10:47:46.844Z</time>
      </trkpt>
      <trkpt lat="47.615674" lon="7.963901">
        <ele>778.201792</ele>
        <time>2021-11-20T10:47:54.557Z</time>
      </trkpt>
      <trkpt lat="47.615426" lon="7.963657">
        <ele>778.871561</ele>
        <time>2021-11-20T10:48:01.314Z</time>
      </trkpt>
      <trkpt lat="47.615296" lon="7.963621">
        <ele>779.169202</ele>
        <time>2021-11-20T10:48:05.152Z</time>
      </trkpt>
      <trkpt lat="47.615240" lon="7.963619">
        <ele>779.295276</ele>
        <time>2021-11-20T10:48:06.164Z</time>
      </trkpt>
      <trkpt lat="47.615156" lon="7.963615">
        <ele>779.484429</ele>
        <time>2021-11-20T10:48:07.355Z</time>
      </trkpt>
      <trkpt lat="47.614910" lon="7.963756">
        <ele>780.077983</ele>
        <time>2021-11-20T10:48:14.281Z</time>
      </trkpt>
      <trkpt lat="47.614633" lon="7.964032">
        <ele>780.828996</ele>
        <time>2021-11-20T10:48:21.957Z</time>
      </trkpt>
      <trkpt lat="47.614483" lon="7.964169">
        <ele>781.225453</ele>
        <time>2021-11-20T10:48:24.353Z</time>
      </trkpt>
      <trkpt lat="47.614338" lon="7.964238">
        <ele>781.568180</ele>
        <time>2021-11-20T10:48:27.880Z</time>
      </trkpt>
      <trkpt lat="47.614181" lon="7.964246">
        <ele>781.955859</ele>
        <time>2021-11-20T10:48:31.050Z</time>
      </trkpt>
      <trkpt lat="47.614053" lon="7.964220">
        <ele>782.444049</ele>
        <time>2021-11-20T10:48:34.233Z</time>
      </trkpt>
      <trkpt lat="47.613879" lon="7.964086">
        <ele>783.184871</ele>
        <time>2021-11-20T10:48:39.476Z</time>
      </trkpt>
      <trkpt lat="47.613742" lon="7.963873">
        <ele>783.934800</ele>
        <time>2021-11-20T10:48:44.496Z</time>
      </trkpt>
      <trkpt lat="47.613521" lon="7.962842">
        <ele>786.690679</ele>
        <time>2021-11-20T10:49:05.701Z</time>
      </trkpt>
      <trkpt lat="47.613502" lon="7.962714">
        <ele>787.024550</ele>
        <time>2021-11-20T10:49:09.066Z</time>
      </trkpt>
      <trkpt lat="47.613369" lon="7.961915">
        <ele>789.203462</ele>
        <time>2021-11-20T10:49:30.195Z</time>
      </trkpt>
      <trkpt lat="47.613215" lon="7.961187">
        <ele>791.500902</ele>
        <time>2021-11-20T10:49:49.181Z</time>
      </trkpt>
      <trkpt lat="47.613138" lon="7.960868">
        <ele>792.521148</ele>
        <time>2021-11-20T10:49:57.668Z</time>
      </trkpt>
      <trkpt lat="47.613021" lon="7.960583">
        <ele>793.525902</ele>
        <time>2021-11-20T10:50:05.780Z</time>
      </trkpt>
      <trkpt lat="47.612881" lon="7.960311">
        <ele>794.556344</ele>
        <time>2021-11-20T10:50:13.108Z</time>
      </trkpt>
      <trkpt lat="47.612766" lon="7.960065">
        <ele>795.457742</ele>
        <time>2021-11-20T10:50:19.281Z</time>
      </trkpt>
      <trkpt lat="47.612685" lon="7.959801">
        <ele>796.331129</ele>
        <time>2021-11-20T10:50:24.125Z</time>
      </trkpt>
      <trkpt lat="47.612659" lon="7.959516">
        <ele>796.714147</ele>
        <time>2021-11-20T10:50:29.572Z</time>
      </trkpt>
      <trkpt lat="47.612741" lon="7.958660">
        <ele>796.778798</ele>
        <time>2021-11-20T10:50:40.433Z</time>
      </trkpt>
      <trkpt lat="47.612728" lon="7.958409">
        <ele>796.797623</ele>
        <time>2021-11-20T10:50:42.689Z</time>
      </trkpt>
      <trkpt lat="47.612719" lon="7.958171">
        <ele>796.815447</ele>
        <time>2021-11-20T10:50:44.787Z</time>
      </trkpt>
      <trkpt lat="47.612661" lon="7.957964">
        <ele>796.832209</ele>
        <time>2021-11-20T10:50:46.511Z</time>
      </trkpt>
      <trkpt lat="47.612606" lon="7.957836">
        <ele>796.843560</ele>
        <time>2021-11-20T10:50:47.889Z</time>
      </trkpt>
      <trkpt lat="47.612517" lon="7.957628">
        <ele>796.861982</ele>
        <time>2021-11-20T10:50:49.809Z</time>
      </trkpt>
      <trkpt lat="47.612456" lon="7.957566">
        <ele>796.870184</ele>
        <time>2021-11-20T10:50:50.604Z</time>
      </trkpt>
      <trkpt lat="47.612391" lon="7.957530">
        <ele>796.877880</ele>
        <time>2021-11-20T10:50:51.621Z</time>
      </trkpt>
      <trkpt lat="47.612291" lon="7.957543">
        <ele>796.889014</ele>
        <time>2021-11-20T10:50:52.896Z</time>
      </trkpt>
      <trkpt lat="47.612270" lon="7.957550">
        <ele>796.891402</ele>
        <time>2021-11-20T10:50:53.138Z</time>
      </trkpt>
      <trkpt lat="47.612102" lon="7.957603">
        <ele>796.861127</ele>
        <time>2021-11-20T10:50:54.999Z</time>
      </trkpt>
      <trkpt lat="47.611972" lon="7.957626">
        <ele>796.796918</ele>
        <time>2021-11-20T10:50:56.733Z</time>
      </trkpt>
      <trkpt lat="47.611743" lon="7.957534">
        <ele>796.680562</ele>
        <time>2021-11-20T10:50:59.382Z</time>
      </trkpt>
      <trkpt lat="47.611408" lon="7.957164">
        <ele>796.475725</ele>
        <time>2021-11-20T10:51:04.583Z</time>
      </trkpt>
      <trkpt lat="47.611301" lon="7.956962">
        <ele>796.390788</ele>
        <time>2021-11-20T10:51:07.095Z</time>
      </trkpt>
      <trkpt lat="47.611267" lon="7.956824">
        <ele>796.342210</ele>
        <time>2021-11-20T10:51:08.213Z</time>
      </trkpt>
      <trkpt lat="47.611164" lon="7.956405">
        <ele>796.194753</ele>
        <time>2021-11-20T10:51:12.627Z</time>
      </trkpt>
      <trkpt lat="47.611155" lon="7.956085">
        <ele>796.088859</ele>
        <time>2021-11-20T10:51:16.094Z</time>
      </trkpt>
      <trkpt lat="47.611237" lon="7.955554">
        <ele>796.382177</ele>
        <time>2021-11-20T10:51:22.830Z</time>
      </trkpt>
      <trkpt lat="47.611344" lon="7.955262">
        <ele>796.743124</ele>
        <time>2021-11-20T10:51:26.626Z</time>
      </trkpt>
      <trkpt lat="47.611423" lon="7.955105">
        <ele>796.955894</ele>
        <time>2021-11-20T10:51:29.623Z</time>
      </trkpt>
      <trkpt lat="47.611466" lon="7.955017">
        <ele>797.073931</ele>
        <time>2021-11-20T10:51:30.967Z</time>
      </trkpt>
      <trkpt lat="47.611563" lon="7.954771">
        <ele>797.383442</ele>
        <time>2021-11-20T10:51:34.603Z</time>
      </trkpt>
      <trkpt lat="47.611609" lon="7.954585">
        <ele>797.598611</ele>
        <time>2021-11-20T10:51:37.570Z</time>
      </trkpt>
      <trkpt lat="47.611583" lon="7.954201">
        <ele>798.017752</ele>
        <time>2021-11-20T10:51:43.694Z</time>
      </trkpt>
      <trkpt lat="47.611379" lon="7.953732">
        <ele>798.623928</ele>
        <time>2021-11-20T10:51:52.767Z</time>
      </trkpt>
      <trkpt lat="47.611213" lon="7.953569">
        <ele>798.953381</ele>
        <time>2021-11-20T10:51:57.656Z</time>
      </trkpt>
      <trkpt lat="47.610867" lon="7.953623">
        <ele>799.690078</ele>
        <time>2021-11-20T10:52:07.011Z</time>
      </trkpt>
      <trkpt lat="47.610622" lon="7.953678">
        <ele>800.214772</ele>
        <time>2021-11-20T10:52:13.059Z</time>
      </trkpt>
      <trkpt lat="47.610534" lon="7.953698">
        <ele>800.403286</ele>
        <time>2021-11-20T10:52:14.868Z</time>
      </trkpt>
      <trkpt lat="47.610442" lon="7.953689">
        <ele>800.598518</ele>
        <time>2021-11-20T10:52:17.679Z</time>
      </trkpt>
      <trkpt lat="47.610173" lon="7.953576">
        <ele>801.190525</ele>
        <time>2021-11-20T10:52:23.612Z</time>
      </trkpt>
      <trkpt lat="47.609991" lon="7.953325">
        <ele>801.716749</ele>
        <time>2021-11-20T10:52:29.565Z</time>
      </trkpt>
      <trkpt lat="47.609848" lon="7.952864">
        <ele>802.441174</ele>
        <time>2021-11-20T10:52:37.436Z</time>
      </trkpt>
      <trkpt lat="47.609390" lon="7.951204">
        <ele>803.543632</ele>
        <time>2021-11-20T10:53:01.521Z</time>
      </trkpt>
      <trkpt lat="47.609119" lon="7.950532">
        <ele>803.945444</ele>
        <time>2021-11-20T10:53:09.970Z</time>
      </trkpt>
      <trkpt lat="47.608916" lon="7.950126">
        <ele>803.803043</ele>
        <time>2021-11-20T10:53:14.467Z</time>
      </trkpt>
      <trkpt lat="47.608814" lon="7.949946">
        <ele>803.484558</ele>
        <time>2021-11-20T10:53:16.579Z</time>
      </trkpt>
      <trkpt lat="47.608598" lon="7.949608">
        <ele>802.853762</ele>
        <time>2021-11-20T10:53:20.321Z</time>
      </trkpt>
      <trkpt lat="47.608258" lon="7.949098">
        <ele>801.882286</ele>
        <time>2021-11-20T10:53:25.619Z</time>
      </trkpt>
      <trkpt lat="47.607428" lon="7.947861">
        <ele>798.672651</ele>
        <time>2021-11-20T10:53:37.516Z</time>
      </trkpt>
      <trkpt lat="47.607177" lon="7.947456">
        <ele>797.272745</ele>
        <time>2021-11-20T10:53:41.113Z</time>
      </trkpt>
      <trkpt lat="47.607053" lon="7.947037">
        <ele>796.108286</ele>
        <time>2021-11-20T10:53:44.087Z</time>
      </trkpt>
      <trkpt lat="47.607026" lon="7.946800">
        <ele>795.496624</ele>
        <time>2021-11-20T10:53:45.655Z</time>
      </trkpt>
      <trkpt lat="47.607053" lon="7.946387">
        <ele>794.440702</ele>
        <time>2021-11-20T10:53:48.379Z</time>
      </trkpt>
      <trkpt lat="47.607219" lon="7.945696">
        <ele>792.726780</ele>
        <time>2021-11-20T10:53:53.255Z</time>
      </trkpt>
      <trkpt lat="47.607532" lon="7.944721">
        <ele>790.354317</ele>
        <time>2021-11-20T10:54:00.890Z</time>
      </trkpt>
      <trkpt lat="47.607673" lon="7.944452">
        <ele>789.605745</ele>
        <time>2021-11-20T10:54:03.423Z</time>
      </trkpt>
      <trkpt lat="47.607934" lon="7.944298">
        <ele>788.690432</ele>
        <time>2021-11-20T10:54:06.595Z</time>
      </trkpt>
      <trkpt lat="47.608484" lon="7.944152">
        <ele>785.528988</ele>
        <time>2021-11-20T10:54:11.936Z</time>
      </trkpt>
      <trkpt lat="47.609294" lon="7.943637">
        <ele>778.651827</ele>
        <time>2021-11-20T10:54:19.894Z</time>
      </trkpt>
      <trkpt lat="47.609350" lon="7.943593">
        <ele>778.157300</ele>
        <time>2021-11-20T10:54:20.431Z</time>
      </trkpt>
      <trkpt lat="47.609814" lon="7.943160">
        <ele>773.879431</ele>
        <time>2021-11-20T10:54:25.124Z</time>
      </trkpt>
      <trkpt lat="47.610014" lon="7.942918">
        <ele>771.190445</ele>
        <time>2021-11-20T10:54:27.291Z</time>
      </trkpt>
      <trkpt lat="47.610065" lon="7.942722">
        <ele>769.698639</ele>
        <time>2021-11-20T10:54:28.484Z</time>
      </trkpt>
      <trkpt lat="47.610075" lon="7.942547">
        <ele>768.451558</ele>
        <time>2021-11-20T10:54:29.467Z</time>
      </trkpt>
      <trkpt lat="47.609950" lon="7.942351">
        <ele>766.535759</ele>
        <time>2021-11-20T10:54:31.058Z</time>
      </trkpt>
      <trkpt lat="47.609824" lon="7.942206">
        <ele>764.856095</ele>
        <time>2021-11-20T10:54:32.378Z</time>
      </trkpt>
      <trkpt lat="47.609660" lon="7.942072">
        <ele>762.884034</ele>
        <time>2021-11-20T10:54:34.002Z</time>
      </trkpt>
      <trkpt lat="47.609328" lon="7.941802">
        <ele>758.896147</ele>
        <time>2021-11-20T10:54:37.261Z</time>
      </trkpt>
      <trkpt lat="47.609231" lon="7.941717">
        <ele>757.709526</ele>
        <time>2021-11-20T10:54:38.212Z</time>
      </trkpt>
      <trkpt lat="47.608985" lon="7.941282">
        <ele>754.271192</ele>
        <time>2021-11-20T10:54:41.599Z</time>
      </trkpt>
      <trkpt lat="47.608976" lon="7.941180">
        <ele>753.910211</ele>
        <time>2021-11-20T10:54:42.186Z</time>
      </trkpt>
      <trkpt lat="47.608986" lon="7.941047">
        <ele>753.440608</ele>
        <time>2021-11-20T10:54:43.600Z</time>
      </trkpt>
      <trkpt lat="47.609156" lon="7.940638">
        <ele>751.754549</ele>
        <time>2021-11-20T10:54:46.474Z</time>
      </trkpt>
      <trkpt lat="47.609697" lon="7.940207">
        <ele>748.558221</ele>
        <time>2021-11-20T10:54:52.471Z</time>
      </trkpt>
      <trkpt lat="47.610427" lon="7.939448">
        <ele>743.759704</ele>
        <time>2021-11-20T10:55:01.506Z</time>
      </trkpt>
      <trkpt lat="47.610663" lon="7.939057">
        <ele>741.732431</ele>
        <time>2021-11-20T10:55:04.817Z</time>
      </trkpt>
      <trkpt lat="47.611668" lon="7.937036">
        <ele>732.234726</ele>
        <time>2021-11-20T10:55:20.104Z</time>
      </trkpt>
      <trkpt lat="47.612157" lon="7.936591">
        <ele>729.159449</ele>
        <time>2021-11-20T10:55:25.440Z</time>
      </trkpt>
      <trkpt lat="47.612760" lon="7.936192">
        <ele>725.620034</ele>
        <time>2021-11-20T10:55:31.851Z</time>
      </trkpt>
      <trkpt lat="47.613611" lon="7.935811">
        <ele>721.048063</ele>
        <time>2021-11-20T10:55:40.513Z</time>
      </trkpt>
      <trkpt lat="47.613843" lon="7.935758">
        <ele>719.841603</ele>
        <time>2021-11-20T10:55:42.765Z</time>
      </trkpt>
      <trkpt lat="47.614095" lon="7.935725">
        <ele>718.541369</ele>
        <time>2021-11-20T10:55:45.116Z</time>
      </trkpt>
      <trkpt lat="47.615166" lon="7.935713">
        <ele>710.945425</ele>
        <time>2021-11-20T10:55:54.734Z</time>
      </trkpt>
      <trkpt lat="47.615451" lon="7.935602">
        <ele>708.459598</ele>
        <time>2021-11-20T10:55:57.298Z</time>
      </trkpt>
      <trkpt lat="47.615705" lon="7.935396">
        <ele>706.017449</ele>
        <time>2021-11-20T10:55:59.803Z</time>
      </trkpt>
      <trkpt lat="47.616262" lon="7.934487">
        <ele>698.779172</ele>
        <time>2021-11-20T10:56:06.984Z</time>
      </trkpt>
      <trkpt lat="47.616672" lon="7.934051">
        <ele>694.009927</ele>
        <time>2021-11-20T10:56:11.357Z</time>
      </trkpt>
      <trkpt lat="47.616878" lon="7.934048">
        <ele>692.062273</ele>
        <time>2021-11-20T10:56:13.138Z</time>
      </trkpt>
      <trkpt lat="47.617409" lon="7.934240">
        <ele>686.895142</ele>
        <time>2021-11-20T10:56:17.889Z</time>
      </trkpt>
      <trkpt lat="47.617581" lon="7.934210">
        <ele>685.257824</ele>
        <time>2021-11-20T10:56:19.390Z</time>
      </trkpt>
      <trkpt lat="47.618969" lon="7.933585">
        <ele>670.299632</ele>
        <time>2021-11-20T10:56:31.880Z</time>
      </trkpt>
      <trkpt lat="47.619096" lon="7.933469">
        <ele>668.750067</ele>
        <time>2021-11-20T10:56:33.147Z</time>
      </trkpt>
      <trkpt lat="47.619255" lon="7.933163">
        <ele>666.044185</ele>
        <time>2021-11-20T10:56:35.379Z</time>
      </trkpt>
      <trkpt lat="47.619818" lon="7.932353">
        <ele>657.029480</ele>
        <time>2021-11-20T10:56:42.002Z</time>
      </trkpt>
      <trkpt lat="47.620106" lon="7.931975">
        <ele>652.574924</ele>
        <time>2021-11-20T10:56:45.235Z</time>
      </trkpt>
      <trkpt lat="47.620440" lon="7.931519">
        <ele>647.316689</ele>
        <time>2021-11-20T10:56:49.092Z</time>
      </trkpt>
      <trkpt lat="47.620523" lon="7.931338">
        <ele>645.607310</ele>
        <time>2021-11-20T10:56:50.333Z</time>
      </trkpt>
      <trkpt lat="47.620633" lon="7.930854">
        <ele>642.777622</ele>
        <time>2021-11-20T10:56:53.303Z</time>
      </trkpt>
      <trkpt lat="47.620770" lon="7.930392">
        <ele>640.371295</ele>
        <time>2021-11-20T10:56:56.273Z</time>
      </trkpt>
      <trkpt lat="47.621014" lon="7.929789">
        <ele>637.018235</ele>
        <time>2021-11-20T10:57:00.549Z</time>
      </trkpt>
      <trkpt lat="47.621153" lon="7.929574">
        <ele>635.597936</ele>
        <time>2021-11-20T10:57:02.396Z</time>
      </trkpt>
      <trkpt lat="47.621561" lon="7.929312">
        <ele>632.453391</ele>
        <time>2021-11-20T10:57:06.658Z</time>
      </trkpt>
      <trkpt lat="47.622199" lon="7.929159">
        <ele>628.723859</ele>
        <time>2021-11-20T10:57:12.932Z</time>
      </trkpt>
      <trkpt lat="47.622516" lon="7.929178">
        <ele>626.953224</ele>
        <time>2021-11-20T10:57:15.952Z</time>
      </trkpt>
      <trkpt lat="47.622878" lon="7.929322">
        <ele>624.861530</ele>
        <time>2021-11-20T10:57:19.449Z</time>
      </trkpt>
      <trkpt lat="47.622967" lon="7.929237">
        <ele>624.270803</ele>
        <time>2021-11-20T10:57:20.471Z</time>
      </trkpt>
      <trkpt lat="47.622989" lon="7.929175">
        <ele>624.007234</ele>
        <time>2021-11-20T10:57:20.978Z</time>
      </trkpt>
      <trkpt lat="47.622990" lon="7.929067">
        <ele>623.600936</ele>
        <time>2021-11-20T10:57:21.587Z</time>
      </trkpt>
      <trkpt lat="47.622913" lon="7.928884">
        <ele>622.789426</ele>
        <time>2021-11-20T10:57:22.958Z</time>
      </trkpt>
      <trkpt lat="47.621861" lon="7.928723">
        <ele>613.229488</ele>
        <time>2021-11-20T10:57:32.220Z</time>
      </trkpt>
      <trkpt lat="47.620672" lon="7.928903">
        <ele>601.574534</ele>
        <time>2021-11-20T10:57:42.397Z</time>
      </trkpt>
      <trkpt lat="47.620569" lon="7.928919">
        <ele>600.549859</ele>
        <time>2021-11-20T10:57:43.258Z</time>
      </trkpt>
      <trkpt lat="47.619928" lon="7.929124">
        <ele>594.061986</ele>
        <time>2021-11-20T10:57:48.950Z</time>
      </trkpt>
      <trkpt lat="47.619604" lon="7.929315">
        <ele>590.612455</ele>
        <time>2021-11-20T10:57:51.962Z</time>
      </trkpt>
      <trkpt lat="47.619329" lon="7.929527">
        <ele>587.546127</ele>
        <time>2021-11-20T10:57:54.646Z</time>
      </trkpt>
      <trkpt lat="47.618921" lon="7.930073">
        <ele>583.190815</ele>
        <time>2021-11-20T10:57:59.439Z</time>
      </trkpt>
      <trkpt lat="47.618761" lon="7.930033">
        <ele>581.973933</ele>
        <time>2021-11-20T10:58:00.944Z</time>
      </trkpt>
      <trkpt lat="47.618733" lon="7.929945">
        <ele>581.481994</ele>
        <time>2021-11-20T10:58:01.534Z</time>
      </trkpt>
      <trkpt lat="47.618734" lon="7.929873">
        <ele>581.117934</ele>
        <time>2021-11-20T10:58:01.945Z</time>
      </trkpt>
      <trkpt lat="47.618861" lon="7.929607">
        <ele>579.470073</ele>
        <time>2021-11-20T10:58:04.014Z</time>
      </trkpt>
      <trkpt lat="47.618971" lon="7.929478">
        <ele>578.418474</ele>
        <time>2021-11-20T10:58:05.256Z</time>
      </trkpt>
      <trkpt lat="47.619053" lon="7.929381">
        <ele>577.631926</ele>
        <time>2021-11-20T10:58:06.260Z</time>
      </trkpt>
      <trkpt lat="47.620384" lon="7.928242">
        <ele>564.087417</ele>
        <time>2021-11-20T10:58:19.934Z</time>
      </trkpt>
      <trkpt lat="47.620796" lon="7.927816">
        <ele>559.230739</ele>
        <time>2021-11-20T10:58:24.206Z</time>
      </trkpt>
      <trkpt lat="47.620873" lon="7.927631">
        <ele>557.813408</ele>
        <time>2021-11-20T10:58:25.446Z</time>
      </trkpt>
      <trkpt lat="47.620930" lon="7.927423">
        <ele>556.349766</ele>
        <time>2021-11-20T10:58:26.708Z</time>
      </trkpt>
      <trkpt lat="47.620993" lon="7.927078">
        <ele>553.520842</ele>
        <time>2021-11-20T10:58:28.744Z</time>
      </trkpt>
      <trkpt lat="47.621010" lon="7.926916">
        <ele>552.133469</ele>
        <time>2021-11-20T10:58:29.673Z</time>
      </trkpt>
      <trkpt lat="47.621008" lon="7.926716">
        <ele>550.440866</ele>
        <time>2021-11-20T10:58:30.810Z</time>
      </trkpt>
      <trkpt lat="47.621092" lon="7.926230">
        <ele>546.195239</ele>
        <time>2021-11-20T10:58:33.653Z</time>
      </trkpt>
      <trkpt lat="47.621290" lon="7.925709">
        <ele>541.134014</ele>
        <time>2021-11-20T10:58:37.038Z</time>
      </trkpt>
      <trkpt lat="47.621339" lon="7.925596">
        <ele>539.997014</ele>
        <time>2021-11-20T10:58:37.790Z</time>
      </trkpt>
      <trkpt lat="47.621723" lon="7.924936">
        <ele>532.696113</ele>
        <time>2021-11-20T10:58:42.730Z</time>
      </trkpt>
      <trkpt lat="47.623053" lon="7.924259">
        <ele>517.797373</ele>
        <time>2021-11-20T10:58:54.833Z</time>
      </trkpt>
      <trkpt lat="47.623206" lon="7.923969">
        <ele>515.167266</ele>
        <time>2021-11-20T10:58:56.998Z</time>
      </trkpt>
      <trkpt lat="47.623246" lon="7.923768">
        <ele>513.637791</ele>
        <time>2021-11-20T10:58:58.195Z</time>
      </trkpt>
      <trkpt lat="47.623227" lon="7.922954">
        <ele>507.324555</ele>
        <time>2021-11-20T10:59:02.864Z</time>
      </trkpt>
      <trkpt lat="47.623251" lon="7.922713">
        <ele>505.436243</ele>
        <time>2021-11-20T10:59:04.241Z</time>
      </trkpt>
      <trkpt lat="47.623298" lon="7.922501">
        <ele>503.706384</ele>
        <time>2021-11-20T10:59:05.524Z</time>
      </trkpt>
      <trkpt lat="47.623564" lon="7.921962">
        <ele>498.528317</ele>
        <time>2021-11-20T10:59:09.332Z</time>
      </trkpt>
      <trkpt lat="47.623626" lon="7.921633">
        <ele>495.880395</ele>
        <time>2021-11-20T10:59:11.292Z</time>
      </trkpt>
      <trkpt lat="47.623611" lon="7.921528">
        <ele>495.048448</ele>
        <time>2021-11-20T10:59:11.894Z</time>
      </trkpt>
      <trkpt lat="47.623588" lon="7.921368">
        <ele>493.780376</ele>
        <time>2021-11-20T10:59:12.828Z</time>
      </trkpt>
      <trkpt lat="47.623561" lon="7.920975">
        <ele>490.960633</ele>
        <time>2021-11-20T10:59:15.084Z</time>
      </trkpt>
      <trkpt lat="47.623430" lon="7.919875">
        <ele>483.093433</ele>
        <time>2021-11-20T10:59:21.550Z</time>
      </trkpt>
      <trkpt lat="47.623255" lon="7.919315">
        <ele>478.746090</ele>
        <time>2021-11-20T10:59:25.124Z</time>
      </trkpt>
      <trkpt lat="47.623010" lon="7.918947">
        <ele>475.103067</ele>
        <time>2021-11-20T10:59:28.107Z</time>
      </trkpt>
      <trkpt lat="47.622446" lon="7.918652">
        <ele>469.237263</ele>
        <time>2021-11-20T10:59:33.328Z</time>
      </trkpt>
      <trkpt lat="47.622366" lon="7.918470">
        <ele>467.809435</ele>
        <time>2021-11-20T10:59:34.582Z</time>
      </trkpt>
      <trkpt lat="47.622381" lon="7.918164">
        <ele>465.793308</ele>
        <time>2021-11-20T10:59:36.392Z</time>
      </trkpt>
      <trkpt lat="47.622424" lon="7.918069">
        <ele>465.041331</ele>
        <time>2021-11-20T10:59:37.049Z</time>
      </trkpt>
      <trkpt lat="47.622587" lon="7.917873">
        <ele>462.995770</ele>
        <time>2021-11-20T10:59:38.863Z</time>
      </trkpt>
      <trkpt lat="47.622656" lon="7.917625">
        <ele>461.232710</ele>
        <time>2021-11-20T10:59:40.425Z</time>
      </trkpt>
      <trkpt lat="47.622677" lon="7.917170">
        <ele>458.235786</ele>
        <time>2021-11-20T10:59:43.081Z</time>
      </trkpt>
      <trkpt lat="47.622647" lon="7.916647">
        <ele>454.742701</ele>
        <time>2021-11-20T10:59:46.117Z</time>
      </trkpt>
      <trkpt lat="47.622576" lon="7.916379">
        <ele>452.813569</ele>
        <time>2021-11-20T10:59:47.773Z</time>
      </trkpt>
      <trkpt lat="47.622393" lon="7.916077">
        <ele>450.092936</ele>
        <time>2021-11-20T10:59:50.108Z</time>
      </trkpt>
      <trkpt lat="47.621809" lon="7.915582">
        <ele>443.407780</ele>
        <time>2021-11-20T10:59:55.921Z</time>
      </trkpt>
      <trkpt lat="47.621530" lon="7.915222">
        <ele>439.732596</ele>
        <time>2021-11-20T10:59:59.127Z</time>
      </trkpt>
      <trkpt lat="47.621037" lon="7.914355">
        <ele>432.016976</ele>
        <time>2021-11-20T11:00:05.757Z</time>
      </trkpt>
      <trkpt lat="47.620869" lon="7.913635">
        <ele>426.827998</ele>
        <time>2021-11-20T11:00:10.120Z</time>
      </trkpt>
      <trkpt lat="47.620841" lon="7.913331">
        <ele>424.738396</ele>
        <time>2021-11-20T11:00:11.899Z</time>
      </trkpt>
      <trkpt lat="47.620822" lon="7.912670">
        <ele>420.351219</ele>
        <time>2021-11-20T11:00:15.728Z</time>
      </trkpt>
      <trkpt lat="47.620858" lon="7.912289">
        <ele>418.142527</ele>
        <time>2021-11-20T11:00:17.987Z</time>
      </trkpt>
      <trkpt lat="47.620910" lon="7.911951">
        <ele>416.152181</ele>
        <time>2021-11-20T11:00:20.002Z</time>
      </trkpt>
      <trkpt lat="47.620953" lon="7.911653">
        <ele>414.402615</ele>
        <time>2021-11-20T11:00:21.792Z</time>
      </trkpt>
      <trkpt lat="47.620946" lon="7.911321">
        <ele>412.495688</ele>
        <time>2021-11-20T11:00:23.763Z</time>
      </trkpt>
      <trkpt lat="47.620846" lon="7.911023">
        <ele>410.584590</ele>
        <time>2021-11-20T11:00:25.734Z</time>
      </trkpt>
      <trkpt lat="47.620625" lon="7.910808">
        <ele>408.333663</ele>
        <time>2021-11-20T11:00:28.064Z</time>
      </trkpt>
      <trkpt lat="47.620181" lon="7.910694">
        <ele>404.921465</ele>
        <time>2021-11-20T11:00:32.071Z</time>
      </trkpt>
      <trkpt lat="47.620162" lon="7.910587">
        <ele>404.516866</ele>
        <time>2021-11-20T11:00:32.739Z</time>
      </trkpt>
      <trkpt lat="47.620245" lon="7.910440">
        <ele>403.815687</ele>
        <time>2021-11-20T11:00:33.910Z</time>
      </trkpt>
      <trkpt lat="47.620712" lon="7.910483">
        <ele>401.277430</ele>
        <time>2021-11-20T11:00:38.365Z</time>
      </trkpt>
      <trkpt lat="47.621308" lon="7.910162">
        <ele>397.837791</ele>
        <time>2021-11-20T11:00:44.419Z</time>
      </trkpt>
      <trkpt lat="47.621461" lon="7.910146">
        <ele>397.005737</ele>
        <time>2021-11-20T11:00:45.831Z</time>
      </trkpt>
      <trkpt lat="47.622368" lon="7.910396">
        <ele>392.422867</ele>
        <time>2021-11-20T11:00:54.529Z</time>
      </trkpt>
      <trkpt lat="47.622666" lon="7.910254">
        <ele>390.908047</ele>
        <time>2021-11-20T11:00:57.544Z</time>
      </trkpt>
      <trkpt lat="47.622755" lon="7.910176">
        <ele>390.407769</ele>
        <time>2021-11-20T11:00:58.495Z</time>
      </trkpt>
      <trkpt lat="47.622850" lon="7.910055">
        <ele>389.801803</ele>
        <time>2021-11-20T11:00:59.708Z</time>
      </trkpt>
      <trkpt lat="47.623414" lon="7.909173">
        <ele>385.578267</ele>
        <time>2021-11-20T11:01:07.552Z</time>
      </trkpt>
      <trkpt lat="47.623851" lon="7.909030">
        <ele>383.005245</ele>
        <time>2021-11-20T11:01:11.724Z</time>
      </trkpt>
      <trkpt lat="47.624367" lon="7.909092">
        <ele>380.028668</ele>
        <time>2021-11-20T11:01:16.643Z</time>
      </trkpt>
      <trkpt lat="47.624823" lon="7.909229">
        <ele>377.353575</ele>
        <time>2021-11-20T11:01:20.855Z</time>
      </trkpt>
      <trkpt lat="47.624962" lon="7.909272">
        <ele>376.341613</ele>
        <time>2021-11-20T11:01:22.085Z</time>
      </trkpt>
      <trkpt lat="47.625366" lon="7.909623">
        <ele>372.039820</ele>
        <time>2021-11-20T11:01:26.204Z</time>
      </trkpt>
      <trkpt lat="47.625586" lon="7.909712">
        <ele>369.944535</ele>
        <time>2021-11-20T11:01:28.191Z</time>
      </trkpt>
      <trkpt lat="47.625630" lon="7.909700">
        <ele>369.533463</ele>
        <time>2021-11-20T11:01:28.563Z</time>
      </trkpt>
      <trkpt lat="47.625660" lon="7.909693">
        <ele>369.254417</ele>
        <time>2021-11-20T11:01:28.819Z</time>
      </trkpt>
      <trkpt lat="47.625738" lon="7.909657">
        <ele>368.503832</ele>
        <time>2021-11-20T11:01:29.566Z</time>
      </trkpt>
      <trkpt lat="47.625820" lon="7.909530">
        <ele>367.414668</ele>
        <time>2021-11-20T11:01:30.602Z</time>
      </trkpt>
      <trkpt lat="47.625875" lon="7.909372">
        <ele>366.313395</ele>
        <time>2021-11-20T11:01:31.608Z</time>
      </trkpt>
      <trkpt lat="47.626074" lon="7.908682">
        <ele>361.665551</ele>
        <time>2021-11-20T11:01:35.977Z</time>
      </trkpt>
      <trkpt lat="47.626373" lon="7.908242">
        <ele>358.649623</ele>
        <time>2021-11-20T11:01:39.609Z</time>
      </trkpt>
      <trkpt lat="47.626436" lon="7.907974">
        <ele>357.482326</ele>
        <time>2021-11-20T11:01:41.236Z</time>
      </trkpt>
      <trkpt lat="47.626446" lon="7.907798">
        <ele>356.755942</ele>
        <time>2021-11-20T11:01:42.318Z</time>
      </trkpt>
      <trkpt lat="47.626442" lon="7.907543">
        <ele>355.706946</ele>
        <time>2021-11-20T11:01:43.807Z</time>
      </trkpt>
      <trkpt lat="47.626436" lon="7.907187">
        <ele>354.242404</ele>
        <time>2021-11-20T11:01:46.037Z</time>
      </trkpt>
      <trkpt lat="47.626436" lon="7.907061">
        <ele>353.724216</ele>
        <time>2021-11-20T11:01:46.861Z</time>
      </trkpt>
      <trkpt lat="47.626436" lon="7.906623">
        <ele>351.922899</ele>
        <time>2021-11-20T11:01:49.726Z</time>
      </trkpt>
      <trkpt lat="47.626439" lon="7.906299">
        <ele>350.590292</ele>
        <time>2021-11-20T11:01:51.880Z</time>
      </trkpt>
      <trkpt lat="47.626443" lon="7.905945">
        <ele>349.371114</ele>
        <time>2021-11-20T11:01:54.432Z</time>
      </trkpt>
      <trkpt lat="47.626460" lon="7.905124">
        <ele>349.512634</ele>
        <time>2021-11-20T11:02:01.338Z</time>
      </trkpt>
      <trkpt lat="47.626440" lon="7.905007">
        <ele>349.533431</ele>
        <time>2021-11-20T11:02:03.135Z</time>
      </trkpt>
      <trkpt lat="47.626399" lon="7.904961">
        <ele>349.546571</ele>
        <time>2021-11-20T11:02:03.935Z</time>
      </trkpt>
      <trkpt lat="47.626221" lon="7.904920">
        <ele>349.592621</ele>
        <time>2021-11-20T11:02:06.967Z</time>
      </trkpt>
      <trkpt lat="47.626086" lon="7.904879">
        <ele>349.627848</ele>
        <time>2021-11-20T11:02:10.155Z</time>
      </trkpt>
      <trkpt lat="47.625742" lon="7.904774">
        <ele>349.717631</ele>
        <time>2021-11-20T11:02:17.779Z</time>
      </trkpt>
      <trkpt lat="47.625516" lon="7.904701">
        <ele>349.776760</ele>
        <time>2021-11-20T11:02:22.411Z</time>
      </trkpt>
      <trkpt lat="47.625088" lon="7.904563">
        <ele>349.887056</ele>
        <time>2021-11-20T11:02:31.734Z</time>
      </trkpt>
      <trkpt lat="47.624956" lon="7.904522">
        <ele>349.920676</ele>
        <time>2021-11-20T11:02:34.490Z</time>
      </trkpt>
      <trkpt lat="47.624761" lon="7.904481">
        <ele>349.969773</ele>
        <time>2021-11-20T11:02:37.661Z</time>
      </trkpt>
      <trkpt lat="47.624565" lon="7.904455">
        <ele>350.018829</ele>
        <time>2021-11-20T11:02:40.720Z</time>
      </trkpt>
      <trkpt lat="47.624472" lon="7.904367">
        <ele>350.046327</ele>
        <time>2021-11-20T11:02:42.406Z</time>
      </trkpt>
      <trkpt lat="47.624451" lon="7.904332">
        <ele>350.054200</ele>
        <time>2021-11-20T11:02:42.927Z</time>
      </trkpt>
      <trkpt lat="47.624399" lon="7.904386">
        <ele>350.070023</ele>
        <time>2021-11-20T11:02:43.845Z</time>
      </trkpt>
      <trkpt lat="47.624263" lon="7.904484">
        <ele>350.107714</ele>
        <time>2021-11-20T11:02:46.067Z</time>
      </trkpt>
      <trkpt lat="47.624120" lon="7.904530">
        <ele>350.144191</ele>
        <time>2021-11-20T11:02:48.239Z</time>
      </trkpt>
      <trkpt lat="47.623650" lon="7.904642">
        <ele>350.262860</ele>
        <time>2021-11-20T11:02:54.517Z</time>
      </trkpt>
      <trkpt lat="47.622648" lon="7.904863">
        <ele>349.032362</ele>
        <time>2021-11-20T11:03:06.927Z</time>
      </trkpt>
      <trkpt lat="47.622424" lon="7.904919">
        <ele>348.747054</ele>
        <time>2021-11-20T11:03:09.534Z</time>
      </trkpt>
      <trkpt lat="47.622235" lon="7.904957">
        <ele>348.507503</ele>
        <time>2021-11-20T11:03:11.696Z</time>
      </trkpt>
      <trkpt lat="47.621248" lon="7.905159">
        <ele>346.687328</ele>
        <time>2021-11-20T11:03:22.807Z</time>
      </trkpt>
      <trkpt lat="47.621107" lon="7.905191">
        <ele>346.373138</ele>
        <time>2021-11-20T11:03:24.374Z</time>
      </trkpt>
      <trkpt lat="47.620699" lon="7.905223">
        <ele>345.473194</ele>
        <time>2021-11-20T11:03:28.802Z</time>
      </trkpt>
      <trkpt lat="47.620426" lon="7.905244">
        <ele>344.871058</ele>
        <time>2021-11-20T11:03:31.766Z</time>
      </trkpt>
      <trkpt lat="47.619447" lon="7.905300">
        <ele>342.053918</ele>
        <time>2021-11-20T11:03:41.895Z</time>
      </trkpt>
      <trkpt lat="47.619299" lon="7.905308">
        <ele>341.566751</ele>
        <time>2021-11-20T11:03:43.296Z</time>
      </trkpt>
      <trkpt lat="47.619155" lon="7.905319">
        <ele>341.092438</ele>
        <time>2021-11-20T11:03:44.877Z</time>
      </trkpt>
      <trkpt lat="47.618976" lon="7.905535">
        <ele>340.333433</ele>
        <time>2021-11-20T11:03:47.116Z</time>
      </trkpt>
      <trkpt lat="47.618920" lon="7.906208">
        <ele>338.829860</ele>
        <time>2021-11-20T11:03:51.813Z</time>
      </trkpt>
      <trkpt lat="47.618888" lon="7.906392">
        <ele>338.408515</ele>
        <time>2021-11-20T11:03:53.065Z</time>
      </trkpt>
      <trkpt lat="47.618867" lon="7.906514">
        <ele>338.129600</ele>
        <time>2021-11-20T11:03:53.849Z</time>
      </trkpt>
      <trkpt lat="47.618719" lon="7.906838">
        <ele>337.343137</ele>
        <time>2021-11-20T11:03:56.566Z</time>
      </trkpt>
      <trkpt lat="47.618579" lon="7.906988">
        <ele>336.828326</ele>
        <time>2021-11-20T11:03:58.228Z</time>
      </trkpt>
      <trkpt lat="47.618470" lon="7.907083">
        <ele>336.451464</ele>
        <time>2021-11-20T11:03:59.532Z</time>
      </trkpt>
      <trkpt lat="47.618351" lon="7.907130">
        <ele>336.084360</ele>
        <time>2021-11-20T11:04:00.720Z</time>
      </trkpt>
      <trkpt lat="47.618275" lon="7.907160">
        <ele>335.849916</ele>
        <time>2021-11-20T11:04:01.536Z</time>
      </trkpt>
      <trkpt lat="47.617957" lon="7.907285">
        <ele>334.869224</ele>
        <time>2021-11-20T11:04:04.844Z</time>
      </trkpt>
      <trkpt lat="47.617238" lon="7.908130">
        <ele>332.496845</ele>
        <time>2021-11-20T11:04:14.676Z</time>
      </trkpt>
      <trkpt lat="47.617086" lon="7.908230">
        <ele>332.283520</ele>
        <time>2021-11-20T11:04:16.550Z</time>
      </trkpt>
      <trkpt lat="47.616832" lon="7.908284">
        <ele>331.954320</ele>
        <time>2021-11-20T11:04:19.449Z</time>
      </trkpt>
      <trkpt lat="47.616604" lon="7.908203">
        <ele>331.653535</ele>
        <time>2021-11-20T11:04:22.082Z</time>
      </trkpt>
      <trkpt lat="47.616124" lon="7.907729">
        <ele>330.913756</ele>
        <time>2021-11-20T11:04:28.902Z</time>
      </trkpt>
      <trkpt lat="47.616009" lon="7.907686">
        <ele>330.761602</ele>
        <time>2021-11-20T11:04:30.466Z</time>
      </trkpt>
      <trkpt lat="47.615946" lon="7.907692">
        <ele>330.680609</ele>
        <time>2021-11-20T11:04:31.233Z</time>
      </trkpt>
      <trkpt lat="47.615821" lon="7.907747">
        <ele>330.513335</ele>
        <time>2021-11-20T11:04:33.311Z</time>
      </trkpt>
      <trkpt lat="47.615669" lon="7.907870">
        <ele>330.536437</ele>
        <time>2021-11-20T11:04:35.990Z</time>
      </trkpt>
      <trkpt lat="47.615460" lon="7.908111">
        <ele>330.682085</ele>
        <time>2021-11-20T11:04:40.362Z</time>
      </trkpt>
      <trkpt lat="47.615374" lon="7.908222">
        <ele>330.744806</ele>
        <time>2021-11-20T11:04:42.280Z</time>
      </trkpt>
      <trkpt lat="47.615246" lon="7.908385">
        <ele>330.837622</ele>
        <time>2021-11-20T11:04:45.304Z</time>
      </trkpt>
      <trkpt lat="47.615085" lon="7.908567">
        <ele>330.948994</ele>
        <time>2021-11-20T11:04:48.715Z</time>
      </trkpt>
      <trkpt lat="47.614876" lon="7.908760">
        <ele>331.084448</ele>
        <time>2021-11-20T11:04:53.033Z</time>
      </trkpt>
      <trkpt lat="47.614784" lon="7.908839">
        <ele>331.142936</ele>
        <time>2021-11-20T11:04:54.837Z</time>
      </trkpt>
      <trkpt lat="47.614412" lon="7.909095">
        <ele>331.368565</ele>
        <time>2021-11-20T11:05:02.108Z</time>
      </trkpt>
      <trkpt lat="47.614063" lon="7.909285">
        <ele>331.728203</ele>
        <time>2021-11-20T11:05:09.187Z</time>
      </trkpt>
      <trkpt lat="47.613934" lon="7.909339">
        <ele>331.896752</ele>
        <time>2021-11-20T11:05:11.764Z</time>
      </trkpt>
      <trkpt lat="47.613360" lon="7.909602">
        <ele>332.652188</ele>
        <time>2021-11-20T11:05:24.569Z</time>
      </trkpt>
      <trkpt lat="47.613280" lon="7.909624">
        <ele>332.754499</ele>
        <time>2021-11-20T11:05:26.256Z</time>
      </trkpt>
      <trkpt lat="47.612897" lon="7.909812">
        <ele>333.261794</ele>
        <time>2021-11-20T11:05:34.813Z</time>
      </trkpt>
      <trkpt lat="47.612216" lon="7.910134">
        <ele>333.865967</ele>
        <time>2021-11-20T11:05:47.824Z</time>
      </trkpt>
      <trkpt lat="47.612131" lon="7.910214">
        <ele>333.909005</ele>
        <time>2021-11-20T11:05:49.716Z</time>
      </trkpt>
      <trkpt lat="47.612082" lon="7.910269">
        <ele>333.935276</ele>
        <time>2021-11-20T11:05:50.795Z</time>
      </trkpt>
      <trkpt lat="47.612020" lon="7.910364">
        <ele>333.973385</ele>
        <time>2021-11-20T11:05:52.354Z</time>
      </trkpt>
      <trkpt lat="47.611986" lon="7.910466">
        <ele>334.006181</ele>
        <time>2021-11-20T11:05:53.624Z</time>
      </trkpt>
      <trkpt lat="47.611981" lon="7.910534">
        <ele>334.025896</ele>
        <time>2021-11-20T11:05:54.251Z</time>
      </trkpt>
      <trkpt lat="47.611988" lon="7.910610">
        <ele>334.048004</ele>
        <time>2021-11-20T11:05:55.209Z</time>
      </trkpt>
      <trkpt lat="47.611994" lon="7.910676">
        <ele>334.067198</ele>
        <time>2021-11-20T11:05:56.137Z</time>
      </trkpt>
      <trkpt lat="47.612005" lon="7.910790">
        <ele>334.100390</ele>
        <time>2021-11-20T11:05:57.401Z</time>
      </trkpt>
      <trkpt lat="47.612029" lon="7.910940">
        <ele>334.144824</ele>
        <time>2021-11-20T11:05:59.289Z</time>
      </trkpt>
      <trkpt lat="47.611260" lon="7.911383">
        <ele>334.451682</ele>
        <time>2021-11-20T11:06:12.394Z</time>
      </trkpt>
      <trkpt lat="47.610416" lon="7.911983">
        <ele>333.573122</ele>
        <time>2021-11-20T11:06:24.296Z</time>
      </trkpt>
      <trkpt lat="47.609914" lon="7.912278">
        <ele>333.066256</ele>
        <time>2021-11-20T11:06:30.508Z</time>
      </trkpt>
      <trkpt lat="47.608679" lon="7.912703">
        <ele>331.405449</ele>
        <time>2021-11-20T11:06:45.230Z</time>
      </trkpt>
      <trkpt lat="47.608143" lon="7.912964">
        <ele>330.604523</ele>
        <time>2021-11-20T11:06:51.802Z</time>
      </trkpt>
      <trkpt lat="47.607663" lon="7.913198">
        <ele>329.943242</ele>
        <time>2021-11-20T11:06:57.578Z</time>
      </trkpt>
      <trkpt lat="47.607292" lon="7.913435">
        <ele>329.460547</ele>
        <time>2021-11-20T11:07:02.276Z</time>
      </trkpt>
      <trkpt lat="47.606938" lon="7.913697">
        <ele>328.987795</ele>
        <time>2021-11-20T11:07:07.050Z</time>
      </trkpt>
      <trkpt lat="47.606706" lon="7.913869">
        <ele>328.677863</ele>
        <time>2021-11-20T11:07:10.234Z</time>
      </trkpt>
      <trkpt lat="47.606558" lon="7.913988">
        <ele>328.476696</ele>
        <time>2021-11-20T11:07:12.323Z</time>
      </trkpt>
      <trkpt lat="47.606450" lon="7.914067">
        <ele>328.332800</ele>
        <time>2021-11-20T11:07:13.820Z</time>
      </trkpt>
      <trkpt lat="47.606200" lon="7.914255">
        <ele>327.952474</ele>
        <time>2021-11-20T11:07:17.233Z</time>
      </trkpt>
      <trkpt lat="47.605929" lon="7.914457">
        <ele>327.415178</ele>
        <time>2021-11-20T11:07:20.916Z</time>
      </trkpt>
      <trkpt lat="47.605648" lon="7.914613">
        <ele>326.883655</ele>
        <time>2021-11-20T11:07:24.480Z</time>
      </trkpt>
      <trkpt lat="47.605408" lon="7.914750">
        <ele>326.428090</ele>
        <time>2021-11-20T11:07:27.431Z</time>
      </trkpt>
      <trkpt lat="47.605105" lon="7.914869">
        <ele>325.872822</ele>
        <time>2021-11-20T11:07:31.002Z</time>
      </trkpt>
      <trkpt lat="47.604722" lon="7.914915">
        <ele>325.192113</ele>
        <time>2021-11-20T11:07:35.173Z</time>
      </trkpt>
      <trkpt lat="47.604393" lon="7.914885">
        <ele>324.198351</ele>
        <time>2021-11-20T11:07:38.592Z</time>
      </trkpt>
      <trkpt lat="47.604062" lon="7.914772">
        <ele>322.767524</ele>
        <time>2021-11-20T11:07:41.981Z</time>
      </trkpt>
      <trkpt lat="47.603884" lon="7.914671">
        <ele>321.964681</ele>
        <time>2021-11-20T11:07:43.769Z</time>
      </trkpt>
      <trkpt lat="47.603615" lon="7.914449">
        <ele>320.667872</ele>
        <time>2021-11-20T11:07:46.717Z</time>
      </trkpt>
      <trkpt lat="47.603373" lon="7.914188">
        <ele>319.407378</ele>
        <time>2021-11-20T11:07:49.561Z</time>
      </trkpt>
      <trkpt lat="47.603038" lon="7.913754">
        <ele>317.533574</ele>
        <time>2021-11-20T11:07:53.752Z</time>
      </trkpt>
      <trkpt lat="47.602861" lon="7.913538">
        <ele>316.617871</ele>
        <time>2021-11-20T11:07:55.956Z</time>
      </trkpt>
      <trkpt lat="47.602742" lon="7.913448">
        <ele>316.092062</ele>
        <time>2021-11-20T11:07:57.192Z</time>
      </trkpt>
      <trkpt lat="47.602118" lon="7.913280">
        <ele>313.595671</ele>
        <time>2021-11-20T11:08:03.248Z</time>
      </trkpt>
      <trkpt lat="47.600086" lon="7.913316">
        <ele>307.078243</ele>
        <time>2021-11-20T11:08:24.060Z</time>
      </trkpt>
      <trkpt lat="47.599361" lon="7.913211">
        <ele>305.224561</ele>
        <time>2021-11-20T11:08:31.910Z</time>
      </trkpt>
      <trkpt lat="47.598263" lon="7.912768">
        <ele>303.195689</ele>
        <time>2021-11-20T11:08:44.546Z</time>
      </trkpt>
      <trkpt lat="47.597324" lon="7.912182">
        <ele>301.656718</ele>
        <time>2021-11-20T11:08:56.354Z</time>
      </trkpt>
      <trkpt lat="47.596928" lon="7.912047">
        <ele>301.172271</ele>
        <time>2021-11-20T11:09:01.179Z</time>
      </trkpt>
      <trkpt lat="47.596657" lon="7.912027">
        <ele>300.848770</ele>
        <time>2021-11-20T11:09:04.450Z</time>
      </trkpt>
      <trkpt lat="47.596383" lon="7.912050">
        <ele>300.521570</ele>
        <time>2021-11-20T11:09:07.778Z</time>
      </trkpt>
      <trkpt lat="47.595919" lon="7.912182">
        <ele>300.029295</ele>
        <time>2021-11-20T11:09:13.598Z</time>
      </trkpt>
      <trkpt lat="47.595049" lon="7.912419">
        <ele>299.631729</ele>
        <time>2021-11-20T11:09:24.884Z</time>
      </trkpt>
      <trkpt lat="47.594246" lon="7.912426">
        <ele>299.270813</ele>
        <time>2021-11-20T11:09:36.007Z</time>
      </trkpt>
      <trkpt lat="47.593192" lon="7.912179">
        <ele>299.860794</ele>
        <time>2021-11-20T11:09:53.894Z</time>
      </trkpt>
      <trkpt lat="47.592198" lon="7.912030">
        <ele>300.214261</ele>
        <time>2021-11-20T11:10:12.812Z</time>
      </trkpt>
      <trkpt lat="47.591524" lon="7.911777">
        <ele>300.019606</ele>
        <time>2021-11-20T11:10:24.109Z</time>
      </trkpt>
      <trkpt lat="47.591361" lon="7.911643">
        <ele>299.967426</ele>
        <time>2021-11-20T11:10:27.471Z</time>
      </trkpt>
      <trkpt lat="47.591227" lon="7.911486">
        <ele>299.919611</ele>
        <time>2021-11-20T11:10:29.445Z</time>
      </trkpt>
      <trkpt lat="47.590486" lon="7.910371">
        <ele>298.529356</ele>
        <time>2021-11-20T11:10:41.186Z</time>
      </trkpt>
      <trkpt lat="47.590199" lon="7.910097">
        <ele>297.768364</ele>
        <time>2021-11-20T11:10:44.776Z</time>
      </trkpt>
      <trkpt lat="47.589984" lon="7.909953">
        <ele>297.242415</ele>
        <time>2021-11-20T11:10:47.194Z</time>
      </trkpt>
      <trkpt lat="47.589846" lon="7.909880">
        <ele>296.915767</ele>
        <time>2021-11-20T11:10:48.747Z</time>
      </trkpt>
      <trkpt lat="47.589453" lon="7.909790">
        <ele>296.029232</ele>
        <time>2021-11-20T11:10:52.953Z</time>
      </trkpt>
      <trkpt lat="47.589186" lon="7.909798">
        <ele>295.559953</ele>
        <time>2021-11-20T11:10:55.861Z</time>
      </trkpt>
      <trkpt lat="47.589186" lon="7.909798">
        <ele>295.559953</ele>
        <time>2021-11-20T11:10:55.865Z</time>
      </trkpt>
      <trkpt lat="47.588985" lon="7.909827">
        <ele>295.277917</ele>
        <time>2021-11-20T11:10:58.062Z</time>
      </trkpt>
      <trkpt lat="47.587926" lon="7.910125">
        <ele>293.772550</ele>
        <time>2021-11-20T11:11:10.713Z</time>
      </trkpt>
      <trkpt lat="47.587479" lon="7.910228">
        <ele>293.168443</ele>
        <time>2021-11-20T11:11:16.719Z</time>
      </trkpt>
      <trkpt lat="47.587167" lon="7.910236">
        <ele>292.834199</ele>
        <time>2021-11-20T11:11:20.833Z</time>
      </trkpt>
      <trkpt lat="47.586813" lon="7.910134">
        <ele>292.447923</ele>
        <time>2021-11-20T11:11:25.266Z</time>
      </trkpt>
      <trkpt lat="47.586540" lon="7.909941">
        <ele>292.123962</ele>
        <time>2021-11-20T11:11:28.875Z</time>
      </trkpt>
      <trkpt lat="47.586265" lon="7.909589">
        <ele>291.734812</ele>
        <time>2021-11-20T11:11:33.051Z</time>
      </trkpt>
      <trkpt lat="47.586062" lon="7.909215">
        <ele>291.387986</ele>
        <time>2021-11-20T11:11:37.004Z</time>
      </trkpt>
      <trkpt lat="47.585956" lon="7.908983">
        <ele>291.114506</ele>
        <time>2021-11-20T11:11:39.143Z</time>
      </trkpt>
      <trkpt lat="47.585899" lon="7.908777">
        <ele>290.876087</ele>
        <time>2021-11-20T11:11:41.086Z</time>
      </trkpt>
      <trkpt lat="47.585750" lon="7.908439">
        <ele>290.443720</ele>
        <time>2021-11-20T11:11:44.147Z</time>
      </trkpt>
      <trkpt lat="47.585760" lon="7.908367">
        <ele>290.365006</ele>
        <time>2021-11-20T11:11:44.805Z</time>
      </trkpt>
      <trkpt lat="47.585751" lon="7.908295">
        <ele>290.286598</ele>
        <time>2021-11-20T11:11:45.636Z</time>
      </trkpt>
      <trkpt lat="47.585729" lon="7.908244">
        <ele>290.221775</ele>
        <time>2021-11-20T11:11:46.084Z</time>
      </trkpt>
      <trkpt lat="47.585696" lon="7.908207">
        <ele>290.156092</ele>
        <time>2021-11-20T11:11:46.570Z</time>
      </trkpt>
      <trkpt lat="47.585658" lon="7.908188">
        <ele>290.092427</ele>
        <time>2021-11-20T11:11:47.015Z</time>
      </trkpt>
      <trkpt lat="47.585629" lon="7.908186">
        <ele>290.046338</ele>
        <time>2021-11-20T11:11:47.317Z</time>
      </trkpt>
      <trkpt lat="47.585601" lon="7.908195">
        <ele>290.000854</ele>
        <time>2021-11-20T11:11:47.654Z</time>
      </trkpt>
      <trkpt lat="47.585575" lon="7.908213">
        <ele>289.955299</ele>
        <time>2021-11-20T11:11:47.957Z</time>
      </trkpt>
      <trkpt lat="47.585551" lon="7.908241">
        <ele>289.906816</ele>
        <time>2021-11-20T11:11:48.312Z</time>
      </trkpt>
      <trkpt lat="47.585532" lon="7.908279">
        <ele>289.856166</ele>
        <time>2021-11-20T11:11:48.696Z</time>
      </trkpt>
      <trkpt lat="47.585521" lon="7.908321">
        <ele>289.807922</ele>
        <time>2021-11-20T11:11:49.082Z</time>
      </trkpt>
      <trkpt lat="47.585517" lon="7.908375">
        <ele>289.749752</ele>
        <time>2021-11-20T11:11:49.633Z</time>
      </trkpt>
      <trkpt lat="47.585525" lon="7.908428">
        <ele>289.691596</ele>
        <time>2021-11-20T11:11:50.095Z</time>
      </trkpt>
      <trkpt lat="47.585502" lon="7.908551">
        <ele>289.554922</ele>
        <time>2021-11-20T11:11:51.436Z</time>
      </trkpt>
      <trkpt lat="47.585467" lon="7.908664">
        <ele>289.421776</ele>
        <time>2021-11-20T11:11:52.723Z</time>
      </trkpt>
      <trkpt lat="47.585435" lon="7.908792">
        <ele>289.275604</ele>
        <time>2021-11-20T11:11:54.182Z</time>
      </trkpt>
      <trkpt lat="47.585427" lon="7.908874">
        <ele>289.186886</ele>
        <time>2021-11-20T11:11:55.171Z</time>
      </trkpt>
      <trkpt lat="47.585419" lon="7.908887">
        <ele>289.168042</ele>
        <time>2021-11-20T11:11:55.455Z</time>
      </trkpt>
      <trkpt lat="47.585337" lon="7.909031">
        <ele>288.966245</ele>
        <time>2021-11-20T11:11:57.427Z</time>
      </trkpt>
      <trkpt lat="47.585222" lon="7.908901">
        <ele>288.736662</ele>
        <time>2021-11-20T11:11:58.939Z</time>
      </trkpt>
      <trkpt lat="47.585149" lon="7.908804">
        <ele>288.581038</ele>
        <time>2021-11-20T11:12:00.132Z</time>
      </trkpt>
      <trkpt lat="47.585084" lon="7.908692">
        <ele>288.413339</ele>
        <time>2021-11-20T11:12:01.198Z</time>
      </trkpt>
      <trkpt lat="47.584719" lon="7.908091">
        <ele>287.396953</ele>
        <time>2021-11-20T11:12:07.113Z</time>
      </trkpt>
      <trkpt lat="47.583887" lon="7.907113">
        <ele>285.418559</ele>
        <time>2021-11-20T11:12:18.963Z</time>
      </trkpt>
      <trkpt lat="47.583711" lon="7.906911">
        <ele>285.101717</ele>
        <time>2021-11-20T11:12:21.424Z</time>
      </trkpt>
      <trkpt lat="47.583451" lon="7.906619">
        <ele>284.980610</ele>
        <time>2021-11-20T11:12:25.194Z</time>
      </trkpt>
      <trkpt lat="47.583245" lon="7.906443">
        <ele>284.892332</ele>
        <time>2021-11-20T11:12:28.081Z</time>
      </trkpt>
      <trkpt lat="47.583077" lon="7.906399">
        <ele>284.828989</ele>
        <time>2021-11-20T11:12:30.090Z</time>
      </trkpt>
      <trkpt lat="47.582951" lon="7.906415">
        <ele>284.782034</ele>
        <time>2021-11-20T11:12:31.953Z</time>
      </trkpt>
      <trkpt lat="47.582657" lon="7.906618">
        <ele>284.661616</ele>
        <time>2021-11-20T11:12:36.645Z</time>
      </trkpt>
      <trkpt lat="47.582248" lon="7.907090">
        <ele>284.469171</ele>
        <time>2021-11-20T11:12:45.766Z</time>
      </trkpt>
      <trkpt lat="47.581793" lon="7.907472">
        <ele>284.983179</ele>
        <time>2021-11-20T11:12:56.085Z</time>
      </trkpt>
      <trkpt lat="47.581568" lon="7.907612">
        <ele>285.242737</ele>
        <time>2021-11-20T11:13:01.281Z</time>
      </trkpt>
      <trkpt lat="47.580552" lon="7.908081">
        <ele>286.371625</ele>
        <time>2021-11-20T11:13:21.685Z</time>
      </trkpt>
      <trkpt lat="47.580470" lon="7.908164">
        <ele>286.376734</ele>
        <time>2021-11-20T11:13:23.280Z</time>
      </trkpt>
      <trkpt lat="47.580422" lon="7.908273">
        <ele>286.381251</ele>
        <time>2021-11-20T11:13:25.213Z</time>
      </trkpt>
      <trkpt lat="47.580194" lon="7.908192">
        <ele>286.393313</ele>
        <time>2021-11-20T11:13:29.146Z</time>
      </trkpt>
      <trkpt lat="47.580105" lon="7.908168">
        <ele>286.397967</ele>
        <time>2021-11-20T11:13:30.695Z</time>
      </trkpt>
      <trkpt lat="47.579708" lon="7.908314">
        <ele>286.419010</ele>
        <time>2021-11-20T11:13:37.104Z</time>
      </trkpt>
      <trkpt lat="47.579056" lon="7.908962">
        <ele>286.459395</ele>
        <time>2021-11-20T11:13:47.711Z</time>
      </trkpt>
      <trkpt lat="47.578895" lon="7.909087">
        <ele>286.416989</ele>
        <time>2021-11-20T11:13:49.909Z</time>
      </trkpt>
      <trkpt lat="47.577771" lon="7.909710">
        <ele>285.804356</ele>
        <time>2021-11-20T11:14:05.511Z</time>
      </trkpt>
      <trkpt lat="47.577424" lon="7.909886">
        <ele>285.617120</ele>
        <time>2021-11-20T11:14:10.441Z</time>
      </trkpt>
      <trkpt lat="47.576932" lon="7.910134">
        <ele>285.551926</ele>
        <time>2021-11-20T11:14:17.736Z</time>
      </trkpt>
      <trkpt lat="47.575854" lon="7.910743">
        <ele>285.570687</ele>
        <time>2021-11-20T11:14:34.969Z</time>
      </trkpt>
      <trkpt lat="47.575539" lon="7.910898">
        <ele>285.613094</ele>
        <time>2021-11-20T11:14:40.361Z</time>
      </trkpt>
      <trkpt lat="47.575508" lon="7.910912">
        <ele>285.631586</ele>
        <time>2021-11-20T11:14:40.831Z</time>
      </trkpt>
      <trkpt lat="47.574901" lon="7.911251">
        <ele>286.001728</ele>
        <time>2021-11-20T11:14:51.697Z</time>
      </trkpt>
      <trkpt lat="47.574566" lon="7.911447">
        <ele>286.207242</ele>
        <time>2021-11-20T11:14:57.887Z</time>
      </trkpt>
      <trkpt lat="47.573998" lon="7.911915">
        <ele>286.578068</ele>
        <time>2021-11-20T11:15:09.305Z</time>
      </trkpt>
      <trkpt lat="47.573759" lon="7.912034">
        <ele>286.731352</ele>
        <time>2021-11-20T11:15:13.995Z</time>
      </trkpt>
      <trkpt lat="47.572921" lon="7.912369">
        <ele>287.265296</ele>
        <time>2021-11-20T11:15:29.490Z</time>
      </trkpt>
      <trkpt lat="47.572843" lon="7.912399">
        <ele>287.314870</ele>
        <time>2021-11-20T11:15:31.094Z</time>
      </trkpt>
      <trkpt lat="47.572195" lon="7.912650">
        <ele>287.707467</ele>
        <time>2021-11-20T11:15:42.075Z</time>
      </trkpt>
      <trkpt lat="47.571842" lon="7.912780">
        <ele>287.702873</ele>
        <time>2021-11-20T11:15:47.710Z</time>
      </trkpt>
      <trkpt lat="47.571815" lon="7.912822">
        <ele>287.702378</ele>
        <time>2021-11-20T11:15:48.454Z</time>
      </trkpt>
      <trkpt lat="47.571801" lon="7.912878">
        <ele>287.701869</ele>
        <time>2021-11-20T11:15:49.073Z</time>
      </trkpt>
      <trkpt lat="47.571807" lon="7.913030">
        <ele>287.700572</ele>
        <time>2021-11-20T11:15:50.590Z</time>
      </trkpt>
      <trkpt lat="47.571638" lon="7.913041">
        <ele>287.698435</ele>
        <time>2021-11-20T11:15:52.972Z</time>
      </trkpt>
      <trkpt lat="47.569682" lon="7.913220">
        <ele>287.698268</ele>
        <time>2021-11-20T11:16:20.635Z</time>
      </trkpt>
      <trkpt lat="47.569155" lon="7.913298">
        <ele>287.705935</ele>
        <time>2021-11-20T11:16:28.806Z</time>
      </trkpt>
      <trkpt lat="47.568566" lon="7.913414">
        <ele>287.820386</ele>
        <time>2021-11-20T11:16:38.547Z</time>
      </trkpt>
      <trkpt lat="47.568301" lon="7.913554">
        <ele>287.952686</ele>
        <time>2021-11-20T11:16:43.323Z</time>
      </trkpt>
      <trkpt lat="47.567374" lon="7.914028">
        <ele>288.413834</ele>
        <time>2021-11-20T11:16:59.816Z</time>
      </trkpt>
      <trkpt lat="47.567335" lon="7.914048">
        <ele>288.433241</ele>
        <time>2021-11-20T11:17:00.672Z</time>
      </trkpt>
      <trkpt lat="47.566984" lon="7.914229">
        <ele>288.564698</ele>
        <time>2021-11-20T11:17:06.897Z</time>
      </trkpt>
      <trkpt lat="47.566601" lon="7.914411">
        <ele>288.593209</ele>
        <time>2021-11-20T11:17:13.361Z</time>
      </trkpt>
      <trkpt lat="47.566534" lon="7.914439">
        <ele>288.598144</ele>
        <time>2021-11-20T11:17:14.421Z</time>
      </trkpt>
      <trkpt lat="47.566489" lon="7.914461">
        <ele>288.601503</ele>
        <time>2021-11-20T11:17:15.130Z</time>
      </trkpt>
      <trkpt lat="47.566474" lon="7.914468">
        <ele>288.602617</ele>
        <time>2021-11-20T11:17:15.378Z</time>
      </trkpt>
      <trkpt lat="47.566250" lon="7.914580">
        <ele>288.619375</ele>
        <time>2021-11-20T11:17:19.074Z</time>
      </trkpt>
      <trkpt lat="47.566096" lon="7.914676">
        <ele>288.631218</ele>
        <time>2021-11-20T11:17:21.511Z</time>
      </trkpt>
      <trkpt lat="47.566025" lon="7.914720">
        <ele>288.636674</ele>
        <time>2021-11-20T11:17:22.614Z</time>
      </trkpt>
      <trkpt lat="47.565995" lon="7.914739">
        <ele>288.638986</ele>
        <time>2021-11-20T11:17:23.166Z</time>
      </trkpt>
      <trkpt lat="47.565830" lon="7.914880">
        <ele>288.652488</ele>
        <time>2021-11-20T11:17:25.901Z</time>
      </trkpt>
      <trkpt lat="47.565748" lon="7.914949">
        <ele>288.659172</ele>
        <time>2021-11-20T11:17:27.204Z</time>
      </trkpt>
      <trkpt lat="47.565672" lon="7.915025">
        <ele>288.665671</ele>
        <time>2021-11-20T11:17:28.479Z</time>
      </trkpt>
      <trkpt lat="47.565627" lon="7.915066">
        <ele>288.669416</ele>
        <time>2021-11-20T11:17:29.226Z</time>
      </trkpt>
      <trkpt lat="47.564899" lon="7.915798">
        <ele>288.566275</ele>
        <time>2021-11-20T11:17:41.518Z</time>
      </trkpt>
      <trkpt lat="47.564526" lon="7.916174">
        <ele>288.486285</ele>
        <time>2021-11-20T11:17:47.767Z</time>
      </trkpt>
      <trkpt lat="47.564500" lon="7.916200">
        <ele>288.480724</ele>
        <time>2021-11-20T11:17:48.204Z</time>
      </trkpt>
      <trkpt lat="47.564482" lon="7.916219">
        <ele>288.476805</ele>
        <time>2021-11-20T11:17:48.522Z</time>
      </trkpt>
      <trkpt lat="47.563485" lon="7.917258">
        <ele>288.801765</ele>
        <time>2021-11-20T11:18:06.282Z</time>
      </trkpt>
      <trkpt lat="47.563304" lon="7.917434">
        <ele>288.961396</ele>
        <time>2021-11-20T11:18:09.957Z</time>
      </trkpt>
      <trkpt lat="47.562783" lon="7.917983">
        <ele>289.432787</ele>
        <time>2021-11-20T11:18:22.145Z</time>
      </trkpt>
      <trkpt lat="47.562766" lon="7.918001">
        <ele>289.448193</ele>
        <time>2021-11-20T11:18:22.674Z</time>
      </trkpt>
      <trkpt lat="47.562491" lon="7.918206">
        <ele>289.675182</ele>
        <time>2021-11-20T11:18:28.990Z</time>
      </trkpt>
      <trkpt lat="47.562330" lon="7.918325">
        <ele>289.885916</ele>
        <time>2021-11-20T11:18:32.814Z</time>
      </trkpt>
      <trkpt lat="47.562192" lon="7.918413">
        <ele>290.071259</ele>
        <time>2021-11-20T11:18:35.902Z</time>
      </trkpt>
      <trkpt lat="47.562098" lon="7.918473">
        <ele>290.197526</ele>
        <time>2021-11-20T11:18:38.102Z</time>
      </trkpt>
      <trkpt lat="47.561792" lon="7.918633">
        <ele>290.597846</ele>
        <time>2021-11-20T11:18:44.814Z</time>
      </trkpt>
      <trkpt lat="47.561405" lon="7.918835">
        <ele>291.104036</ele>
        <time>2021-11-20T11:18:53.536Z</time>
      </trkpt>
      <trkpt lat="47.561244" lon="7.918902">
        <ele>291.310344</ele>
        <time>2021-11-20T11:18:57.055Z</time>
      </trkpt>
      <trkpt lat="47.558098" lon="7.920440">
        <ele>293.295749</ele>
        <time>2021-11-20T11:19:53.548Z</time>
      </trkpt>
      <trkpt lat="47.557147" lon="7.921064">
        <ele>293.583341</ele>
        <time>2021-11-20T11:20:09.194Z</time>
      </trkpt>
      <trkpt lat="47.556542" lon="7.921551">
        <ele>293.639322</ele>
        <time>2021-11-20T11:20:19.452Z</time>
      </trkpt>
      <trkpt lat="47.555272" lon="7.922934">
        <ele>293.834144</ele>
        <time>2021-11-20T11:20:43.494Z</time>
      </trkpt>
      <trkpt lat="47.554705" lon="7.923835">
        <ele>293.977187</ele>
        <time>2021-11-20T11:20:56.647Z</time>
      </trkpt>
      <trkpt lat="47.554226" lon="7.924713">
        <ele>294.060607</ele>
        <time>2021-11-20T11:21:08.459Z</time>
      </trkpt>
      <trkpt lat="47.553834" lon="7.925632">
        <ele>294.120780</ele>
        <time>2021-11-20T11:21:19.856Z</time>
      </trkpt>
      <trkpt lat="47.553539" lon="7.926451">
        <ele>294.136805</ele>
        <time>2021-11-20T11:21:29.225Z</time>
      </trkpt>
      <trkpt lat="47.553408" lon="7.926803">
        <ele>294.053735</ele>
        <time>2021-11-20T11:21:33.028Z</time>
      </trkpt>
      <trkpt lat="47.553381" lon="7.926895">
        <ele>294.033003</ele>
        <time>2021-11-20T11:21:33.964Z</time>
      </trkpt>
      <trkpt lat="47.553248" lon="7.927068">
        <ele>293.978811</ele>
        <time>2021-11-20T11:21:36.365Z</time>
      </trkpt>
      <trkpt lat="47.553139" lon="7.927147">
        <ele>293.941656</ele>
        <time>2021-11-20T11:21:38.032Z</time>
      </trkpt>
      <trkpt lat="47.553077" lon="7.927196">
        <ele>293.920140</ele>
        <time>2021-11-20T11:21:38.954Z</time>
      </trkpt>
      <trkpt lat="47.552729" lon="7.927061">
        <ele>293.809989</ele>
        <time>2021-11-20T11:21:43.709Z</time>
      </trkpt>
      <trkpt lat="47.552388" lon="7.926860">
        <ele>293.697615</ele>
        <time>2021-11-20T11:21:48.622Z</time>
      </trkpt>
      <trkpt lat="47.552250" lon="7.926787">
        <ele>293.652747</ele>
        <time>2021-11-20T11:21:50.631Z</time>
      </trkpt>
      <trkpt lat="47.551788" lon="7.926512">
        <ele>293.474372</ele>
        <time>2021-11-20T11:21:57.687Z</time>
      </trkpt>
      <trkpt lat="47.551676" lon="7.926477">
        <ele>293.431329</ele>
        <time>2021-11-20T11:21:59.166Z</time>
      </trkpt>
      <trkpt lat="47.551455" lon="7.926550">
        <ele>293.346184</ele>
        <time>2021-11-20T11:22:02.460Z</time>
      </trkpt>
      <trkpt lat="47.551423" lon="7.926561">
        <ele>293.333832</ele>
        <time>2021-11-20T11:22:02.918Z</time>
      </trkpt>
      <trkpt lat="47.551345" lon="7.926636">
        <ele>293.298865</ele>
        <time>2021-11-20T11:22:04.105Z</time>
      </trkpt>
      <trkpt lat="47.551300" lon="7.926708">
        <ele>293.273960</ele>
        <time>2021-11-20T11:22:05.044Z</time>
      </trkpt>
      <trkpt lat="47.551262" lon="7.926787">
        <ele>293.249339</ele>
        <time>2021-11-20T11:22:05.980Z</time>
      </trkpt>
      <trkpt lat="47.551236" lon="7.926890">
        <ele>293.221429</ele>
        <time>2021-11-20T11:22:07.082Z</time>
      </trkpt>
      <trkpt lat="47.551209" lon="7.927048">
        <ele>293.180064</ele>
        <time>2021-11-20T11:22:08.518Z</time>
      </trkpt>
      <trkpt lat="47.551183" lon="7.927256">
        <ele>293.126376</ele>
        <time>2021-11-20T11:22:10.476Z</time>
      </trkpt>
      <trkpt lat="47.551129" lon="7.927498">
        <ele>293.061687</ele>
        <time>2021-11-20T11:22:12.821Z</time>
      </trkpt>
      <trkpt lat="47.551096" lon="7.927696">
        <ele>293.009925</ele>
        <time>2021-11-20T11:22:14.564Z</time>
      </trkpt>
      <trkpt lat="47.551076" lon="7.927850">
        <ele>292.970122</ele>
        <time>2021-11-20T11:22:16.007Z</time>
      </trkpt>
      <trkpt lat="47.550669" lon="7.927757">
        <ele>292.457938</ele>
        <time>2021-11-20T11:22:21.478Z</time>
      </trkpt>
      <trkpt lat="47.550481" lon="7.927724">
        <ele>292.178786</ele>
        <time>2021-11-20T11:22:23.922Z</time>
      </trkpt>
      <trkpt lat="47.550381" lon="7.927709">
        <ele>292.030578</ele>
        <time>2021-11-20T11:22:25.101Z</time>
      </trkpt>
      <trkpt lat="47.550145" lon="7.927669">
        <ele>291.680318</ele>
        <time>2021-11-20T11:22:27.847Z</time>
      </trkpt>
      <trkpt lat="47.550041" lon="7.927651">
        <ele>291.525923</ele>
        <time>2021-11-20T11:22:29.064Z</time>
      </trkpt>
      <trkpt lat="47.549697" lon="7.927581">
        <ele>291.013921</ele>
        <time>2021-11-20T11:22:32.978Z</time>
      </trkpt>
      <trkpt lat="47.549059" lon="7.927444">
        <ele>290.006608</ele>
        <time>2021-11-20T11:22:39.860Z</time>
      </trkpt>
      <trkpt lat="47.548912" lon="7.927437">
        <ele>289.734344</ele>
        <time>2021-11-20T11:22:41.416Z</time>
      </trkpt>
      <trkpt lat="47.548777" lon="7.927430">
        <ele>289.484281</ele>
        <time>2021-11-20T11:22:42.805Z</time>
      </trkpt>
      <trkpt lat="47.548534" lon="7.927518">
        <ele>289.021200</ele>
        <time>2021-11-20T11:22:45.474Z</time>
      </trkpt>
      <trkpt lat="47.548298" lon="7.927820">
        <ele>288.443919</ele>
        <time>2021-11-20T11:22:49.099Z</time>
      </trkpt>
      <trkpt lat="47.548275" lon="7.927880">
        <ele>288.357702</ele>
        <time>2021-11-20T11:22:49.530Z</time>
      </trkpt>
      <trkpt lat="47.548228" lon="7.928033">
        <ele>288.147662</ele>
        <time>2021-11-20T11:22:50.851Z</time>
      </trkpt>
      <trkpt lat="47.548186" lon="7.928343">
        <ele>287.752593</ele>
        <time>2021-11-20T11:22:53.432Z</time>
      </trkpt>
      <trkpt lat="47.548190" lon="7.928694">
        <ele>287.313958</ele>
        <time>2021-11-20T11:22:56.118Z</time>
      </trkpt>
      <trkpt lat="47.548192" lon="7.928866">
        <ele>287.099014</ele>
        <time>2021-11-20T11:22:57.457Z</time>
      </trkpt>
      <trkpt lat="47.548226" lon="7.929841">
        <ele>286.472527</ele>
        <time>2021-11-20T11:23:05.422Z</time>
      </trkpt>
      <trkpt lat="47.548236" lon="7.930144">
        <ele>286.302387</ele>
        <time>2021-11-20T11:23:07.876Z</time>
      </trkpt>
      <trkpt lat="47.548241" lon="7.930335">
        <ele>286.195185</ele>
        <time>2021-11-20T11:23:09.729Z</time>
      </trkpt>
      <trkpt lat="47.548252" lon="7.930989">
        <ele>285.828277</ele>
        <time>2021-11-20T11:23:15.731Z</time>
      </trkpt>
      <trkpt lat="47.548144" lon="7.932614">
        <ele>284.981666</ele>
        <time>2021-11-20T11:23:29.791Z</time>
      </trkpt>
      <trkpt lat="47.547956" lon="7.933604">
        <ele>284.477576</ele>
        <time>2021-11-20T11:23:38.346Z</time>
      </trkpt>
      <trkpt lat="47.547663" lon="7.934665">
        <ele>284.029646</ele>
        <time>2021-11-20T11:23:48.397Z</time>
      </trkpt>
      <trkpt lat="47.547539" lon="7.935068">
        <ele>283.915885</ele>
        <time>2021-11-20T11:23:52.406Z</time>
      </trkpt>
      <trkpt lat="47.547523" lon="7.935115">
        <ele>283.902364</ele>
        <time>2021-11-20T11:23:52.898Z</time>
      </trkpt>
      <trkpt lat="47.547020" lon="7.936617">
        <ele>283.471688</ele>
        <time>2021-11-20T11:24:08.543Z</time>
      </trkpt>
      <trkpt lat="47.546895" lon="7.937196">
        <ele>283.476825</ele>
        <time>2021-11-20T11:24:14.408Z</time>
      </trkpt>
      <trkpt lat="47.546890" lon="7.937602">
        <ele>283.480968</ele>
        <time>2021-11-20T11:24:18.444Z</time>
      </trkpt>
      <trkpt lat="47.546915" lon="7.937800">
        <ele>283.483023</ele>
        <time>2021-11-20T11:24:20.315Z</time>
      </trkpt>
      <trkpt lat="47.546969" lon="7.938023">
        <ele>283.485440</ele>
        <time>2021-11-20T11:24:22.674Z</time>
      </trkpt>
      <trkpt lat="47.547044" lon="7.938237">
        <ele>283.487901</ele>
        <time>2021-11-20T11:24:25.178Z</time>
      </trkpt>
      <trkpt lat="47.547115" lon="7.938377">
        <ele>283.489687</ele>
        <time>2021-11-20T11:24:26.980Z</time>
      </trkpt>
      <trkpt lat="47.547174" lon="7.938475">
        <ele>283.491027</ele>
        <time>2021-11-20T11:24:28.337Z</time>
      </trkpt>
      <trkpt lat="47.547474" lon="7.938844">
        <ele>283.496921</ele>
        <time>2021-11-20T11:24:34.337Z</time>
      </trkpt>
      <trkpt lat="47.548085" lon="7.939422">
        <ele>283.920410</ele>
        <time>2021-11-20T11:24:46.020Z</time>
      </trkpt>
      <trkpt lat="47.548129" lon="7.939460">
        <ele>283.952851</ele>
        <time>2021-11-20T11:24:46.907Z</time>
      </trkpt>
      <trkpt lat="47.548150" lon="7.939478">
        <ele>283.968304</ele>
        <time>2021-11-20T11:24:47.327Z</time>
      </trkpt>
      <trkpt lat="47.548194" lon="7.939601">
        <ele>284.028154</ele>
        <time>2021-11-20T11:24:49.073Z</time>
      </trkpt>
      <trkpt lat="47.548314" lon="7.939849">
        <ele>284.159344</ele>
        <time>2021-11-20T11:24:52.497Z</time>
      </trkpt>
      <trkpt lat="47.548349" lon="7.940187">
        <ele>284.306361</ele>
        <time>2021-11-20T11:24:56.658Z</time>
      </trkpt>
      <trkpt lat="47.548195" lon="7.940950">
        <ele>284.651302</ele>
        <time>2021-11-20T11:25:06.786Z</time>
      </trkpt>
      <trkpt lat="47.547852" lon="7.942144">
        <ele>285.481529</ele>
        <time>2021-11-20T11:25:23.533Z</time>
      </trkpt>
      <trkpt lat="47.547772" lon="7.942416">
        <ele>285.671359</ele>
        <time>2021-11-20T11:25:27.391Z</time>
      </trkpt>
      <trkpt lat="47.547436" lon="7.943731">
        <ele>286.442753</ele>
        <time>2021-11-20T11:25:44.604Z</time>
      </trkpt>
      <trkpt lat="47.547414" lon="7.943800">
        <ele>286.463447</ele>
        <time>2021-11-20T11:25:45.596Z</time>
      </trkpt>
      <trkpt lat="47.547297" lon="7.944159">
        <ele>286.571555</ele>
        <time>2021-11-20T11:25:50.049Z</time>
      </trkpt>
      <trkpt lat="47.547246" lon="7.944330">
        <ele>286.622252</ele>
        <time>2021-11-20T11:25:52.279Z</time>
      </trkpt>
      <trkpt lat="47.547178" lon="7.944456">
        <ele>286.666000</ele>
        <time>2021-11-20T11:25:53.983Z</time>
      </trkpt>
      <trkpt lat="47.547164" lon="7.944724">
        <ele>286.738894</ele>
        <time>2021-11-20T11:26:06.598Z</time>
      </trkpt>
      <trkpt lat="47.547155" lon="7.944757">
        <ele>286.748546</ele>
        <time>2021-11-20T11:26:07.014Z</time>
      </trkpt>
      <trkpt lat="47.547020" lon="7.945146">
        <ele>286.867163</ele>
        <time>2021-11-20T11:26:11.353Z</time>
      </trkpt>
      <trkpt lat="47.546975" lon="7.945238">
        <ele>286.897973</ele>
        <time>2021-11-20T11:26:12.453Z</time>
      </trkpt>
      <trkpt lat="47.546915" lon="7.945468">
        <ele>286.964842</ele>
        <time>2021-11-20T11:26:14.688Z</time>
      </trkpt>
      <trkpt lat="47.546868" lon="7.945669">
        <ele>287.022528</ele>
        <time>2021-11-20T11:26:16.913Z</time>
      </trkpt>
      <trkpt lat="47.546859" lon="7.945706">
        <ele>287.033193</ele>
        <time>2021-11-20T11:26:17.368Z</time>
      </trkpt>
      <trkpt lat="47.546795" lon="7.946005">
        <ele>287.328968</ele>
        <time>2021-11-20T11:26:20.665Z</time>
      </trkpt>
      <trkpt lat="47.546735" lon="7.946282">
        <ele>287.760064</ele>
        <time>2021-11-20T11:26:24.336Z</time>
      </trkpt>
      <trkpt lat="47.546664" lon="7.946504">
        <ele>288.124099</ele>
        <time>2021-11-20T11:26:27.377Z</time>
      </trkpt>
      <trkpt lat="47.546655" lon="7.946544">
        <ele>288.186581</ele>
        <time>2021-11-20T11:26:27.942Z</time>
      </trkpt>
      <trkpt lat="47.546592" lon="7.946809">
        <ele>288.602923</ele>
        <time>2021-11-20T11:26:32.058Z</time>
      </trkpt>
      <trkpt lat="47.546633" lon="7.946946">
        <ele>288.824999</ele>
        <time>2021-11-20T11:26:34.240Z</time>
      </trkpt>
      <trkpt lat="47.546648" lon="7.947009">
        <ele>288.923995</ele>
        <time>2021-11-20T11:26:35.165Z</time>
      </trkpt>
      <trkpt lat="47.546651" lon="7.947115">
        <ele>289.081212</ele>
        <time>2021-11-20T11:26:36.888Z</time>
      </trkpt>
      <trkpt lat="47.546572" lon="7.947545">
        <ele>289.741600</ele>
        <time>2021-11-20T11:26:44.080Z</time>
      </trkpt>
      <trkpt lat="47.546159" lon="7.949303">
        <ele>293.443111</ele>
        <time>2021-11-20T11:27:22.288Z</time>
      </trkpt>
      <trkpt lat="47.545949" lon="7.950185">
        <ele>295.712095</ele>
        <time>2021-11-20T11:27:42.560Z</time>
      </trkpt>
      <trkpt lat="47.545884" lon="7.950363">
        <ele>296.203074</ele>
        <time>2021-11-20T11:27:46.492Z</time>
      </trkpt>
      <trkpt lat="47.545822" lon="7.950627">
        <ele>296.881209</ele>
        <time>2021-11-20T11:27:51.795Z</time>
      </trkpt>
      <trkpt lat="47.545810" lon="7.950694">
        <ele>297.049380</ele>
        <time>2021-11-20T11:27:53.026Z</time>
      </trkpt>
      <trkpt lat="47.545763" lon="7.950733">
        <ele>297.242997</ele>
        <time>2021-11-20T11:27:54.534Z</time>
      </trkpt>
      <trkpt lat="47.545659" lon="7.950771">
        <ele>297.514772</ele>
        <time>2021-11-20T11:27:56.955Z</time>
      </trkpt>
      <trkpt lat="47.545625" lon="7.950771">
        <ele>297.540621</ele>
        <time>2021-11-20T11:27:57.853Z</time>
      </trkpt>
      <trkpt lat="47.545567" lon="7.950765">
        <ele>297.584824</ele>
        <time>2021-11-20T11:27:59.266Z</time>
      </trkpt>
      <trkpt lat="47.545494" lon="7.950684">
        <ele>297.654164</ele>
        <time>2021-11-20T11:28:01.403Z</time>
      </trkpt>
      <trkpt lat="47.545434" lon="7.950668">
        <ele>297.700513</ele>
        <time>2021-11-20T11:28:02.882Z</time>
      </trkpt>
      <trkpt lat="47.545166" lon="7.950366">
        <ele>297.956507</ele>
        <time>2021-11-20T11:28:09.653Z</time>
      </trkpt>
      <trkpt lat="47.544901" lon="7.950044">
        <ele>298.217076</ele>
        <time>2021-11-20T11:28:15.289Z</time>
      </trkpt>
      <trkpt lat="47.544521" lon="7.949558">
        <ele>298.598742</ele>
        <time>2021-11-20T11:28:21.986Z</time>
      </trkpt>
      <trkpt lat="47.544239" lon="7.949202">
        <ele>298.897129</ele>
        <time>2021-11-20T11:28:26.948Z</time>
      </trkpt>
      <trkpt lat="47.543864" lon="7.948694">
        <ele>299.509322</ele>
        <time>2021-11-20T11:28:34.912Z</time>
      </trkpt>
      <trkpt lat="47.543760" lon="7.948548">
        <ele>299.681939</ele>
        <time>2021-11-20T11:28:37.154Z</time>
      </trkpt>
      <trkpt lat="47.543579" lon="7.948287">
        <ele>299.986247</ele>
        <time>2021-11-20T11:28:42.872Z</time>
      </trkpt>
      <trkpt lat="47.543532" lon="7.948214">
        <ele>300.068287</ele>
        <time>2021-11-20T11:28:43.998Z</time>
      </trkpt>
      <trkpt lat="47.543435" lon="7.948000">
        <ele>300.277917</ele>
        <time>2021-11-20T11:28:47.060Z</time>
      </trkpt>
      <trkpt lat="47.543407" lon="7.947938">
        <ele>300.338582</ele>
        <time>2021-11-20T11:28:48.917Z</time>
      </trkpt>
      <trkpt lat="47.543280" lon="7.947656">
        <ele>300.614273</ele>
        <time>2021-11-20T11:28:53.404Z</time>
      </trkpt>
      <trkpt lat="47.543142" lon="7.947250">
        <ele>300.983948</ele>
        <time>2021-11-20T11:29:00.868Z</time>
      </trkpt>
      <trkpt lat="47.543086" lon="7.947052">
        <ele>301.325850</ele>
        <time>2021-11-20T11:29:04.297Z</time>
      </trkpt>
      <trkpt lat="47.543056" lon="7.946935">
        <ele>301.549477</ele>
        <time>2021-11-20T11:29:07.139Z</time>
      </trkpt>
      <trkpt lat="47.543045" lon="7.946881">
        <ele>301.650261</ele>
        <time>2021-11-20T11:29:08.295Z</time>
      </trkpt>
      <trkpt lat="47.542982" lon="7.946547">
        <ele>302.269909</ele>
        <time>2021-11-20T11:29:13.695Z</time>
      </trkpt>
      <trkpt lat="47.542974" lon="7.946495">
        <ele>302.365204</ele>
        <time>2021-11-20T11:29:15.336Z</time>
      </trkpt>
      <trkpt lat="47.542960" lon="7.946400">
        <ele>302.538947</ele>
        <time>2021-11-20T11:29:17.401Z</time>
      </trkpt>
      <trkpt lat="47.542916" lon="7.945730">
        <ele>303.741749</ele>
        <time>2021-11-20T11:29:30.067Z</time>
      </trkpt>
      <trkpt lat="47.542913" lon="7.945267">
        <ele>304.569071</ele>
        <time>2021-11-20T11:29:38.562Z</time>
      </trkpt>
      <trkpt lat="47.543007" lon="7.943867">
        <ele>306.071500</ele>
        <time>2021-11-20T11:29:59.729Z</time>
      </trkpt>
      <trkpt lat="47.543161" lon="7.942213">
        <ele>306.739514</ele>
        <time>2021-11-20T11:30:18.135Z</time>
      </trkpt>
      <trkpt lat="47.543435" lon="7.940670">
        <ele>305.661311</ele>
        <time>2021-11-20T11:30:31.084Z</time>
      </trkpt>
      <trkpt lat="47.543826" lon="7.939433">
        <ele>304.434574</ele>
        <time>2021-11-20T11:30:41.485Z</time>
      </trkpt>
      <trkpt lat="47.544472" lon="7.937932">
        <ele>302.261199</ele>
        <time>2021-11-20T11:30:54.808Z</time>
      </trkpt>
      <trkpt lat="47.544705" lon="7.937395">
        <ele>301.481814</ele>
        <time>2021-11-20T11:30:59.648Z</time>
      </trkpt>
      <trkpt lat="47.544903" lon="7.936917">
        <ele>300.870673</ele>
        <time>2021-11-20T11:31:03.909Z</time>
      </trkpt>
      <trkpt lat="47.545074" lon="7.936484">
        <ele>300.364825</ele>
        <time>2021-11-20T11:31:07.739Z</time>
      </trkpt>
      <trkpt lat="47.545457" lon="7.935110">
        <ele>298.865881</ele>
        <time>2021-11-20T11:31:19.108Z</time>
      </trkpt>
      <trkpt lat="47.545674" lon="7.933625">
        <ele>298.628672</ele>
        <time>2021-11-20T11:31:32.188Z</time>
      </trkpt>
      <trkpt lat="47.545702" lon="7.933290">
        <ele>298.655876</ele>
        <time>2021-11-20T11:31:35.768Z</time>
      </trkpt>
      <trkpt lat="47.545724" lon="7.932758">
        <ele>298.698832</ele>
        <time>2021-11-20T11:31:42.035Z</time>
      </trkpt>
      <trkpt lat="47.545721" lon="7.931992">
        <ele>298.959316</ele>
        <time>2021-11-20T11:31:52.074Z</time>
      </trkpt>
      <trkpt lat="47.545696" lon="7.931497">
        <ele>299.611971</ele>
        <time>2021-11-20T11:31:59.280Z</time>
      </trkpt>
      <trkpt lat="47.545661" lon="7.930955">
        <ele>300.327857</ele>
        <time>2021-11-20T11:32:07.975Z</time>
      </trkpt>
      <trkpt lat="47.545563" lon="7.929641">
        <ele>302.066047</ele>
        <time>2021-11-20T11:32:30.315Z</time>
      </trkpt>
      <trkpt lat="47.545475" lon="7.928419">
        <ele>301.950019</ele>
        <time>2021-11-20T11:32:46.617Z</time>
      </trkpt>
      <trkpt lat="47.545421" lon="7.927686">
        <ele>301.745989</ele>
        <time>2021-11-20T11:32:52.721Z</time>
      </trkpt>
      <trkpt lat="47.545406" lon="7.927306">
        <ele>301.640662</ele>
        <time>2021-11-20T11:32:55.625Z</time>
      </trkpt>
      <trkpt lat="47.545407" lon="7.927001">
        <ele>301.556266</ele>
        <time>2021-11-20T11:32:57.911Z</time>
      </trkpt>
      <trkpt lat="47.545409" lon="7.926773">
        <ele>301.331440</ele>
        <time>2021-11-20T11:32:59.540Z</time>
      </trkpt>
      <trkpt lat="47.545417" lon="7.925848">
        <ele>299.068897</ele>
        <time>2021-11-20T11:33:05.875Z</time>
      </trkpt>
      <trkpt lat="47.545446" lon="7.925350">
        <ele>297.846369</ele>
        <time>2021-11-20T11:33:09.167Z</time>
      </trkpt>
      <trkpt lat="47.545466" lon="7.924880">
        <ele>296.694566</ele>
        <time>2021-11-20T11:33:12.221Z</time>
      </trkpt>
      <trkpt lat="47.545481" lon="7.924396">
        <ele>295.509557</ele>
        <time>2021-11-20T11:33:15.304Z</time>
      </trkpt>
      <trkpt lat="47.545521" lon="7.923709">
        <ele>294.220841</ele>
        <time>2021-11-20T11:33:19.829Z</time>
      </trkpt>
      <trkpt lat="47.545536" lon="7.923407">
        <ele>293.731243</ele>
        <time>2021-11-20T11:33:22.219Z</time>
      </trkpt>
      <trkpt lat="47.545553" lon="7.923142">
        <ele>293.300857</ele>
        <time>2021-11-20T11:33:23.940Z</time>
      </trkpt>
      <trkpt lat="47.545587" lon="7.922895">
        <ele>292.893285</ele>
        <time>2021-11-20T11:33:26.341Z</time>
      </trkpt>
      <trkpt lat="47.545641" lon="7.922610">
        <ele>292.414685</ele>
        <time>2021-11-20T11:33:28.340Z</time>
      </trkpt>
      <trkpt lat="47.545690" lon="7.922369">
        <ele>292.007741</ele>
        <time>2021-11-20T11:33:31.031Z</time>
      </trkpt>
      <trkpt lat="47.545699" lon="7.922325">
        <ele>291.933407</ele>
        <time>2021-11-20T11:33:31.292Z</time>
      </trkpt>
      <trkpt lat="47.545714" lon="7.922249">
        <ele>291.805385</ele>
        <time>2021-11-20T11:33:31.882Z</time>
      </trkpt>
      <trkpt lat="47.545778" lon="7.921947">
        <ele>291.293611</ele>
        <time>2021-11-20T11:33:35.038Z</time>
      </trkpt>
      <trkpt lat="47.545810" lon="7.921755">
        <ele>290.973861</ele>
        <time>2021-11-20T11:33:36.395Z</time>
      </trkpt>
      <trkpt lat="47.545881" lon="7.921096">
        <ele>290.514227</ele>
        <time>2021-11-20T11:33:41.744Z</time>
      </trkpt>
      <trkpt lat="47.545913" lon="7.920765">
        <ele>290.395540</ele>
        <time>2021-11-20T11:33:44.611Z</time>
      </trkpt>
      <trkpt lat="47.545973" lon="7.920313">
        <ele>290.232032</ele>
        <time>2021-11-20T11:33:49.758Z</time>
      </trkpt>
      <trkpt lat="47.546128" lon="7.919617">
        <ele>289.971891</ele>
        <time>2021-11-20T11:33:56.221Z</time>
      </trkpt>
      <trkpt lat="47.546262" lon="7.919081">
        <ele>289.769011</ele>
        <time>2021-11-20T11:34:02.220Z</time>
      </trkpt>
      <trkpt lat="47.546821" lon="7.916867">
        <ele>288.949282</ele>
        <time>2021-11-20T11:34:22.973Z</time>
      </trkpt>
      <trkpt lat="47.547032" lon="7.916218">
        <ele>288.791648</ele>
        <time>2021-11-20T11:34:29.463Z</time>
      </trkpt>
      <trkpt lat="47.547091" lon="7.916039">
        <ele>288.775709</ele>
        <time>2021-11-20T11:34:31.281Z</time>
      </trkpt>
      <trkpt lat="47.547113" lon="7.915971">
        <ele>288.769675</ele>
        <time>2021-11-20T11:34:31.880Z</time>
      </trkpt>
      <trkpt lat="47.547423" lon="7.915080">
        <ele>288.689467</ele>
        <time>2021-11-20T11:34:41.524Z</time>
      </trkpt>
      <trkpt lat="47.547994" lon="7.913433">
        <ele>289.049235</ele>
        <time>2021-11-20T11:35:01.243Z</time>
      </trkpt>
      <trkpt lat="47.548027" lon="7.913334">
        <ele>289.109724</ele>
        <time>2021-11-20T11:35:02.602Z</time>
      </trkpt>
      <trkpt lat="47.548412" lon="7.912168">
        <ele>289.820832</ele>
        <time>2021-11-20T11:35:19.005Z</time>
      </trkpt>
      <trkpt lat="47.549012" lon="7.910340">
        <ele>291.312089</ele>
        <time>2021-11-20T11:35:45.892Z</time>
      </trkpt>
      <trkpt lat="47.549102" lon="7.910058">
        <ele>291.557291</ele>
        <time>2021-11-20T11:35:50.125Z</time>
      </trkpt>
      <trkpt lat="47.549187" lon="7.909782">
        <ele>291.795762</ele>
        <time>2021-11-20T11:35:53.906Z</time>
      </trkpt>
      <trkpt lat="47.549195" lon="7.909756">
        <ele>291.818223</ele>
        <time>2021-11-20T11:35:54.385Z</time>
      </trkpt>
      <trkpt lat="47.549257" lon="7.909550">
        <ele>291.995521</ele>
        <time>2021-11-20T11:35:57.357Z</time>
      </trkpt>
      <trkpt lat="47.549328" lon="7.909315">
        <ele>292.222139</ele>
        <time>2021-11-20T11:36:00.527Z</time>
      </trkpt>
      <trkpt lat="47.549520" lon="7.908678">
        <ele>293.126894</ele>
        <time>2021-11-20T11:36:09.700Z</time>
      </trkpt>
      <trkpt lat="47.549539" lon="7.908625">
        <ele>293.204723</ele>
        <time>2021-11-20T11:36:10.452Z</time>
      </trkpt>
      <trkpt lat="47.550497" lon="7.905558">
        <ele>298.678734</ele>
        <time>2021-11-20T11:37:05.303Z</time>
      </trkpt>
      <trkpt lat="47.550283" lon="7.905413">
        <ele>299.381215</ele>
        <time>2021-11-20T11:37:13.469Z</time>
      </trkpt>
      <trkpt lat="47.550067" lon="7.905245">
        <ele>300.109481</ele>
        <time>2021-11-20T11:37:22.155Z</time>
      </trkpt>
      <trkpt lat="47.549867" lon="7.905155">
        <ele>300.733465</ele>
        <time>2021-11-20T11:37:29.784Z</time>
      </trkpt>
      <trkpt lat="47.549868" lon="7.905010">
        <ele>301.036690</ele>
        <time>2021-11-20T11:37:33.189Z</time>
      </trkpt>
      <trkpt lat="47.550025" lon="7.904774">
        <ele>301.890762</ele>
        <time>2021-11-20T11:37:41.340Z</time>
      </trkpt>
      <trkpt lat="47.550302" lon="7.904164">
        <ele>303.785700</ele>
        <time>2021-11-20T11:37:59.639Z</time>
      </trkpt>
      <trkpt lat="47.550498" lon="7.903445">
        <ele>305.784294</ele>
        <time>2021-11-20T11:38:19.211Z</time>
      </trkpt>
      <trkpt lat="47.550688" lon="7.902451">
        <ele>308.468418</ele>
        <time>2021-11-20T11:38:41.759Z</time>
      </trkpt>
      <trkpt lat="47.550757" lon="7.901591">
        <ele>310.781340</ele>
        <time>2021-11-20T11:39:01.555Z</time>
      </trkpt>
      <trkpt lat="47.550769" lon="7.901362">
        <ele>311.394757</ele>
        <time>2021-11-20T11:39:07.463Z</time>
      </trkpt>
      <trkpt lat="47.550801" lon="7.900244">
        <ele>314.383213</ele>
        <time>2021-11-20T11:39:31.861Z</time>
      </trkpt>
      <trkpt lat="47.550819" lon="7.898109">
        <ele>319.924205</ele>
        <time>2021-11-20T11:40:18.901Z</time>
      </trkpt>
      <trkpt lat="47.550648" lon="7.896481">
        <ele>322.800644</ele>
        <time>2021-11-20T11:40:46.556Z</time>
      </trkpt>
      <trkpt lat="47.550639" lon="7.896345">
        <ele>322.943227</ele>
        <time>2021-11-20T11:40:48.931Z</time>
      </trkpt>
      <trkpt lat="47.550660" lon="7.896255">
        <ele>323.042587</ele>
        <time>2021-11-20T11:40:49.732Z</time>
      </trkpt>
      <trkpt lat="47.550838" lon="7.895509">
        <ele>323.868174</ele>
        <time>2021-11-20T11:40:59.900Z</time>
      </trkpt>
      <trkpt lat="47.550878" lon="7.895158">
        <ele>324.239591</ele>
        <time>2021-11-20T11:41:03.962Z</time>
      </trkpt>
      <trkpt lat="47.550908" lon="7.894308">
        <ele>325.357004</ele>
        <time>2021-11-20T11:41:14.434Z</time>
      </trkpt>
      <trkpt lat="47.550892" lon="7.893176">
        <ele>327.099286</ele>
        <time>2021-11-20T11:41:29.152Z</time>
      </trkpt>
      <trkpt lat="47.550904" lon="7.891725">
        <ele>330.213587</ele>
        <time>2021-11-20T11:41:58.914Z</time>
      </trkpt>
      <trkpt lat="47.550915" lon="7.890600">
        <ele>334.545269</ele>
        <time>2021-11-20T11:42:27.754Z</time>
      </trkpt>
      <trkpt lat="47.550833" lon="7.889069">
        <ele>340.557251</ele>
        <time>2021-11-20T11:43:10.388Z</time>
      </trkpt>
      <trkpt lat="47.550831" lon="7.888611">
        <ele>342.440895</ele>
        <time>2021-11-20T11:43:22.958Z</time>
      </trkpt>
      <trkpt lat="47.550789" lon="7.887816">
        <ele>345.720473</ele>
        <time>2021-11-20T11:43:43.570Z</time>
      </trkpt>
      <trkpt lat="47.550758" lon="7.887295">
        <ele>347.871488</ele>
        <time>2021-11-20T11:43:57.391Z</time>
      </trkpt>
      <trkpt lat="47.550677" lon="7.886476">
        <ele>351.058629</ele>
        <time>2021-11-20T11:44:18.880Z</time>
      </trkpt>
      <trkpt lat="47.550548" lon="7.885799">
        <ele>353.472456</ele>
        <time>2021-11-20T11:44:36.083Z</time>
      </trkpt>
      <trkpt lat="47.550391" lon="7.885109">
        <ele>355.971017</ele>
        <time>2021-11-20T11:44:53.720Z</time>
      </trkpt>
      <trkpt lat="47.550332" lon="7.884727">
        <ele>357.315682</ele>
        <time>2021-11-20T11:45:02.411Z</time>
      </trkpt>
      <trkpt lat="47.550234" lon="7.883221">
        <ele>361.521749</ele>
        <time>2021-11-20T11:45:35.242Z</time>
      </trkpt>
      <trkpt lat="47.549927" lon="7.881490">
        <ele>365.921507</ele>
        <time>2021-11-20T11:46:07.506Z</time>
      </trkpt>
      <trkpt lat="47.549726" lon="7.880786">
        <ele>368.047040</ele>
        <time>2021-11-20T11:46:23.483Z</time>
      </trkpt>
      <trkpt lat="47.549327" lon="7.879547">
        <ele>371.864369</ele>
        <time>2021-11-20T11:46:53.267Z</time>
      </trkpt>
      <trkpt lat="47.549318" lon="7.879398">
        <ele>372.280349</ele>
        <time>2021-11-20T11:46:56.455Z</time>
      </trkpt>
      <trkpt lat="47.549140" lon="7.879391">
        <ele>373.013276</ele>
        <time>2021-11-20T11:47:03.325Z</time>
      </trkpt>
      <trkpt lat="47.548718" lon="7.879258">
        <ele>374.315989</ele>
        <time>2021-11-20T11:47:16.996Z</time>
      </trkpt>
      <trkpt lat="47.548422" lon="7.878959">
        <ele>375.397711</ele>
        <time>2021-11-20T11:47:27.643Z</time>
      </trkpt>
      <trkpt lat="47.548234" lon="7.878638">
        <ele>376.263861</ele>
        <time>2021-11-20T11:47:36.075Z</time>
      </trkpt>
      <trkpt lat="47.547992" lon="7.877974">
        <ele>377.801789</ele>
        <time>2021-11-20T11:47:49.172Z</time>
      </trkpt>
      <trkpt lat="47.547574" lon="7.876801">
        <ele>377.337821</ele>
        <time>2021-11-20T11:48:02.935Z</time>
      </trkpt>
      <trkpt lat="47.547126" lon="7.875801">
        <ele>376.028023</ele>
        <time>2021-11-20T11:48:11.718Z</time>
      </trkpt>
      <trkpt lat="47.546309" lon="7.874154">
        <ele>369.714830</ele>
        <time>2021-11-20T11:48:24.906Z</time>
      </trkpt>
      <trkpt lat="47.546135" lon="7.873859">
        <ele>368.282349</ele>
        <time>2021-11-20T11:48:27.288Z</time>
      </trkpt>
      <trkpt lat="47.546077" lon="7.873763">
        <ele>367.811246</ele>
        <time>2021-11-20T11:48:28.099Z</time>
      </trkpt>
      <trkpt lat="47.545934" lon="7.873549">
        <ele>366.710160</ele>
        <time>2021-11-20T11:48:29.904Z</time>
      </trkpt>
      <trkpt lat="47.545746" lon="7.873302">
        <ele>365.790856</ele>
        <time>2021-11-20T11:48:32.192Z</time>
      </trkpt>
      <trkpt lat="47.545515" lon="7.873015">
        <ele>365.790856</ele>
        <time>2021-11-20T11:48:34.870Z</time>
      </trkpt>
      <trkpt lat="47.545478" lon="7.872968">
        <ele>365.790856</ele>
        <time>2021-11-20T11:48:35.316Z</time>
      </trkpt>
      <trkpt lat="47.545375" lon="7.872836">
        <ele>365.790856</ele>
        <time>2021-11-20T11:48:36.509Z</time>
      </trkpt>
      <trkpt lat="47.545131" lon="7.872664">
        <ele>365.790856</ele>
        <time>2021-11-20T11:48:38.987Z</time>
      </trkpt>
      <trkpt lat="47.544883" lon="7.872555">
        <ele>365.790856</ele>
        <time>2021-11-20T11:48:41.326Z</time>
      </trkpt>
      <trkpt lat="47.544390" lon="7.872423">
        <ele>365.790856</ele>
        <time>2021-11-20T11:48:45.967Z</time>
      </trkpt>
      <trkpt lat="47.544258" lon="7.872399">
        <ele>365.790856</ele>
        <time>2021-11-20T11:48:47.187Z</time>
      </trkpt>
    </trkseg>
  </trk>
</gpx>